<?xml version="1.0" encoding="UTF-8" standalone="no" ?>
<gpx xmlns="http://www.topografix.com/GPX/1/1" xmlns:xsi="http://www.w3.org/2001/XMLSchema-instance" xsi:schemaLocation="http://www.topografix.com/GPX/1/1 http://www.topografix.com/GPX/1/1/gpx.xsd" version="1.1" creator="VisuGPX - https://www.visugpx.com">
  <metadata>
    <name>Font Blanche</name>
    <desc><![CDATA[Ballade dans la Forêt de Font Blanche,parcours en dents de scie,difficulté moyenne.]]></desc>
  </metadata>
  <trk>
    <name><![CDATA[Font Blanche_1]]></name>
    <trkseg>
      <trkpt lat="43.2351" lon="5.67078">
        <ele>307.3</ele>
        <time>2013-11-20T07:22:58Z</time>
      </trkpt>
      <trkpt lat="43.2351" lon="5.67078">
        <ele>307.4</ele>
        <time>2013-11-20T07:22:59Z</time>
      </trkpt>
      <trkpt lat="43.23513" lon="5.67085">
        <ele>315.7</ele>
        <time>2013-11-20T07:23:49Z</time>
      </trkpt>
      <trkpt lat="43.23512" lon="5.6708">
        <ele>319.6</ele>
        <time>2013-11-20T07:24:16Z</time>
      </trkpt>
      <trkpt lat="43.23512" lon="5.67078">
        <ele>319.2</ele>
        <time>2013-11-20T07:24:17Z</time>
      </trkpt>
      <trkpt lat="43.23513" lon="5.6707">
        <ele>319.2</ele>
        <time>2013-11-20T07:24:22Z</time>
      </trkpt>
      <trkpt lat="43.23514" lon="5.67065">
        <ele>320</ele>
        <time>2013-11-20T07:24:26Z</time>
      </trkpt>
      <trkpt lat="43.23517" lon="5.6706">
        <ele>320.2</ele>
        <time>2013-11-20T07:24:32Z</time>
      </trkpt>
      <trkpt lat="43.23518" lon="5.67064">
        <ele>317.2</ele>
        <time>2013-11-20T07:25:06Z</time>
      </trkpt>
      <trkpt lat="43.23522" lon="5.67065">
        <ele>317.2</ele>
        <time>2013-11-20T07:25:24Z</time>
      </trkpt>
      <trkpt lat="43.23523" lon="5.67065">
        <ele>318.1</ele>
        <time>2013-11-20T07:25:25Z</time>
      </trkpt>
      <trkpt lat="43.23528" lon="5.6707">
        <ele>313.8</ele>
        <time>2013-11-20T07:25:33Z</time>
      </trkpt>
      <trkpt lat="43.23522" lon="5.67052">
        <ele>343.3</ele>
        <time>2013-11-20T07:25:34Z</time>
      </trkpt>
      <trkpt lat="43.23521" lon="5.67047">
        <ele>351.7</ele>
        <time>2013-11-20T07:25:35Z</time>
      </trkpt>
      <trkpt lat="43.23519" lon="5.67042">
        <ele>359.8</ele>
        <time>2013-11-20T07:25:36Z</time>
      </trkpt>
      <trkpt lat="43.23518" lon="5.67039">
        <ele>366.2</ele>
        <time>2013-11-20T07:25:37Z</time>
      </trkpt>
      <trkpt lat="43.23516" lon="5.67034">
        <ele>377</ele>
        <time>2013-11-20T07:25:40Z</time>
      </trkpt>
      <trkpt lat="43.23514" lon="5.6703">
        <ele>388.7</ele>
        <time>2013-11-20T07:25:46Z</time>
      </trkpt>
      <trkpt lat="43.23511" lon="5.67027">
        <ele>395</ele>
        <time>2013-11-20T07:25:49Z</time>
      </trkpt>
      <trkpt lat="43.23508" lon="5.67023">
        <ele>399.5</ele>
        <time>2013-11-20T07:25:56Z</time>
      </trkpt>
      <trkpt lat="43.23505" lon="5.67019">
        <ele>404.6</ele>
        <time>2013-11-20T07:26:04Z</time>
      </trkpt>
      <trkpt lat="43.23502" lon="5.67015">
        <ele>409</ele>
        <time>2013-11-20T07:26:11Z</time>
      </trkpt>
      <trkpt lat="43.23506" lon="5.67018">
        <ele>405</ele>
        <time>2013-11-20T07:26:25Z</time>
      </trkpt>
      <trkpt lat="43.23508" lon="5.67019">
        <ele>400.7</ele>
        <time>2013-11-20T07:26:26Z</time>
      </trkpt>
      <trkpt lat="43.23514" lon="5.67023">
        <ele>394.8</ele>
        <time>2013-11-20T07:26:30Z</time>
      </trkpt>
      <trkpt lat="43.23517" lon="5.67026">
        <ele>392.3</ele>
        <time>2013-11-20T07:26:33Z</time>
      </trkpt>
      <trkpt lat="43.2352" lon="5.67028">
        <ele>390.6</ele>
        <time>2013-11-20T07:26:36Z</time>
      </trkpt>
      <trkpt lat="43.23524" lon="5.6703">
        <ele>390.7</ele>
        <time>2013-11-20T07:26:43Z</time>
      </trkpt>
      <trkpt lat="43.23529" lon="5.6703">
        <ele>392</ele>
        <time>2013-11-20T07:26:49Z</time>
      </trkpt>
      <trkpt lat="43.23533" lon="5.67032">
        <ele>393.1</ele>
        <time>2013-11-20T07:26:57Z</time>
      </trkpt>
      <trkpt lat="43.23537" lon="5.67034">
        <ele>393.2</ele>
        <time>2013-11-20T07:27:03Z</time>
      </trkpt>
      <trkpt lat="43.23541" lon="5.67037">
        <ele>394.3</ele>
        <time>2013-11-20T07:27:07Z</time>
      </trkpt>
      <trkpt lat="43.23543" lon="5.67037">
        <ele>394.5</ele>
        <time>2013-11-20T07:27:09Z</time>
      </trkpt>
      <trkpt lat="43.23547" lon="5.67037">
        <ele>394.6</ele>
        <time>2013-11-20T07:27:12Z</time>
      </trkpt>
      <trkpt lat="43.23551" lon="5.67036">
        <ele>396.5</ele>
        <time>2013-11-20T07:27:16Z</time>
      </trkpt>
      <trkpt lat="43.23555" lon="5.67036">
        <ele>397.2</ele>
        <time>2013-11-20T07:27:20Z</time>
      </trkpt>
      <trkpt lat="43.23559" lon="5.67038">
        <ele>397.1</ele>
        <time>2013-11-20T07:27:24Z</time>
      </trkpt>
      <trkpt lat="43.23563" lon="5.67037">
        <ele>396.2</ele>
        <time>2013-11-20T07:27:28Z</time>
      </trkpt>
      <trkpt lat="43.23564" lon="5.67037">
        <ele>396.1</ele>
        <time>2013-11-20T07:27:29Z</time>
      </trkpt>
      <trkpt lat="43.2357" lon="5.67041">
        <ele>395.2</ele>
        <time>2013-11-20T07:27:35Z</time>
      </trkpt>
      <trkpt lat="43.23574" lon="5.67041">
        <ele>396.7</ele>
        <time>2013-11-20T07:27:38Z</time>
      </trkpt>
      <trkpt lat="43.23578" lon="5.67042">
        <ele>395.3</ele>
        <time>2013-11-20T07:27:42Z</time>
      </trkpt>
      <trkpt lat="43.23581" lon="5.67042">
        <ele>394.5</ele>
        <time>2013-11-20T07:27:45Z</time>
      </trkpt>
      <trkpt lat="43.23586" lon="5.67042">
        <ele>393.3</ele>
        <time>2013-11-20T07:27:48Z</time>
      </trkpt>
      <trkpt lat="43.23589" lon="5.67042">
        <ele>393.1</ele>
        <time>2013-11-20T07:27:50Z</time>
      </trkpt>
      <trkpt lat="43.23593" lon="5.67043">
        <ele>392.3</ele>
        <time>2013-11-20T07:27:53Z</time>
      </trkpt>
      <trkpt lat="43.23597" lon="5.67043">
        <ele>392</ele>
        <time>2013-11-20T07:27:57Z</time>
      </trkpt>
      <trkpt lat="43.23601" lon="5.67044">
        <ele>390.2</ele>
        <time>2013-11-20T07:28:01Z</time>
      </trkpt>
      <trkpt lat="43.23606" lon="5.67044">
        <ele>389.8</ele>
        <time>2013-11-20T07:28:04Z</time>
      </trkpt>
      <trkpt lat="43.23609" lon="5.67044">
        <ele>389.7</ele>
        <time>2013-11-20T07:28:07Z</time>
      </trkpt>
      <trkpt lat="43.23614" lon="5.67044">
        <ele>389.2</ele>
        <time>2013-11-20T07:28:11Z</time>
      </trkpt>
      <trkpt lat="43.23617" lon="5.67044">
        <ele>388.8</ele>
        <time>2013-11-20T07:28:14Z</time>
      </trkpt>
      <trkpt lat="43.23621" lon="5.67043">
        <ele>389.1</ele>
        <time>2013-11-20T07:28:17Z</time>
      </trkpt>
      <trkpt lat="43.23624" lon="5.67042">
        <ele>390</ele>
        <time>2013-11-20T07:28:19Z</time>
      </trkpt>
      <trkpt lat="43.23628" lon="5.67042">
        <ele>390.2</ele>
        <time>2013-11-20T07:28:21Z</time>
      </trkpt>
      <trkpt lat="43.23632" lon="5.67042">
        <ele>391.8</ele>
        <time>2013-11-20T07:28:24Z</time>
      </trkpt>
      <trkpt lat="43.23636" lon="5.67042">
        <ele>392.2</ele>
        <time>2013-11-20T07:28:26Z</time>
      </trkpt>
      <trkpt lat="43.2364" lon="5.67041">
        <ele>393.7</ele>
        <time>2013-11-20T07:28:30Z</time>
      </trkpt>
      <trkpt lat="43.23641" lon="5.67041">
        <ele>394.7</ele>
        <time>2013-11-20T07:28:31Z</time>
      </trkpt>
      <trkpt lat="43.23648" lon="5.67038">
        <ele>398.7</ele>
        <time>2013-11-20T07:28:39Z</time>
      </trkpt>
      <trkpt lat="43.23651" lon="5.67036">
        <ele>400.2</ele>
        <time>2013-11-20T07:28:43Z</time>
      </trkpt>
      <trkpt lat="43.23655" lon="5.67036">
        <ele>400.5</ele>
        <time>2013-11-20T07:28:47Z</time>
      </trkpt>
      <trkpt lat="43.23659" lon="5.67034">
        <ele>400.8</ele>
        <time>2013-11-20T07:28:50Z</time>
      </trkpt>
      <trkpt lat="43.23663" lon="5.67033">
        <ele>402.2</ele>
        <time>2013-11-20T07:28:54Z</time>
      </trkpt>
      <trkpt lat="43.23667" lon="5.67033">
        <ele>403.8</ele>
        <time>2013-11-20T07:28:58Z</time>
      </trkpt>
      <trkpt lat="43.23671" lon="5.67032">
        <ele>405.5</ele>
        <time>2013-11-20T07:29:02Z</time>
      </trkpt>
      <trkpt lat="43.23674" lon="5.67031">
        <ele>405.8</ele>
        <time>2013-11-20T07:29:06Z</time>
      </trkpt>
      <trkpt lat="43.23678" lon="5.67031">
        <ele>404.7</ele>
        <time>2013-11-20T07:29:09Z</time>
      </trkpt>
      <trkpt lat="43.23682" lon="5.6703">
        <ele>404.3</ele>
        <time>2013-11-20T07:29:13Z</time>
      </trkpt>
      <trkpt lat="43.23686" lon="5.67029">
        <ele>403.2</ele>
        <time>2013-11-20T07:29:16Z</time>
      </trkpt>
      <trkpt lat="43.2369" lon="5.67029">
        <ele>399.7</ele>
        <time>2013-11-20T07:29:20Z</time>
      </trkpt>
      <trkpt lat="43.23694" lon="5.67028">
        <ele>399.3</ele>
        <time>2013-11-20T07:29:25Z</time>
      </trkpt>
      <trkpt lat="43.23698" lon="5.67028">
        <ele>399.6</ele>
        <time>2013-11-20T07:29:29Z</time>
      </trkpt>
      <trkpt lat="43.23702" lon="5.67028">
        <ele>400.1</ele>
        <time>2013-11-20T07:29:32Z</time>
      </trkpt>
      <trkpt lat="43.23703" lon="5.67028">
        <ele>400.2</ele>
        <time>2013-11-20T07:29:33Z</time>
      </trkpt>
      <trkpt lat="43.2371" lon="5.67028">
        <ele>399</ele>
        <time>2013-11-20T07:29:40Z</time>
      </trkpt>
      <trkpt lat="43.23714" lon="5.67029">
        <ele>400.1</ele>
        <time>2013-11-20T07:29:44Z</time>
      </trkpt>
      <trkpt lat="43.23717" lon="5.6703">
        <ele>400.8</ele>
        <time>2013-11-20T07:29:48Z</time>
      </trkpt>
      <trkpt lat="43.2372" lon="5.6703">
        <ele>400.7</ele>
        <time>2013-11-20T07:29:51Z</time>
      </trkpt>
      <trkpt lat="43.23724" lon="5.6703">
        <ele>400.5</ele>
        <time>2013-11-20T07:29:54Z</time>
      </trkpt>
      <trkpt lat="43.23727" lon="5.67031">
        <ele>399.3</ele>
        <time>2013-11-20T07:29:58Z</time>
      </trkpt>
      <trkpt lat="43.23731" lon="5.67031">
        <ele>398.8</ele>
        <time>2013-11-20T07:30:01Z</time>
      </trkpt>
      <trkpt lat="43.23735" lon="5.67032">
        <ele>398.6</ele>
        <time>2013-11-20T07:30:05Z</time>
      </trkpt>
      <trkpt lat="43.23739" lon="5.67032">
        <ele>398.6</ele>
        <time>2013-11-20T07:30:08Z</time>
      </trkpt>
      <trkpt lat="43.23743" lon="5.67034">
        <ele>398.6</ele>
        <time>2013-11-20T07:30:12Z</time>
      </trkpt>
      <trkpt lat="43.23746" lon="5.67034">
        <ele>398.7</ele>
        <time>2013-11-20T07:30:15Z</time>
      </trkpt>
      <trkpt lat="43.2375" lon="5.67035">
        <ele>398.7</ele>
        <time>2013-11-20T07:30:18Z</time>
      </trkpt>
      <trkpt lat="43.23754" lon="5.67036">
        <ele>399.1</ele>
        <time>2013-11-20T07:30:21Z</time>
      </trkpt>
      <trkpt lat="43.23758" lon="5.67038">
        <ele>399.1</ele>
        <time>2013-11-20T07:30:24Z</time>
      </trkpt>
      <trkpt lat="43.23762" lon="5.67039">
        <ele>399.2</ele>
        <time>2013-11-20T07:30:28Z</time>
      </trkpt>
      <trkpt lat="43.23766" lon="5.6704">
        <ele>399.2</ele>
        <time>2013-11-20T07:30:31Z</time>
      </trkpt>
      <trkpt lat="43.23769" lon="5.67042">
        <ele>399.2</ele>
        <time>2013-11-20T07:30:34Z</time>
      </trkpt>
      <trkpt lat="43.23771" lon="5.67043">
        <ele>399.3</ele>
        <time>2013-11-20T07:30:35Z</time>
      </trkpt>
      <trkpt lat="43.23777" lon="5.67045">
        <ele>400.1</ele>
        <time>2013-11-20T07:30:40Z</time>
      </trkpt>
      <trkpt lat="43.23781" lon="5.67047">
        <ele>400.3</ele>
        <time>2013-11-20T07:30:43Z</time>
      </trkpt>
      <trkpt lat="43.23785" lon="5.67047">
        <ele>400.7</ele>
        <time>2013-11-20T07:30:46Z</time>
      </trkpt>
      <trkpt lat="43.23789" lon="5.67049">
        <ele>401.3</ele>
        <time>2013-11-20T07:30:49Z</time>
      </trkpt>
      <trkpt lat="43.23793" lon="5.6705">
        <ele>402</ele>
        <time>2013-11-20T07:30:52Z</time>
      </trkpt>
      <trkpt lat="43.23796" lon="5.67051">
        <ele>402</ele>
        <time>2013-11-20T07:30:55Z</time>
      </trkpt>
      <trkpt lat="43.23801" lon="5.67052">
        <ele>402.3</ele>
        <time>2013-11-20T07:31:00Z</time>
      </trkpt>
      <trkpt lat="43.23805" lon="5.67053">
        <ele>402.6</ele>
        <time>2013-11-20T07:31:05Z</time>
      </trkpt>
      <trkpt lat="43.23809" lon="5.67052">
        <ele>402.6</ele>
        <time>2013-11-20T07:31:08Z</time>
      </trkpt>
      <trkpt lat="43.23813" lon="5.67051">
        <ele>403</ele>
        <time>2013-11-20T07:31:11Z</time>
      </trkpt>
      <trkpt lat="43.23816" lon="5.67049">
        <ele>403.5</ele>
        <time>2013-11-20T07:31:13Z</time>
      </trkpt>
      <trkpt lat="43.2382" lon="5.67047">
        <ele>404.2</ele>
        <time>2013-11-20T07:31:16Z</time>
      </trkpt>
      <trkpt lat="43.23824" lon="5.67044">
        <ele>405.6</ele>
        <time>2013-11-20T07:31:20Z</time>
      </trkpt>
      <trkpt lat="43.23827" lon="5.6704">
        <ele>406.5</ele>
        <time>2013-11-20T07:31:24Z</time>
      </trkpt>
      <trkpt lat="43.2383" lon="5.67036">
        <ele>407.2</ele>
        <time>2013-11-20T07:31:28Z</time>
      </trkpt>
      <trkpt lat="43.23832" lon="5.67031">
        <ele>407.7</ele>
        <time>2013-11-20T07:31:32Z</time>
      </trkpt>
      <trkpt lat="43.23835" lon="5.67027">
        <ele>408.5</ele>
        <time>2013-11-20T07:31:36Z</time>
      </trkpt>
      <trkpt lat="43.23836" lon="5.67026">
        <ele>408.5</ele>
        <time>2013-11-20T07:31:37Z</time>
      </trkpt>
      <trkpt lat="43.2384" lon="5.67018">
        <ele>409.7</ele>
        <time>2013-11-20T07:31:43Z</time>
      </trkpt>
      <trkpt lat="43.23843" lon="5.67015">
        <ele>410.2</ele>
        <time>2013-11-20T07:31:46Z</time>
      </trkpt>
      <trkpt lat="43.23845" lon="5.6701">
        <ele>409.7</ele>
        <time>2013-11-20T07:31:49Z</time>
      </trkpt>
      <trkpt lat="43.23847" lon="5.67007">
        <ele>409.5</ele>
        <time>2013-11-20T07:31:52Z</time>
      </trkpt>
      <trkpt lat="43.23849" lon="5.67002">
        <ele>409.2</ele>
        <time>2013-11-20T07:31:55Z</time>
      </trkpt>
      <trkpt lat="43.23851" lon="5.66999">
        <ele>408.3</ele>
        <time>2013-11-20T07:31:58Z</time>
      </trkpt>
      <trkpt lat="43.23853" lon="5.66995">
        <ele>408.7</ele>
        <time>2013-11-20T07:32:01Z</time>
      </trkpt>
      <trkpt lat="43.23855" lon="5.6699">
        <ele>410.1</ele>
        <time>2013-11-20T07:32:04Z</time>
      </trkpt>
      <trkpt lat="43.23855" lon="5.66986">
        <ele>412</ele>
        <time>2013-11-20T07:32:07Z</time>
      </trkpt>
      <trkpt lat="43.23856" lon="5.6698">
        <ele>413.8</ele>
        <time>2013-11-20T07:32:11Z</time>
      </trkpt>
      <trkpt lat="43.23857" lon="5.66974">
        <ele>415.7</ele>
        <time>2013-11-20T07:32:15Z</time>
      </trkpt>
      <trkpt lat="43.23859" lon="5.6697">
        <ele>416</ele>
        <time>2013-11-20T07:32:18Z</time>
      </trkpt>
      <trkpt lat="43.23861" lon="5.66966">
        <ele>415.6</ele>
        <time>2013-11-20T07:32:21Z</time>
      </trkpt>
      <trkpt lat="43.23863" lon="5.66961">
        <ele>415.6</ele>
        <time>2013-11-20T07:32:24Z</time>
      </trkpt>
      <trkpt lat="43.23865" lon="5.66956">
        <ele>415.5</ele>
        <time>2013-11-20T07:32:28Z</time>
      </trkpt>
      <trkpt lat="43.23867" lon="5.66951">
        <ele>415.2</ele>
        <time>2013-11-20T07:32:32Z</time>
      </trkpt>
      <trkpt lat="43.23869" lon="5.66946">
        <ele>414.8</ele>
        <time>2013-11-20T07:32:36Z</time>
      </trkpt>
      <trkpt lat="43.23871" lon="5.66941">
        <ele>414.8</ele>
        <time>2013-11-20T07:32:40Z</time>
      </trkpt>
      <trkpt lat="43.23871" lon="5.6694">
        <ele>415</ele>
        <time>2013-11-20T07:32:41Z</time>
      </trkpt>
      <trkpt lat="43.23873" lon="5.66933">
        <ele>415.5</ele>
        <time>2013-11-20T07:32:46Z</time>
      </trkpt>
      <trkpt lat="43.23874" lon="5.66928">
        <ele>416.1</ele>
        <time>2013-11-20T07:32:49Z</time>
      </trkpt>
      <trkpt lat="43.23875" lon="5.66922">
        <ele>416.5</ele>
        <time>2013-11-20T07:32:53Z</time>
      </trkpt>
      <trkpt lat="43.23876" lon="5.66917">
        <ele>416.8</ele>
        <time>2013-11-20T07:32:56Z</time>
      </trkpt>
      <trkpt lat="43.23877" lon="5.66913">
        <ele>416.8</ele>
        <time>2013-11-20T07:32:59Z</time>
      </trkpt>
      <trkpt lat="43.23878" lon="5.66908">
        <ele>416.3</ele>
        <time>2013-11-20T07:33:02Z</time>
      </trkpt>
      <trkpt lat="43.23879" lon="5.66903">
        <ele>416.6</ele>
        <time>2013-11-20T07:33:05Z</time>
      </trkpt>
      <trkpt lat="43.2388" lon="5.66897">
        <ele>416.2</ele>
        <time>2013-11-20T07:33:09Z</time>
      </trkpt>
      <trkpt lat="43.23881" lon="5.66893">
        <ele>415.7</ele>
        <time>2013-11-20T07:33:12Z</time>
      </trkpt>
      <trkpt lat="43.23882" lon="5.66888">
        <ele>415.1</ele>
        <time>2013-11-20T07:33:15Z</time>
      </trkpt>
      <trkpt lat="43.23883" lon="5.66882">
        <ele>415.1</ele>
        <time>2013-11-20T07:33:19Z</time>
      </trkpt>
      <trkpt lat="43.23884" lon="5.66878">
        <ele>414.8</ele>
        <time>2013-11-20T07:33:22Z</time>
      </trkpt>
      <trkpt lat="43.23885" lon="5.66873">
        <ele>415.2</ele>
        <time>2013-11-20T07:33:25Z</time>
      </trkpt>
      <trkpt lat="43.23886" lon="5.66868">
        <ele>415.7</ele>
        <time>2013-11-20T07:33:28Z</time>
      </trkpt>
      <trkpt lat="43.23886" lon="5.66863">
        <ele>416.2</ele>
        <time>2013-11-20T07:33:31Z</time>
      </trkpt>
      <trkpt lat="43.23888" lon="5.66857">
        <ele>416.2</ele>
        <time>2013-11-20T07:33:35Z</time>
      </trkpt>
      <trkpt lat="43.23889" lon="5.66852">
        <ele>417</ele>
        <time>2013-11-20T07:33:38Z</time>
      </trkpt>
      <trkpt lat="43.2389" lon="5.66847">
        <ele>417.2</ele>
        <time>2013-11-20T07:33:41Z</time>
      </trkpt>
      <trkpt lat="43.2389" lon="5.66846">
        <ele>417</ele>
        <time>2013-11-20T07:33:42Z</time>
      </trkpt>
      <trkpt lat="43.23893" lon="5.66838">
        <ele>416.7</ele>
        <time>2013-11-20T07:33:48Z</time>
      </trkpt>
      <trkpt lat="43.23896" lon="5.66834">
        <ele>416.7</ele>
        <time>2013-11-20T07:33:51Z</time>
      </trkpt>
      <trkpt lat="43.23899" lon="5.6683">
        <ele>415.3</ele>
        <time>2013-11-20T07:33:55Z</time>
      </trkpt>
      <trkpt lat="43.23901" lon="5.66825">
        <ele>416.2</ele>
        <time>2013-11-20T07:33:59Z</time>
      </trkpt>
      <trkpt lat="43.23904" lon="5.66821">
        <ele>417.8</ele>
        <time>2013-11-20T07:34:04Z</time>
      </trkpt>
      <trkpt lat="43.23907" lon="5.66818">
        <ele>418.7</ele>
        <time>2013-11-20T07:34:08Z</time>
      </trkpt>
      <trkpt lat="43.23911" lon="5.66816">
        <ele>419.8</ele>
        <time>2013-11-20T07:34:12Z</time>
      </trkpt>
      <trkpt lat="43.23915" lon="5.66814">
        <ele>418</ele>
        <time>2013-11-20T07:34:15Z</time>
      </trkpt>
      <trkpt lat="43.23918" lon="5.66812">
        <ele>416.2</ele>
        <time>2013-11-20T07:34:18Z</time>
      </trkpt>
      <trkpt lat="43.23921" lon="5.6681">
        <ele>416.7</ele>
        <time>2013-11-20T07:34:21Z</time>
      </trkpt>
      <trkpt lat="43.23925" lon="5.66808">
        <ele>416.7</ele>
        <time>2013-11-20T07:34:24Z</time>
      </trkpt>
      <trkpt lat="43.23929" lon="5.66805">
        <ele>417.3</ele>
        <time>2013-11-20T07:34:28Z</time>
      </trkpt>
      <trkpt lat="43.23932" lon="5.66803">
        <ele>417.7</ele>
        <time>2013-11-20T07:34:31Z</time>
      </trkpt>
      <trkpt lat="43.23935" lon="5.668">
        <ele>418.6</ele>
        <time>2013-11-20T07:34:34Z</time>
      </trkpt>
      <trkpt lat="43.23938" lon="5.66797">
        <ele>419.7</ele>
        <time>2013-11-20T07:34:38Z</time>
      </trkpt>
      <trkpt lat="43.23942" lon="5.66794">
        <ele>420.3</ele>
        <time>2013-11-20T07:34:42Z</time>
      </trkpt>
      <trkpt lat="43.23943" lon="5.66794">
        <ele>420.6</ele>
        <time>2013-11-20T07:34:43Z</time>
      </trkpt>
      <trkpt lat="43.23949" lon="5.66793">
        <ele>418</ele>
        <time>2013-11-20T07:34:49Z</time>
      </trkpt>
      <trkpt lat="43.23953" lon="5.66793">
        <ele>418.5</ele>
        <time>2013-11-20T07:34:52Z</time>
      </trkpt>
      <trkpt lat="43.23956" lon="5.66795">
        <ele>419.2</ele>
        <time>2013-11-20T07:34:55Z</time>
      </trkpt>
      <trkpt lat="43.2396" lon="5.66796">
        <ele>419.6</ele>
        <time>2013-11-20T07:34:59Z</time>
      </trkpt>
      <trkpt lat="43.23963" lon="5.66799">
        <ele>419.6</ele>
        <time>2013-11-20T07:35:02Z</time>
      </trkpt>
      <trkpt lat="43.23965" lon="5.66804">
        <ele>419.5</ele>
        <time>2013-11-20T07:35:06Z</time>
      </trkpt>
      <trkpt lat="43.23968" lon="5.66808">
        <ele>419.5</ele>
        <time>2013-11-20T07:35:10Z</time>
      </trkpt>
      <trkpt lat="43.2397" lon="5.66813">
        <ele>419.5</ele>
        <time>2013-11-20T07:35:14Z</time>
      </trkpt>
      <trkpt lat="43.23969" lon="5.66808">
        <ele>420.7</ele>
        <time>2013-11-20T07:35:30Z</time>
      </trkpt>
      <trkpt lat="43.23968" lon="5.66804">
        <ele>421</ele>
        <time>2013-11-20T07:35:33Z</time>
      </trkpt>
      <trkpt lat="43.23967" lon="5.66798">
        <ele>421</ele>
        <time>2013-11-20T07:35:36Z</time>
      </trkpt>
      <trkpt lat="43.23966" lon="5.66794">
        <ele>420.8</ele>
        <time>2013-11-20T07:35:39Z</time>
      </trkpt>
      <trkpt lat="43.23965" lon="5.66789">
        <ele>420.8</ele>
        <time>2013-11-20T07:35:42Z</time>
      </trkpt>
      <trkpt lat="43.23965" lon="5.66784">
        <ele>420.7</ele>
        <time>2013-11-20T07:35:45Z</time>
      </trkpt>
      <trkpt lat="43.23965" lon="5.66783">
        <ele>420.7</ele>
        <time>2013-11-20T07:35:46Z</time>
      </trkpt>
      <trkpt lat="43.23965" lon="5.66775">
        <ele>420.7</ele>
        <time>2013-11-20T07:35:51Z</time>
      </trkpt>
      <trkpt lat="43.23965" lon="5.66769">
        <ele>421.2</ele>
        <time>2013-11-20T07:35:54Z</time>
      </trkpt>
      <trkpt lat="43.23968" lon="5.66765">
        <ele>421.3</ele>
        <time>2013-11-20T07:35:58Z</time>
      </trkpt>
      <trkpt lat="43.23971" lon="5.66761">
        <ele>421.2</ele>
        <time>2013-11-20T07:36:02Z</time>
      </trkpt>
      <trkpt lat="43.23974" lon="5.66756">
        <ele>422.6</ele>
        <time>2013-11-20T07:36:06Z</time>
      </trkpt>
      <trkpt lat="43.23977" lon="5.66753">
        <ele>421.3</ele>
        <time>2013-11-20T07:36:10Z</time>
      </trkpt>
      <trkpt lat="43.2398" lon="5.66749">
        <ele>421.6</ele>
        <time>2013-11-20T07:36:14Z</time>
      </trkpt>
      <trkpt lat="43.23984" lon="5.66746">
        <ele>421.2</ele>
        <time>2013-11-20T07:36:18Z</time>
      </trkpt>
      <trkpt lat="43.23987" lon="5.66744">
        <ele>420.2</ele>
        <time>2013-11-20T07:36:21Z</time>
      </trkpt>
      <trkpt lat="43.2399" lon="5.66742">
        <ele>420.1</ele>
        <time>2013-11-20T07:36:23Z</time>
      </trkpt>
      <trkpt lat="43.23993" lon="5.6674">
        <ele>420</ele>
        <time>2013-11-20T07:36:26Z</time>
      </trkpt>
      <trkpt lat="43.23997" lon="5.66737">
        <ele>419.3</ele>
        <time>2013-11-20T07:36:29Z</time>
      </trkpt>
      <trkpt lat="43.24" lon="5.66733">
        <ele>418</ele>
        <time>2013-11-20T07:36:32Z</time>
      </trkpt>
      <trkpt lat="43.24003" lon="5.6673">
        <ele>415.8</ele>
        <time>2013-11-20T07:36:35Z</time>
      </trkpt>
      <trkpt lat="43.24006" lon="5.66726">
        <ele>414.5</ele>
        <time>2013-11-20T07:36:38Z</time>
      </trkpt>
      <trkpt lat="43.2401" lon="5.66722">
        <ele>412.3</ele>
        <time>2013-11-20T07:36:41Z</time>
      </trkpt>
      <trkpt lat="43.24012" lon="5.66718">
        <ele>413.2</ele>
        <time>2013-11-20T07:36:44Z</time>
      </trkpt>
      <trkpt lat="43.24014" lon="5.66713">
        <ele>414.3</ele>
        <time>2013-11-20T07:36:47Z</time>
      </trkpt>
      <trkpt lat="43.24016" lon="5.66712">
        <ele>414</ele>
        <time>2013-11-20T07:36:48Z</time>
      </trkpt>
      <trkpt lat="43.24022" lon="5.66708">
        <ele>413.1</ele>
        <time>2013-11-20T07:36:53Z</time>
      </trkpt>
      <trkpt lat="43.24025" lon="5.66706">
        <ele>413.6</ele>
        <time>2013-11-20T07:36:56Z</time>
      </trkpt>
      <trkpt lat="43.2403" lon="5.66706">
        <ele>413.7</ele>
        <time>2013-11-20T07:37:00Z</time>
      </trkpt>
      <trkpt lat="43.24033" lon="5.66706">
        <ele>414</ele>
        <time>2013-11-20T07:37:04Z</time>
      </trkpt>
      <trkpt lat="43.24037" lon="5.66703">
        <ele>414</ele>
        <time>2013-11-20T07:37:09Z</time>
      </trkpt>
      <trkpt lat="43.2404" lon="5.667">
        <ele>413.7</ele>
        <time>2013-11-20T07:37:13Z</time>
      </trkpt>
      <trkpt lat="43.24044" lon="5.66696">
        <ele>413.2</ele>
        <time>2013-11-20T07:37:17Z</time>
      </trkpt>
      <trkpt lat="43.24047" lon="5.66693">
        <ele>411.8</ele>
        <time>2013-11-20T07:37:20Z</time>
      </trkpt>
      <trkpt lat="43.24049" lon="5.66688">
        <ele>410.7</ele>
        <time>2013-11-20T07:37:25Z</time>
      </trkpt>
      <trkpt lat="43.24049" lon="5.66683">
        <ele>412</ele>
        <time>2013-11-20T07:37:28Z</time>
      </trkpt>
      <trkpt lat="43.24049" lon="5.66677">
        <ele>412.3</ele>
        <time>2013-11-20T07:37:31Z</time>
      </trkpt>
      <trkpt lat="43.2405" lon="5.66673">
        <ele>412.6</ele>
        <time>2013-11-20T07:37:34Z</time>
      </trkpt>
      <trkpt lat="43.2405" lon="5.66668">
        <ele>413.6</ele>
        <time>2013-11-20T07:37:37Z</time>
      </trkpt>
      <trkpt lat="43.2405" lon="5.66662">
        <ele>414.1</ele>
        <time>2013-11-20T07:37:40Z</time>
      </trkpt>
      <trkpt lat="43.24051" lon="5.66657">
        <ele>413.6</ele>
        <time>2013-11-20T07:37:44Z</time>
      </trkpt>
      <trkpt lat="43.24053" lon="5.66651">
        <ele>413.6</ele>
        <time>2013-11-20T07:37:48Z</time>
      </trkpt>
      <trkpt lat="43.24053" lon="5.66649">
        <ele>413.7</ele>
        <time>2013-11-20T07:37:49Z</time>
      </trkpt>
      <trkpt lat="43.24056" lon="5.66641">
        <ele>414.8</ele>
        <time>2013-11-20T07:37:55Z</time>
      </trkpt>
      <trkpt lat="43.24058" lon="5.66637">
        <ele>415</ele>
        <time>2013-11-20T07:37:58Z</time>
      </trkpt>
      <trkpt lat="43.24061" lon="5.66632">
        <ele>414.7</ele>
        <time>2013-11-20T07:38:02Z</time>
      </trkpt>
      <trkpt lat="43.24062" lon="5.66628">
        <ele>414.7</ele>
        <time>2013-11-20T07:38:05Z</time>
      </trkpt>
      <trkpt lat="43.24065" lon="5.66624">
        <ele>414.5</ele>
        <time>2013-11-20T07:38:09Z</time>
      </trkpt>
      <trkpt lat="43.24069" lon="5.6662">
        <ele>414.6</ele>
        <time>2013-11-20T07:38:13Z</time>
      </trkpt>
      <trkpt lat="43.24072" lon="5.66617">
        <ele>414.7</ele>
        <time>2013-11-20T07:38:17Z</time>
      </trkpt>
      <trkpt lat="43.24076" lon="5.66614">
        <ele>414</ele>
        <time>2013-11-20T07:38:21Z</time>
      </trkpt>
      <trkpt lat="43.2408" lon="5.66612">
        <ele>414.6</ele>
        <time>2013-11-20T07:38:26Z</time>
      </trkpt>
      <trkpt lat="43.24082" lon="5.66609">
        <ele>415.1</ele>
        <time>2013-11-20T07:38:30Z</time>
      </trkpt>
      <trkpt lat="43.24085" lon="5.66607">
        <ele>415.5</ele>
        <time>2013-11-20T07:38:33Z</time>
      </trkpt>
      <trkpt lat="43.24088" lon="5.66604">
        <ele>415.3</ele>
        <time>2013-11-20T07:38:36Z</time>
      </trkpt>
      <trkpt lat="43.24092" lon="5.66601">
        <ele>415</ele>
        <time>2013-11-20T07:38:40Z</time>
      </trkpt>
      <trkpt lat="43.24096" lon="5.66599">
        <ele>414.7</ele>
        <time>2013-11-20T07:38:43Z</time>
      </trkpt>
      <trkpt lat="43.24099" lon="5.66597">
        <ele>414.7</ele>
        <time>2013-11-20T07:38:46Z</time>
      </trkpt>
      <trkpt lat="43.24103" lon="5.66594">
        <ele>414.7</ele>
        <time>2013-11-20T07:38:50Z</time>
      </trkpt>
      <trkpt lat="43.24104" lon="5.66593">
        <ele>414.7</ele>
        <time>2013-11-20T07:38:51Z</time>
      </trkpt>
      <trkpt lat="43.2411" lon="5.6659">
        <ele>415.5</ele>
        <time>2013-11-20T07:38:57Z</time>
      </trkpt>
      <trkpt lat="43.24113" lon="5.66588">
        <ele>415.7</ele>
        <time>2013-11-20T07:39:00Z</time>
      </trkpt>
      <trkpt lat="43.24117" lon="5.66586">
        <ele>416.2</ele>
        <time>2013-11-20T07:39:04Z</time>
      </trkpt>
      <trkpt lat="43.24121" lon="5.66584">
        <ele>416.5</ele>
        <time>2013-11-20T07:39:08Z</time>
      </trkpt>
      <trkpt lat="43.24124" lon="5.66582">
        <ele>416.7</ele>
        <time>2013-11-20T07:39:11Z</time>
      </trkpt>
      <trkpt lat="43.24127" lon="5.6658">
        <ele>416.7</ele>
        <time>2013-11-20T07:39:14Z</time>
      </trkpt>
      <trkpt lat="43.24131" lon="5.66579">
        <ele>415.8</ele>
        <time>2013-11-20T07:39:17Z</time>
      </trkpt>
      <trkpt lat="43.24135" lon="5.66577">
        <ele>414.8</ele>
        <time>2013-11-20T07:39:20Z</time>
      </trkpt>
      <trkpt lat="43.24138" lon="5.66575">
        <ele>414.5</ele>
        <time>2013-11-20T07:39:23Z</time>
      </trkpt>
      <trkpt lat="43.24142" lon="5.66574">
        <ele>415.3</ele>
        <time>2013-11-20T07:39:27Z</time>
      </trkpt>
      <trkpt lat="43.24145" lon="5.66572">
        <ele>415.6</ele>
        <time>2013-11-20T07:39:30Z</time>
      </trkpt>
      <trkpt lat="43.24149" lon="5.6657">
        <ele>417</ele>
        <time>2013-11-20T07:39:35Z</time>
      </trkpt>
      <trkpt lat="43.24153" lon="5.66569">
        <ele>417.1</ele>
        <time>2013-11-20T07:39:39Z</time>
      </trkpt>
      <trkpt lat="43.24157" lon="5.66567">
        <ele>417.6</ele>
        <time>2013-11-20T07:39:43Z</time>
      </trkpt>
      <trkpt lat="43.24161" lon="5.66566">
        <ele>417.7</ele>
        <time>2013-11-20T07:39:46Z</time>
      </trkpt>
      <trkpt lat="43.24165" lon="5.66565">
        <ele>416.7</ele>
        <time>2013-11-20T07:39:50Z</time>
      </trkpt>
      <trkpt lat="43.24169" lon="5.66563">
        <ele>417.3</ele>
        <time>2013-11-20T07:39:55Z</time>
      </trkpt>
      <trkpt lat="43.2417" lon="5.66563">
        <ele>417.3</ele>
        <time>2013-11-20T07:39:56Z</time>
      </trkpt>
      <trkpt lat="43.24176" lon="5.66561">
        <ele>416.7</ele>
        <time>2013-11-20T07:40:01Z</time>
      </trkpt>
      <trkpt lat="43.2418" lon="5.6656">
        <ele>417.2</ele>
        <time>2013-11-20T07:40:05Z</time>
      </trkpt>
      <trkpt lat="43.24184" lon="5.66559">
        <ele>417.7</ele>
        <time>2013-11-20T07:40:09Z</time>
      </trkpt>
      <trkpt lat="43.24188" lon="5.66558">
        <ele>417.7</ele>
        <time>2013-11-20T07:40:12Z</time>
      </trkpt>
      <trkpt lat="43.24191" lon="5.66557">
        <ele>417.7</ele>
        <time>2013-11-20T07:40:15Z</time>
      </trkpt>
      <trkpt lat="43.24195" lon="5.66556">
        <ele>417.3</ele>
        <time>2013-11-20T07:40:18Z</time>
      </trkpt>
      <trkpt lat="43.24198" lon="5.66555">
        <ele>418.2</ele>
        <time>2013-11-20T07:40:22Z</time>
      </trkpt>
      <trkpt lat="43.24202" lon="5.66555">
        <ele>418.2</ele>
        <time>2013-11-20T07:40:25Z</time>
      </trkpt>
      <trkpt lat="43.24206" lon="5.66555">
        <ele>419</ele>
        <time>2013-11-20T07:40:29Z</time>
      </trkpt>
      <trkpt lat="43.2421" lon="5.66554">
        <ele>419</ele>
        <time>2013-11-20T07:40:33Z</time>
      </trkpt>
      <trkpt lat="43.24214" lon="5.66554">
        <ele>419</ele>
        <time>2013-11-20T07:40:38Z</time>
      </trkpt>
      <trkpt lat="43.24218" lon="5.66554">
        <ele>419.2</ele>
        <time>2013-11-20T07:40:43Z</time>
      </trkpt>
      <trkpt lat="43.24222" lon="5.66553">
        <ele>419.5</ele>
        <time>2013-11-20T07:40:47Z</time>
      </trkpt>
      <trkpt lat="43.24226" lon="5.66552">
        <ele>419.7</ele>
        <time>2013-11-20T07:40:51Z</time>
      </trkpt>
      <trkpt lat="43.2423" lon="5.66551">
        <ele>420.3</ele>
        <time>2013-11-20T07:40:55Z</time>
      </trkpt>
      <trkpt lat="43.24233" lon="5.66549">
        <ele>420.6</ele>
        <time>2013-11-20T07:40:58Z</time>
      </trkpt>
      <trkpt lat="43.24234" lon="5.66549">
        <ele>420.5</ele>
        <time>2013-11-20T07:40:59Z</time>
      </trkpt>
      <trkpt lat="43.2424" lon="5.66545">
        <ele>421.7</ele>
        <time>2013-11-20T07:41:05Z</time>
      </trkpt>
      <trkpt lat="43.24244" lon="5.66543">
        <ele>421.5</ele>
        <time>2013-11-20T07:41:09Z</time>
      </trkpt>
      <trkpt lat="43.24248" lon="5.66541">
        <ele>420.6</ele>
        <time>2013-11-20T07:41:12Z</time>
      </trkpt>
      <trkpt lat="43.24251" lon="5.66539">
        <ele>420.8</ele>
        <time>2013-11-20T07:41:16Z</time>
      </trkpt>
      <trkpt lat="43.24254" lon="5.66538">
        <ele>420.7</ele>
        <time>2013-11-20T07:41:19Z</time>
      </trkpt>
      <trkpt lat="43.24258" lon="5.66537">
        <ele>421</ele>
        <time>2013-11-20T07:41:23Z</time>
      </trkpt>
      <trkpt lat="43.24262" lon="5.66537">
        <ele>420.8</ele>
        <time>2013-11-20T07:41:26Z</time>
      </trkpt>
      <trkpt lat="43.24266" lon="5.66536">
        <ele>421</ele>
        <time>2013-11-20T07:41:29Z</time>
      </trkpt>
      <trkpt lat="43.24269" lon="5.66534">
        <ele>421.7</ele>
        <time>2013-11-20T07:41:33Z</time>
      </trkpt>
      <trkpt lat="43.24273" lon="5.66532">
        <ele>422.6</ele>
        <time>2013-11-20T07:41:38Z</time>
      </trkpt>
      <trkpt lat="43.24277" lon="5.66531">
        <ele>423</ele>
        <time>2013-11-20T07:41:41Z</time>
      </trkpt>
      <trkpt lat="43.2428" lon="5.6653">
        <ele>423.3</ele>
        <time>2013-11-20T07:41:44Z</time>
      </trkpt>
      <trkpt lat="43.24284" lon="5.6653">
        <ele>422.6</ele>
        <time>2013-11-20T07:41:47Z</time>
      </trkpt>
      <trkpt lat="43.24288" lon="5.6653">
        <ele>421.7</ele>
        <time>2013-11-20T07:41:50Z</time>
      </trkpt>
      <trkpt lat="43.24292" lon="5.66529">
        <ele>420.8</ele>
        <time>2013-11-20T07:41:54Z</time>
      </trkpt>
      <trkpt lat="43.24296" lon="5.66527">
        <ele>421.6</ele>
        <time>2013-11-20T07:41:58Z</time>
      </trkpt>
      <trkpt lat="43.24299" lon="5.66523">
        <ele>422.8</ele>
        <time>2013-11-20T07:42:02Z</time>
      </trkpt>
      <trkpt lat="43.243" lon="5.66522">
        <ele>422.7</ele>
        <time>2013-11-20T07:42:03Z</time>
      </trkpt>
      <trkpt lat="43.24304" lon="5.66517">
        <ele>422.7</ele>
        <time>2013-11-20T07:42:09Z</time>
      </trkpt>
      <trkpt lat="43.24308" lon="5.66514">
        <ele>422.6</ele>
        <time>2013-11-20T07:42:13Z</time>
      </trkpt>
      <trkpt lat="43.24311" lon="5.66512">
        <ele>424.5</ele>
        <time>2013-11-20T07:42:17Z</time>
      </trkpt>
      <trkpt lat="43.24315" lon="5.66508">
        <ele>426.2</ele>
        <time>2013-11-20T07:42:22Z</time>
      </trkpt>
      <trkpt lat="43.24318" lon="5.66506">
        <ele>426.7</ele>
        <time>2013-11-20T07:42:26Z</time>
      </trkpt>
      <trkpt lat="43.24322" lon="5.66503">
        <ele>425.7</ele>
        <time>2013-11-20T07:42:30Z</time>
      </trkpt>
      <trkpt lat="43.24325" lon="5.665">
        <ele>425</ele>
        <time>2013-11-20T07:42:33Z</time>
      </trkpt>
      <trkpt lat="43.24328" lon="5.66497">
        <ele>424.2</ele>
        <time>2013-11-20T07:42:36Z</time>
      </trkpt>
      <trkpt lat="43.24332" lon="5.66494">
        <ele>423.2</ele>
        <time>2013-11-20T07:42:40Z</time>
      </trkpt>
      <trkpt lat="43.24335" lon="5.6649">
        <ele>424.2</ele>
        <time>2013-11-20T07:42:44Z</time>
      </trkpt>
      <trkpt lat="43.24339" lon="5.66489">
        <ele>425.1</ele>
        <time>2013-11-20T07:42:50Z</time>
      </trkpt>
      <trkpt lat="43.24343" lon="5.66487">
        <ele>425.5</ele>
        <time>2013-11-20T07:42:56Z</time>
      </trkpt>
      <trkpt lat="43.24347" lon="5.66485">
        <ele>425.3</ele>
        <time>2013-11-20T07:43:01Z</time>
      </trkpt>
      <trkpt lat="43.24351" lon="5.66486">
        <ele>425.2</ele>
        <time>2013-11-20T07:43:05Z</time>
      </trkpt>
      <trkpt lat="43.24352" lon="5.66486">
        <ele>425.1</ele>
        <time>2013-11-20T07:43:06Z</time>
      </trkpt>
      <trkpt lat="43.24356" lon="5.66493">
        <ele>424.3</ele>
        <time>2013-11-20T07:43:14Z</time>
      </trkpt>
      <trkpt lat="43.24359" lon="5.66497">
        <ele>424.5</ele>
        <time>2013-11-20T07:43:18Z</time>
      </trkpt>
      <trkpt lat="43.24361" lon="5.66502">
        <ele>424.7</ele>
        <time>2013-11-20T07:43:22Z</time>
      </trkpt>
      <trkpt lat="43.24363" lon="5.66506">
        <ele>424.6</ele>
        <time>2013-11-20T07:43:26Z</time>
      </trkpt>
      <trkpt lat="43.24366" lon="5.66509">
        <ele>424.3</ele>
        <time>2013-11-20T07:43:29Z</time>
      </trkpt>
      <trkpt lat="43.24368" lon="5.66514">
        <ele>423.2</ele>
        <time>2013-11-20T07:43:33Z</time>
      </trkpt>
      <trkpt lat="43.24367" lon="5.66518">
        <ele>422.2</ele>
        <time>2013-11-20T07:43:36Z</time>
      </trkpt>
      <trkpt lat="43.24367" lon="5.66524">
        <ele>422.1</ele>
        <time>2013-11-20T07:43:40Z</time>
      </trkpt>
      <trkpt lat="43.24368" lon="5.66518">
        <ele>424.1</ele>
        <time>2013-11-20T07:43:54Z</time>
      </trkpt>
      <trkpt lat="43.24367" lon="5.66513">
        <ele>424.7</ele>
        <time>2013-11-20T07:43:58Z</time>
      </trkpt>
      <trkpt lat="43.24369" lon="5.66508">
        <ele>424.7</ele>
        <time>2013-11-20T07:44:04Z</time>
      </trkpt>
      <trkpt lat="43.24372" lon="5.66506">
        <ele>424.5</ele>
        <time>2013-11-20T07:44:08Z</time>
      </trkpt>
      <trkpt lat="43.24373" lon="5.66506">
        <ele>424.1</ele>
        <time>2013-11-20T07:44:09Z</time>
      </trkpt>
      <trkpt lat="43.2438" lon="5.66502">
        <ele>421.5</ele>
        <time>2013-11-20T07:44:25Z</time>
      </trkpt>
      <trkpt lat="43.2438" lon="5.66496">
        <ele>423.1</ele>
        <time>2013-11-20T07:44:44Z</time>
      </trkpt>
      <trkpt lat="43.24382" lon="5.66491">
        <ele>422.5</ele>
        <time>2013-11-20T07:44:54Z</time>
      </trkpt>
      <trkpt lat="43.24386" lon="5.66491">
        <ele>420</ele>
        <time>2013-11-20T07:45:01Z</time>
      </trkpt>
      <trkpt lat="43.2439" lon="5.66492">
        <ele>418.2</ele>
        <time>2013-11-20T07:45:11Z</time>
      </trkpt>
      <trkpt lat="43.24391" lon="5.66492">
        <ele>418</ele>
        <time>2013-11-20T07:45:12Z</time>
      </trkpt>
      <trkpt lat="43.24399" lon="5.66494">
        <ele>414.8</ele>
        <time>2013-11-20T07:45:22Z</time>
      </trkpt>
      <trkpt lat="43.24402" lon="5.66494">
        <ele>413.6</ele>
        <time>2013-11-20T07:45:27Z</time>
      </trkpt>
      <trkpt lat="43.24406" lon="5.66495">
        <ele>412.7</ele>
        <time>2013-11-20T07:45:31Z</time>
      </trkpt>
      <trkpt lat="43.2441" lon="5.66497">
        <ele>411.1</ele>
        <time>2013-11-20T07:45:36Z</time>
      </trkpt>
      <trkpt lat="43.24414" lon="5.66499">
        <ele>409.6</ele>
        <time>2013-11-20T07:45:41Z</time>
      </trkpt>
      <trkpt lat="43.24418" lon="5.66501">
        <ele>408.6</ele>
        <time>2013-11-20T07:45:45Z</time>
      </trkpt>
      <trkpt lat="43.24421" lon="5.66503">
        <ele>407.5</ele>
        <time>2013-11-20T07:45:50Z</time>
      </trkpt>
      <trkpt lat="43.24425" lon="5.66504">
        <ele>406.7</ele>
        <time>2013-11-20T07:45:54Z</time>
      </trkpt>
      <trkpt lat="43.24429" lon="5.66506">
        <ele>405.7</ele>
        <time>2013-11-20T07:46:01Z</time>
      </trkpt>
      <trkpt lat="43.24432" lon="5.66508">
        <ele>405.1</ele>
        <time>2013-11-20T07:46:05Z</time>
      </trkpt>
      <trkpt lat="43.24436" lon="5.66509">
        <ele>404.3</ele>
        <time>2013-11-20T07:46:08Z</time>
      </trkpt>
      <trkpt lat="43.24439" lon="5.66511">
        <ele>403.8</ele>
        <time>2013-11-20T07:46:11Z</time>
      </trkpt>
      <trkpt lat="43.24443" lon="5.66512">
        <ele>403.3</ele>
        <time>2013-11-20T07:46:15Z</time>
      </trkpt>
      <trkpt lat="43.24444" lon="5.66512">
        <ele>403.2</ele>
        <time>2013-11-20T07:46:16Z</time>
      </trkpt>
      <trkpt lat="43.24451" lon="5.66515">
        <ele>402.2</ele>
        <time>2013-11-20T07:46:23Z</time>
      </trkpt>
      <trkpt lat="43.24455" lon="5.66517">
        <ele>401.7</ele>
        <time>2013-11-20T07:46:27Z</time>
      </trkpt>
      <trkpt lat="43.24458" lon="5.66518">
        <ele>401.2</ele>
        <time>2013-11-20T07:46:30Z</time>
      </trkpt>
      <trkpt lat="43.24462" lon="5.6652">
        <ele>400.1</ele>
        <time>2013-11-20T07:46:34Z</time>
      </trkpt>
      <trkpt lat="43.24466" lon="5.66522">
        <ele>398.7</ele>
        <time>2013-11-20T07:46:39Z</time>
      </trkpt>
      <trkpt lat="43.2447" lon="5.66524">
        <ele>397.6</ele>
        <time>2013-11-20T07:46:43Z</time>
      </trkpt>
      <trkpt lat="43.24474" lon="5.66525">
        <ele>396</ele>
        <time>2013-11-20T07:46:49Z</time>
      </trkpt>
      <trkpt lat="43.24478" lon="5.66527">
        <ele>395.1</ele>
        <time>2013-11-20T07:46:52Z</time>
      </trkpt>
      <trkpt lat="43.24482" lon="5.66528">
        <ele>394.3</ele>
        <time>2013-11-20T07:46:56Z</time>
      </trkpt>
      <trkpt lat="43.24485" lon="5.66529">
        <ele>393.7</ele>
        <time>2013-11-20T07:46:59Z</time>
      </trkpt>
      <trkpt lat="43.24489" lon="5.66531">
        <ele>393.1</ele>
        <time>2013-11-20T07:47:02Z</time>
      </trkpt>
      <trkpt lat="43.24492" lon="5.66532">
        <ele>392.3</ele>
        <time>2013-11-20T07:47:05Z</time>
      </trkpt>
      <trkpt lat="43.24496" lon="5.66534">
        <ele>391.7</ele>
        <time>2013-11-20T07:47:08Z</time>
      </trkpt>
      <trkpt lat="43.245" lon="5.66536">
        <ele>390.7</ele>
        <time>2013-11-20T07:47:12Z</time>
      </trkpt>
      <trkpt lat="43.24503" lon="5.66537">
        <ele>389.8</ele>
        <time>2013-11-20T07:47:17Z</time>
      </trkpt>
      <trkpt lat="43.24504" lon="5.66537">
        <ele>389.7</ele>
        <time>2013-11-20T07:47:18Z</time>
      </trkpt>
      <trkpt lat="43.24511" lon="5.66542">
        <ele>389.6</ele>
        <time>2013-11-20T07:48:02Z</time>
      </trkpt>
      <trkpt lat="43.24514" lon="5.66537">
        <ele>389</ele>
        <time>2013-11-20T07:48:09Z</time>
      </trkpt>
      <trkpt lat="43.24513" lon="5.66532">
        <ele>389.2</ele>
        <time>2013-11-20T07:48:13Z</time>
      </trkpt>
      <trkpt lat="43.24511" lon="5.66526">
        <ele>389.2</ele>
        <time>2013-11-20T07:48:17Z</time>
      </trkpt>
      <trkpt lat="43.2451" lon="5.66521">
        <ele>389.1</ele>
        <time>2013-11-20T07:48:21Z</time>
      </trkpt>
      <trkpt lat="43.24509" lon="5.6652">
        <ele>389.1</ele>
        <time>2013-11-20T07:48:22Z</time>
      </trkpt>
      <trkpt lat="43.24506" lon="5.66511">
        <ele>388.3</ele>
        <time>2013-11-20T07:48:31Z</time>
      </trkpt>
      <trkpt lat="43.24504" lon="5.66506">
        <ele>389.1</ele>
        <time>2013-11-20T07:48:37Z</time>
      </trkpt>
      <trkpt lat="43.24501" lon="5.66501">
        <ele>389.1</ele>
        <time>2013-11-20T07:48:43Z</time>
      </trkpt>
      <trkpt lat="43.24499" lon="5.66496">
        <ele>389</ele>
        <time>2013-11-20T07:48:48Z</time>
      </trkpt>
      <trkpt lat="43.24497" lon="5.66491">
        <ele>388.7</ele>
        <time>2013-11-20T07:48:53Z</time>
      </trkpt>
      <trkpt lat="43.24495" lon="5.66485">
        <ele>387.5</ele>
        <time>2013-11-20T07:48:58Z</time>
      </trkpt>
      <trkpt lat="43.24493" lon="5.66481">
        <ele>387.3</ele>
        <time>2013-11-20T07:49:02Z</time>
      </trkpt>
      <trkpt lat="43.24491" lon="5.66477">
        <ele>387.1</ele>
        <time>2013-11-20T07:49:06Z</time>
      </trkpt>
      <trkpt lat="43.24488" lon="5.66473">
        <ele>387</ele>
        <time>2013-11-20T07:49:10Z</time>
      </trkpt>
      <trkpt lat="43.24485" lon="5.66469">
        <ele>386.6</ele>
        <time>2013-11-20T07:49:14Z</time>
      </trkpt>
      <trkpt lat="43.24482" lon="5.66464">
        <ele>386.3</ele>
        <time>2013-11-20T07:49:18Z</time>
      </trkpt>
      <trkpt lat="43.2448" lon="5.6646">
        <ele>386.2</ele>
        <time>2013-11-20T07:49:22Z</time>
      </trkpt>
      <trkpt lat="43.24479" lon="5.66459">
        <ele>386.3</ele>
        <time>2013-11-20T07:49:23Z</time>
      </trkpt>
      <trkpt lat="43.24473" lon="5.66451">
        <ele>385.7</ele>
        <time>2013-11-20T07:49:31Z</time>
      </trkpt>
      <trkpt lat="43.24471" lon="5.66448">
        <ele>385.6</ele>
        <time>2013-11-20T07:49:34Z</time>
      </trkpt>
      <trkpt lat="43.24469" lon="5.66444">
        <ele>385.8</ele>
        <time>2013-11-20T07:49:37Z</time>
      </trkpt>
      <trkpt lat="43.24466" lon="5.6644">
        <ele>386.2</ele>
        <time>2013-11-20T07:49:41Z</time>
      </trkpt>
      <trkpt lat="43.24463" lon="5.66436">
        <ele>386.3</ele>
        <time>2013-11-20T07:49:44Z</time>
      </trkpt>
      <trkpt lat="43.2446" lon="5.66433">
        <ele>386.7</ele>
        <time>2013-11-20T07:49:47Z</time>
      </trkpt>
      <trkpt lat="43.24458" lon="5.6643">
        <ele>387.1</ele>
        <time>2013-11-20T07:49:50Z</time>
      </trkpt>
      <trkpt lat="43.24454" lon="5.66425">
        <ele>387.5</ele>
        <time>2013-11-20T07:49:54Z</time>
      </trkpt>
      <trkpt lat="43.24451" lon="5.66422">
        <ele>387.7</ele>
        <time>2013-11-20T07:49:59Z</time>
      </trkpt>
      <trkpt lat="43.2445" lon="5.66417">
        <ele>388.5</ele>
        <time>2013-11-20T07:50:20Z</time>
      </trkpt>
      <trkpt lat="43.24447" lon="5.66413">
        <ele>388.7</ele>
        <time>2013-11-20T07:50:23Z</time>
      </trkpt>
      <trkpt lat="43.24446" lon="5.66412">
        <ele>388.6</ele>
        <time>2013-11-20T07:50:24Z</time>
      </trkpt>
      <trkpt lat="43.24441" lon="5.66404">
        <ele>388.2</ele>
        <time>2013-11-20T07:50:30Z</time>
      </trkpt>
      <trkpt lat="43.24438" lon="5.66401">
        <ele>389.2</ele>
        <time>2013-11-20T07:50:41Z</time>
      </trkpt>
      <trkpt lat="43.24435" lon="5.66396">
        <ele>389.3</ele>
        <time>2013-11-20T07:50:47Z</time>
      </trkpt>
      <trkpt lat="43.24433" lon="5.66392">
        <ele>389.1</ele>
        <time>2013-11-20T07:50:51Z</time>
      </trkpt>
      <trkpt lat="43.2443" lon="5.66387">
        <ele>388.7</ele>
        <time>2013-11-20T07:50:55Z</time>
      </trkpt>
      <trkpt lat="43.24428" lon="5.66383">
        <ele>388.7</ele>
        <time>2013-11-20T07:50:59Z</time>
      </trkpt>
      <trkpt lat="43.24425" lon="5.66378">
        <ele>388.7</ele>
        <time>2013-11-20T07:51:03Z</time>
      </trkpt>
      <trkpt lat="43.24423" lon="5.66373">
        <ele>388.5</ele>
        <time>2013-11-20T07:51:07Z</time>
      </trkpt>
      <trkpt lat="43.2442" lon="5.66368">
        <ele>388.2</ele>
        <time>2013-11-20T07:51:11Z</time>
      </trkpt>
      <trkpt lat="43.24418" lon="5.66363">
        <ele>388.3</ele>
        <time>2013-11-20T07:51:15Z</time>
      </trkpt>
      <trkpt lat="43.24416" lon="5.66359">
        <ele>387.8</ele>
        <time>2013-11-20T07:51:19Z</time>
      </trkpt>
      <trkpt lat="43.24415" lon="5.66354">
        <ele>386.5</ele>
        <time>2013-11-20T07:51:25Z</time>
      </trkpt>
      <trkpt lat="43.24414" lon="5.66353">
        <ele>386.2</ele>
        <time>2013-11-20T07:51:26Z</time>
      </trkpt>
      <trkpt lat="43.24411" lon="5.66344">
        <ele>384.7</ele>
        <time>2013-11-20T07:51:33Z</time>
      </trkpt>
      <trkpt lat="43.24408" lon="5.66339">
        <ele>383.2</ele>
        <time>2013-11-20T07:51:38Z</time>
      </trkpt>
      <trkpt lat="43.24406" lon="5.66334">
        <ele>381.5</ele>
        <time>2013-11-20T07:51:43Z</time>
      </trkpt>
      <trkpt lat="43.24405" lon="5.66329">
        <ele>381.3</ele>
        <time>2013-11-20T07:51:47Z</time>
      </trkpt>
      <trkpt lat="43.24402" lon="5.66324">
        <ele>381</ele>
        <time>2013-11-20T07:51:51Z</time>
      </trkpt>
      <trkpt lat="43.244" lon="5.6632">
        <ele>381.1</ele>
        <time>2013-11-20T07:51:54Z</time>
      </trkpt>
      <trkpt lat="43.24398" lon="5.66316">
        <ele>381.3</ele>
        <time>2013-11-20T07:51:57Z</time>
      </trkpt>
      <trkpt lat="43.24396" lon="5.66312">
        <ele>381.5</ele>
        <time>2013-11-20T07:52:00Z</time>
      </trkpt>
      <trkpt lat="43.24393" lon="5.66307">
        <ele>380.8</ele>
        <time>2013-11-20T07:52:04Z</time>
      </trkpt>
      <trkpt lat="43.24391" lon="5.66303">
        <ele>381.2</ele>
        <time>2013-11-20T07:52:07Z</time>
      </trkpt>
      <trkpt lat="43.24388" lon="5.663">
        <ele>381.7</ele>
        <time>2013-11-20T07:52:10Z</time>
      </trkpt>
      <trkpt lat="43.24385" lon="5.66296">
        <ele>382</ele>
        <time>2013-11-20T07:52:14Z</time>
      </trkpt>
      <trkpt lat="43.24382" lon="5.66292">
        <ele>381.8</ele>
        <time>2013-11-20T07:52:18Z</time>
      </trkpt>
      <trkpt lat="43.2438" lon="5.66289">
        <ele>381.7</ele>
        <time>2013-11-20T07:52:22Z</time>
      </trkpt>
      <trkpt lat="43.24377" lon="5.66286">
        <ele>381.3</ele>
        <time>2013-11-20T07:52:26Z</time>
      </trkpt>
      <trkpt lat="43.24376" lon="5.66285">
        <ele>381.2</ele>
        <time>2013-11-20T07:52:27Z</time>
      </trkpt>
      <trkpt lat="43.2437" lon="5.66279">
        <ele>380.2</ele>
        <time>2013-11-20T07:52:35Z</time>
      </trkpt>
      <trkpt lat="43.24368" lon="5.66275">
        <ele>379.2</ele>
        <time>2013-11-20T07:52:40Z</time>
      </trkpt>
      <trkpt lat="43.24365" lon="5.66272">
        <ele>378.7</ele>
        <time>2013-11-20T07:52:45Z</time>
      </trkpt>
      <trkpt lat="43.24361" lon="5.6627">
        <ele>378.2</ele>
        <time>2013-11-20T07:52:50Z</time>
      </trkpt>
      <trkpt lat="43.24357" lon="5.66267">
        <ele>377.7</ele>
        <time>2013-11-20T07:52:55Z</time>
      </trkpt>
      <trkpt lat="43.24354" lon="5.66263">
        <ele>376.7</ele>
        <time>2013-11-20T07:53:00Z</time>
      </trkpt>
      <trkpt lat="43.24351" lon="5.6626">
        <ele>376</ele>
        <time>2013-11-20T07:53:04Z</time>
      </trkpt>
      <trkpt lat="43.24347" lon="5.66257">
        <ele>375.5</ele>
        <time>2013-11-20T07:53:09Z</time>
      </trkpt>
      <trkpt lat="43.24343" lon="5.66255">
        <ele>374.7</ele>
        <time>2013-11-20T07:53:14Z</time>
      </trkpt>
      <trkpt lat="43.2434" lon="5.66251">
        <ele>374</ele>
        <time>2013-11-20T07:53:19Z</time>
      </trkpt>
      <trkpt lat="43.24336" lon="5.66248">
        <ele>373.2</ele>
        <time>2013-11-20T07:53:26Z</time>
      </trkpt>
      <trkpt lat="43.24334" lon="5.66244">
        <ele>373.2</ele>
        <time>2013-11-20T07:53:30Z</time>
      </trkpt>
      <trkpt lat="43.24333" lon="5.66243">
        <ele>372.7</ele>
        <time>2013-11-20T07:53:31Z</time>
      </trkpt>
      <trkpt lat="43.24328" lon="5.66236">
        <ele>372.1</ele>
        <time>2013-11-20T07:53:40Z</time>
      </trkpt>
      <trkpt lat="43.24324" lon="5.66233">
        <ele>371.2</ele>
        <time>2013-11-20T07:53:46Z</time>
      </trkpt>
      <trkpt lat="43.24321" lon="5.66229">
        <ele>371</ele>
        <time>2013-11-20T07:53:50Z</time>
      </trkpt>
      <trkpt lat="43.24318" lon="5.66226">
        <ele>370.2</ele>
        <time>2013-11-20T07:53:54Z</time>
      </trkpt>
      <trkpt lat="43.24316" lon="5.66222">
        <ele>368.6</ele>
        <time>2013-11-20T07:53:59Z</time>
      </trkpt>
      <trkpt lat="43.24313" lon="5.66217">
        <ele>366.3</ele>
        <time>2013-11-20T07:54:05Z</time>
      </trkpt>
      <trkpt lat="43.2431" lon="5.66213">
        <ele>367.5</ele>
        <time>2013-11-20T07:54:08Z</time>
      </trkpt>
      <trkpt lat="43.24308" lon="5.66209">
        <ele>366.7</ele>
        <time>2013-11-20T07:54:12Z</time>
      </trkpt>
      <trkpt lat="43.24305" lon="5.66206">
        <ele>367.7</ele>
        <time>2013-11-20T07:54:15Z</time>
      </trkpt>
      <trkpt lat="43.24303" lon="5.66202">
        <ele>368</ele>
        <time>2013-11-20T07:54:19Z</time>
      </trkpt>
      <trkpt lat="43.24301" lon="5.66197">
        <ele>366.7</ele>
        <time>2013-11-20T07:54:25Z</time>
      </trkpt>
      <trkpt lat="43.24298" lon="5.66194">
        <ele>366.1</ele>
        <time>2013-11-20T07:54:29Z</time>
      </trkpt>
      <trkpt lat="43.24295" lon="5.6619">
        <ele>367</ele>
        <time>2013-11-20T07:54:32Z</time>
      </trkpt>
      <trkpt lat="43.24295" lon="5.66189">
        <ele>367.2</ele>
        <time>2013-11-20T07:54:33Z</time>
      </trkpt>
      <trkpt lat="43.24292" lon="5.6618">
        <ele>367.3</ele>
        <time>2013-11-20T07:54:40Z</time>
      </trkpt>
      <trkpt lat="43.2429" lon="5.66175">
        <ele>368</ele>
        <time>2013-11-20T07:54:44Z</time>
      </trkpt>
      <trkpt lat="43.24287" lon="5.6617">
        <ele>366.5</ele>
        <time>2013-11-20T07:54:50Z</time>
      </trkpt>
      <trkpt lat="43.24285" lon="5.66166">
        <ele>363.7</ele>
        <time>2013-11-20T07:54:59Z</time>
      </trkpt>
      <trkpt lat="43.24283" lon="5.66162">
        <ele>363</ele>
        <time>2013-11-20T07:55:03Z</time>
      </trkpt>
      <trkpt lat="43.2428" lon="5.66157">
        <ele>362.2</ele>
        <time>2013-11-20T07:55:07Z</time>
      </trkpt>
      <trkpt lat="43.24279" lon="5.66152">
        <ele>360.3</ele>
        <time>2013-11-20T07:55:15Z</time>
      </trkpt>
      <trkpt lat="43.24277" lon="5.66147">
        <ele>359.8</ele>
        <time>2013-11-20T07:55:19Z</time>
      </trkpt>
      <trkpt lat="43.24275" lon="5.66142">
        <ele>360.2</ele>
        <time>2013-11-20T07:55:23Z</time>
      </trkpt>
      <trkpt lat="43.24272" lon="5.66138">
        <ele>360.5</ele>
        <time>2013-11-20T07:55:28Z</time>
      </trkpt>
      <trkpt lat="43.24271" lon="5.66133">
        <ele>361.8</ele>
        <time>2013-11-20T07:55:32Z</time>
      </trkpt>
      <trkpt lat="43.24269" lon="5.66128">
        <ele>360.5</ele>
        <time>2013-11-20T07:55:38Z</time>
      </trkpt>
      <trkpt lat="43.24269" lon="5.66128">
        <ele>360.3</ele>
        <time>2013-11-20T07:55:39Z</time>
      </trkpt>
      <trkpt lat="43.24276" lon="5.66129">
        <ele>357.7</ele>
        <time>2013-11-20T07:56:02Z</time>
      </trkpt>
      <trkpt lat="43.24279" lon="5.66133">
        <ele>356.3</ele>
        <time>2013-11-20T07:56:14Z</time>
      </trkpt>
      <trkpt lat="43.24282" lon="5.66136">
        <ele>354.1</ele>
        <time>2013-11-20T07:56:20Z</time>
      </trkpt>
      <trkpt lat="43.24285" lon="5.66139">
        <ele>365.2</ele>
        <time>2013-11-20T07:56:39Z</time>
      </trkpt>
      <trkpt lat="43.24286" lon="5.6614">
        <ele>364.7</ele>
        <time>2013-11-20T07:56:40Z</time>
      </trkpt>
      <trkpt lat="43.24291" lon="5.66145">
        <ele>361.2</ele>
        <time>2013-11-20T07:56:43Z</time>
      </trkpt>
      <trkpt lat="43.24293" lon="5.66148">
        <ele>360.6</ele>
        <time>2013-11-20T07:56:46Z</time>
      </trkpt>
      <trkpt lat="43.24295" lon="5.66152">
        <ele>362.7</ele>
        <time>2013-11-20T07:56:51Z</time>
      </trkpt>
      <trkpt lat="43.24296" lon="5.66153">
        <ele>364.7</ele>
        <time>2013-11-20T07:56:53Z</time>
      </trkpt>
      <trkpt lat="43.24301" lon="5.66157">
        <ele>360</ele>
        <time>2013-11-20T07:56:54Z</time>
      </trkpt>
      <trkpt lat="43.24304" lon="5.6616">
        <ele>356.3</ele>
        <time>2013-11-20T07:56:55Z</time>
      </trkpt>
      <trkpt lat="43.24307" lon="5.66162">
        <ele>354.7</ele>
        <time>2013-11-20T07:56:57Z</time>
      </trkpt>
      <trkpt lat="43.24311" lon="5.66165">
        <ele>353.5</ele>
        <time>2013-11-20T07:57:00Z</time>
      </trkpt>
      <trkpt lat="43.24315" lon="5.66168">
        <ele>349.6</ele>
        <time>2013-11-20T07:57:01Z</time>
      </trkpt>
      <trkpt lat="43.24318" lon="5.66171">
        <ele>347.6</ele>
        <time>2013-11-20T07:57:03Z</time>
      </trkpt>
      <trkpt lat="43.24321" lon="5.66173">
        <ele>345.5</ele>
        <time>2013-11-20T07:57:05Z</time>
      </trkpt>
      <trkpt lat="43.24324" lon="5.66175">
        <ele>344.5</ele>
        <time>2013-11-20T07:57:07Z</time>
      </trkpt>
      <trkpt lat="43.24328" lon="5.66177">
        <ele>347.2</ele>
        <time>2013-11-20T07:57:12Z</time>
      </trkpt>
      <trkpt lat="43.24331" lon="5.66179">
        <ele>346.2</ele>
        <time>2013-11-20T07:57:15Z</time>
      </trkpt>
      <trkpt lat="43.24335" lon="5.6618">
        <ele>346.8</ele>
        <time>2013-11-20T07:57:18Z</time>
      </trkpt>
      <trkpt lat="43.24339" lon="5.66181">
        <ele>345.2</ele>
        <time>2013-11-20T07:57:21Z</time>
      </trkpt>
      <trkpt lat="43.24342" lon="5.66182">
        <ele>344.6</ele>
        <time>2013-11-20T07:57:24Z</time>
      </trkpt>
      <trkpt lat="43.24345" lon="5.66184">
        <ele>343.7</ele>
        <time>2013-11-20T07:57:26Z</time>
      </trkpt>
      <trkpt lat="43.24349" lon="5.66184">
        <ele>344.6</ele>
        <time>2013-11-20T07:57:31Z</time>
      </trkpt>
      <trkpt lat="43.24352" lon="5.66184">
        <ele>344.7</ele>
        <time>2013-11-20T07:57:34Z</time>
      </trkpt>
      <trkpt lat="43.24356" lon="5.66185">
        <ele>343.3</ele>
        <time>2013-11-20T07:57:37Z</time>
      </trkpt>
      <trkpt lat="43.2436" lon="5.66185">
        <ele>344.8</ele>
        <time>2013-11-20T07:57:44Z</time>
      </trkpt>
      <trkpt lat="43.24361" lon="5.66184">
        <ele>345.3</ele>
        <time>2013-11-20T07:57:45Z</time>
      </trkpt>
      <trkpt lat="43.24369" lon="5.66184">
        <ele>346.5</ele>
        <time>2013-11-20T07:57:57Z</time>
      </trkpt>
      <trkpt lat="43.24373" lon="5.66183">
        <ele>346.3</ele>
        <time>2013-11-20T07:58:03Z</time>
      </trkpt>
      <trkpt lat="43.24376" lon="5.66179">
        <ele>351</ele>
        <time>2013-11-20T07:58:13Z</time>
      </trkpt>
      <trkpt lat="43.2438" lon="5.66178">
        <ele>349</ele>
        <time>2013-11-20T07:58:20Z</time>
      </trkpt>
      <trkpt lat="43.24384" lon="5.66175">
        <ele>349.3</ele>
        <time>2013-11-20T07:58:28Z</time>
      </trkpt>
      <trkpt lat="43.24386" lon="5.66169">
        <ele>353.1</ele>
        <time>2013-11-20T07:58:36Z</time>
      </trkpt>
      <trkpt lat="43.24389" lon="5.66166">
        <ele>356.1</ele>
        <time>2013-11-20T07:58:43Z</time>
      </trkpt>
      <trkpt lat="43.24393" lon="5.66163">
        <ele>358</ele>
        <time>2013-11-20T07:58:49Z</time>
      </trkpt>
      <trkpt lat="43.24394" lon="5.66163">
        <ele>357.3</ele>
        <time>2013-11-20T07:58:50Z</time>
      </trkpt>
      <trkpt lat="43.244" lon="5.66161">
        <ele>357.3</ele>
        <time>2013-11-20T07:58:59Z</time>
      </trkpt>
      <trkpt lat="43.24404" lon="5.6616">
        <ele>355.8</ele>
        <time>2013-11-20T07:59:02Z</time>
      </trkpt>
      <trkpt lat="43.24408" lon="5.6616">
        <ele>355.7</ele>
        <time>2013-11-20T07:59:06Z</time>
      </trkpt>
      <trkpt lat="43.24411" lon="5.6616">
        <ele>354.2</ele>
        <time>2013-11-20T07:59:08Z</time>
      </trkpt>
      <trkpt lat="43.24416" lon="5.6616">
        <ele>352.7</ele>
        <time>2013-11-20T07:59:11Z</time>
      </trkpt>
      <trkpt lat="43.24419" lon="5.6616">
        <ele>350.8</ele>
        <time>2013-11-20T07:59:14Z</time>
      </trkpt>
      <trkpt lat="43.24424" lon="5.6616">
        <ele>348.7</ele>
        <time>2013-11-20T07:59:18Z</time>
      </trkpt>
      <trkpt lat="43.24427" lon="5.6616">
        <ele>346.7</ele>
        <time>2013-11-20T07:59:23Z</time>
      </trkpt>
      <trkpt lat="43.24431" lon="5.66161">
        <ele>345.1</ele>
        <time>2013-11-20T07:59:28Z</time>
      </trkpt>
      <trkpt lat="43.24436" lon="5.6616">
        <ele>344.1</ele>
        <time>2013-11-20T07:59:34Z</time>
      </trkpt>
      <trkpt lat="43.24438" lon="5.66156">
        <ele>343</ele>
        <time>2013-11-20T07:59:40Z</time>
      </trkpt>
      <trkpt lat="43.24439" lon="5.6615">
        <ele>342.5</ele>
        <time>2013-11-20T07:59:48Z</time>
      </trkpt>
      <trkpt lat="43.24439" lon="5.66144">
        <ele>343.8</ele>
        <time>2013-11-20T07:59:54Z</time>
      </trkpt>
      <trkpt lat="43.2444" lon="5.66143">
        <ele>343.5</ele>
        <time>2013-11-20T07:59:55Z</time>
      </trkpt>
      <trkpt lat="43.24444" lon="5.66135">
        <ele>341</ele>
        <time>2013-11-20T08:00:07Z</time>
      </trkpt>
      <trkpt lat="43.24442" lon="5.66132">
        <ele>337.8</ele>
        <time>2013-11-20T08:00:17Z</time>
      </trkpt>
      <trkpt lat="43.2444" lon="5.66128">
        <ele>337.2</ele>
        <time>2013-11-20T08:00:18Z</time>
      </trkpt>
      <trkpt lat="43.2444" lon="5.66122">
        <ele>337.6</ele>
        <time>2013-11-20T08:00:20Z</time>
      </trkpt>
      <trkpt lat="43.24444" lon="5.66122">
        <ele>336.8</ele>
        <time>2013-11-20T08:00:21Z</time>
      </trkpt>
      <trkpt lat="43.24447" lon="5.66118">
        <ele>336.7</ele>
        <time>2013-11-20T08:00:23Z</time>
      </trkpt>
      <trkpt lat="43.24448" lon="5.66115">
        <ele>334.2</ele>
        <time>2013-11-20T08:00:26Z</time>
      </trkpt>
      <trkpt lat="43.2445" lon="5.6611">
        <ele>332.5</ele>
        <time>2013-11-20T08:00:29Z</time>
      </trkpt>
      <trkpt lat="43.24453" lon="5.66107">
        <ele>332.3</ele>
        <time>2013-11-20T08:00:33Z</time>
      </trkpt>
      <trkpt lat="43.24454" lon="5.66102">
        <ele>336.7</ele>
        <time>2013-11-20T08:00:44Z</time>
      </trkpt>
      <trkpt lat="43.24458" lon="5.66103">
        <ele>337.5</ele>
        <time>2013-11-20T08:00:50Z</time>
      </trkpt>
      <trkpt lat="43.24462" lon="5.66102">
        <ele>339.7</ele>
        <time>2013-11-20T08:00:57Z</time>
      </trkpt>
      <trkpt lat="43.24462" lon="5.661">
        <ele>339.8</ele>
        <time>2013-11-20T08:00:58Z</time>
      </trkpt>
      <trkpt lat="43.24465" lon="5.66091">
        <ele>341.7</ele>
        <time>2013-11-20T08:01:12Z</time>
      </trkpt>
      <trkpt lat="43.24464" lon="5.66085">
        <ele>342.1</ele>
        <time>2013-11-20T08:01:25Z</time>
      </trkpt>
      <trkpt lat="43.24467" lon="5.66081">
        <ele>344.8</ele>
        <time>2013-11-20T08:01:42Z</time>
      </trkpt>
      <trkpt lat="43.24471" lon="5.66084">
        <ele>346.7</ele>
        <time>2013-11-20T08:03:31Z</time>
      </trkpt>
      <trkpt lat="43.24471" lon="5.66084">
        <ele>346.6</ele>
        <time>2013-11-20T08:03:32Z</time>
      </trkpt>
      <trkpt lat="43.24471" lon="5.66086">
        <ele>349.2</ele>
        <time>2013-11-20T08:04:07Z</time>
      </trkpt>
      <trkpt lat="43.24474" lon="5.66082">
        <ele>346</ele>
        <time>2013-11-20T08:06:14Z</time>
      </trkpt>
      <trkpt lat="43.24474" lon="5.66082">
        <ele>345.8</ele>
        <time>2013-11-20T08:06:15Z</time>
      </trkpt>
      <trkpt lat="43.24478" lon="5.66072">
        <ele>345.7</ele>
        <time>2013-11-20T08:06:30Z</time>
      </trkpt>
      <trkpt lat="43.2448" lon="5.66067">
        <ele>345.7</ele>
        <time>2013-11-20T08:06:36Z</time>
      </trkpt>
      <trkpt lat="43.24482" lon="5.66062">
        <ele>346.1</ele>
        <time>2013-11-20T08:06:42Z</time>
      </trkpt>
      <trkpt lat="43.24483" lon="5.66056">
        <ele>346.3</ele>
        <time>2013-11-20T08:06:49Z</time>
      </trkpt>
      <trkpt lat="43.24484" lon="5.66051">
        <ele>347.8</ele>
        <time>2013-11-20T08:06:54Z</time>
      </trkpt>
      <trkpt lat="43.24485" lon="5.66046">
        <ele>349.1</ele>
        <time>2013-11-20T08:06:59Z</time>
      </trkpt>
      <trkpt lat="43.24487" lon="5.66041">
        <ele>350.6</ele>
        <time>2013-11-20T08:07:06Z</time>
      </trkpt>
      <trkpt lat="43.24491" lon="5.66039">
        <ele>351</ele>
        <time>2013-11-20T08:07:11Z</time>
      </trkpt>
      <trkpt lat="43.24494" lon="5.66037">
        <ele>352</ele>
        <time>2013-11-20T08:07:16Z</time>
      </trkpt>
      <trkpt lat="43.24495" lon="5.66036">
        <ele>352.2</ele>
        <time>2013-11-20T08:07:17Z</time>
      </trkpt>
      <trkpt lat="43.24499" lon="5.6603">
        <ele>352.6</ele>
        <time>2013-11-20T08:07:24Z</time>
      </trkpt>
      <trkpt lat="43.24502" lon="5.66027">
        <ele>352.3</ele>
        <time>2013-11-20T08:07:29Z</time>
      </trkpt>
      <trkpt lat="43.24506" lon="5.66027">
        <ele>352.1</ele>
        <time>2013-11-20T08:07:32Z</time>
      </trkpt>
      <trkpt lat="43.24509" lon="5.66026">
        <ele>351.5</ele>
        <time>2013-11-20T08:07:35Z</time>
      </trkpt>
      <trkpt lat="43.24514" lon="5.66024">
        <ele>352.2</ele>
        <time>2013-11-20T08:07:41Z</time>
      </trkpt>
      <trkpt lat="43.24517" lon="5.66021">
        <ele>352.2</ele>
        <time>2013-11-20T08:07:46Z</time>
      </trkpt>
      <trkpt lat="43.2452" lon="5.66018">
        <ele>352.2</ele>
        <time>2013-11-20T08:07:50Z</time>
      </trkpt>
      <trkpt lat="43.24523" lon="5.66015">
        <ele>353</ele>
        <time>2013-11-20T08:07:54Z</time>
      </trkpt>
      <trkpt lat="43.24526" lon="5.66011">
        <ele>354.2</ele>
        <time>2013-11-20T08:07:59Z</time>
      </trkpt>
      <trkpt lat="43.2453" lon="5.66008">
        <ele>355.1</ele>
        <time>2013-11-20T08:08:06Z</time>
      </trkpt>
      <trkpt lat="43.24532" lon="5.66004">
        <ele>357.1</ele>
        <time>2013-11-20T08:08:13Z</time>
      </trkpt>
      <trkpt lat="43.24535" lon="5.66">
        <ele>356.3</ele>
        <time>2013-11-20T08:08:18Z</time>
      </trkpt>
      <trkpt lat="43.24535" lon="5.65999">
        <ele>356.8</ele>
        <time>2013-11-20T08:08:19Z</time>
      </trkpt>
      <trkpt lat="43.24541" lon="5.65994">
        <ele>358.6</ele>
        <time>2013-11-20T08:08:27Z</time>
      </trkpt>
      <trkpt lat="43.24545" lon="5.65994">
        <ele>359.2</ele>
        <time>2013-11-20T08:08:31Z</time>
      </trkpt>
      <trkpt lat="43.2455" lon="5.65991">
        <ele>360.2</ele>
        <time>2013-11-20T08:08:36Z</time>
      </trkpt>
      <trkpt lat="43.24554" lon="5.65991">
        <ele>361.1</ele>
        <time>2013-11-20T08:08:41Z</time>
      </trkpt>
      <trkpt lat="43.24558" lon="5.65991">
        <ele>362.7</ele>
        <time>2013-11-20T08:08:47Z</time>
      </trkpt>
      <trkpt lat="43.24561" lon="5.65992">
        <ele>363.5</ele>
        <time>2013-11-20T08:08:52Z</time>
      </trkpt>
      <trkpt lat="43.24565" lon="5.65991">
        <ele>363.7</ele>
        <time>2013-11-20T08:08:55Z</time>
      </trkpt>
      <trkpt lat="43.24568" lon="5.6599">
        <ele>364.1</ele>
        <time>2013-11-20T08:09:00Z</time>
      </trkpt>
      <trkpt lat="43.24573" lon="5.6599">
        <ele>366.5</ele>
        <time>2013-11-20T08:09:11Z</time>
      </trkpt>
      <trkpt lat="43.24576" lon="5.65987">
        <ele>367.2</ele>
        <time>2013-11-20T08:09:20Z</time>
      </trkpt>
      <trkpt lat="43.24577" lon="5.65987">
        <ele>367.3</ele>
        <time>2013-11-20T08:09:21Z</time>
      </trkpt>
      <trkpt lat="43.24583" lon="5.65982">
        <ele>368.1</ele>
        <time>2013-11-20T08:09:32Z</time>
      </trkpt>
      <trkpt lat="43.24587" lon="5.65981">
        <ele>368</ele>
        <time>2013-11-20T08:09:35Z</time>
      </trkpt>
      <trkpt lat="43.24591" lon="5.65979">
        <ele>366.2</ele>
        <time>2013-11-20T08:09:39Z</time>
      </trkpt>
      <trkpt lat="43.24594" lon="5.65976">
        <ele>366.1</ele>
        <time>2013-11-20T08:09:44Z</time>
      </trkpt>
      <trkpt lat="43.24598" lon="5.65974">
        <ele>366.1</ele>
        <time>2013-11-20T08:09:48Z</time>
      </trkpt>
      <trkpt lat="43.24602" lon="5.65972">
        <ele>367.7</ele>
        <time>2013-11-20T08:09:52Z</time>
      </trkpt>
      <trkpt lat="43.24605" lon="5.65969">
        <ele>368.5</ele>
        <time>2013-11-20T08:09:56Z</time>
      </trkpt>
      <trkpt lat="43.24609" lon="5.65969">
        <ele>367.1</ele>
        <time>2013-11-20T08:09:58Z</time>
      </trkpt>
      <trkpt lat="43.24613" lon="5.6597">
        <ele>366.2</ele>
        <time>2013-11-20T08:10:00Z</time>
      </trkpt>
      <trkpt lat="43.24616" lon="5.6597">
        <ele>366.7</ele>
        <time>2013-11-20T08:10:04Z</time>
      </trkpt>
      <trkpt lat="43.2462" lon="5.65967">
        <ele>370.7</ele>
        <time>2013-11-20T08:10:10Z</time>
      </trkpt>
      <trkpt lat="43.24624" lon="5.65965">
        <ele>371.7</ele>
        <time>2013-11-20T08:10:15Z</time>
      </trkpt>
      <trkpt lat="43.24628" lon="5.65963">
        <ele>373.7</ele>
        <time>2013-11-20T08:10:20Z</time>
      </trkpt>
      <trkpt lat="43.24631" lon="5.65962">
        <ele>376.7</ele>
        <time>2013-11-20T08:10:24Z</time>
      </trkpt>
      <trkpt lat="43.24632" lon="5.65962">
        <ele>376.7</ele>
        <time>2013-11-20T08:10:25Z</time>
      </trkpt>
      <trkpt lat="43.24638" lon="5.65961">
        <ele>376.2</ele>
        <time>2013-11-20T08:10:28Z</time>
      </trkpt>
      <trkpt lat="43.24642" lon="5.65959">
        <ele>376.7</ele>
        <time>2013-11-20T08:10:31Z</time>
      </trkpt>
      <trkpt lat="43.24644" lon="5.65955">
        <ele>377.2</ele>
        <time>2013-11-20T08:10:36Z</time>
      </trkpt>
      <trkpt lat="43.24647" lon="5.65953">
        <ele>381.7</ele>
        <time>2013-11-20T08:10:42Z</time>
      </trkpt>
      <trkpt lat="43.24651" lon="5.6595">
        <ele>383.5</ele>
        <time>2013-11-20T08:10:47Z</time>
      </trkpt>
      <trkpt lat="43.24654" lon="5.65949">
        <ele>382.7</ele>
        <time>2013-11-20T08:10:49Z</time>
      </trkpt>
      <trkpt lat="43.24658" lon="5.65948">
        <ele>385.7</ele>
        <time>2013-11-20T08:10:52Z</time>
      </trkpt>
      <trkpt lat="43.24661" lon="5.65945">
        <ele>387.8</ele>
        <time>2013-11-20T08:10:56Z</time>
      </trkpt>
      <trkpt lat="43.24665" lon="5.65943">
        <ele>388.7</ele>
        <time>2013-11-20T08:11:02Z</time>
      </trkpt>
      <trkpt lat="43.24668" lon="5.65943">
        <ele>387.2</ele>
        <time>2013-11-20T08:11:05Z</time>
      </trkpt>
      <trkpt lat="43.24672" lon="5.65939">
        <ele>385.6</ele>
        <time>2013-11-20T08:11:09Z</time>
      </trkpt>
      <trkpt lat="43.24676" lon="5.65937">
        <ele>384</ele>
        <time>2013-11-20T08:11:13Z</time>
      </trkpt>
      <trkpt lat="43.24678" lon="5.65934">
        <ele>384.2</ele>
        <time>2013-11-20T08:11:16Z</time>
      </trkpt>
      <trkpt lat="43.24681" lon="5.65931">
        <ele>383.3</ele>
        <time>2013-11-20T08:11:19Z</time>
      </trkpt>
      <trkpt lat="43.24684" lon="5.65927">
        <ele>382.5</ele>
        <time>2013-11-20T08:11:24Z</time>
      </trkpt>
      <trkpt lat="43.24685" lon="5.65922">
        <ele>382.8</ele>
        <time>2013-11-20T08:11:29Z</time>
      </trkpt>
      <trkpt lat="43.24685" lon="5.6592">
        <ele>382.6</ele>
        <time>2013-11-20T08:11:30Z</time>
      </trkpt>
      <trkpt lat="43.24689" lon="5.65912">
        <ele>376.7</ele>
        <time>2013-11-20T08:11:39Z</time>
      </trkpt>
      <trkpt lat="43.24692" lon="5.65907">
        <ele>377.5</ele>
        <time>2013-11-20T08:11:44Z</time>
      </trkpt>
      <trkpt lat="43.24694" lon="5.65906">
        <ele>377.7</ele>
        <time>2013-11-20T08:11:46Z</time>
      </trkpt>
      <trkpt lat="43.24698" lon="5.65906">
        <ele>376.2</ele>
        <time>2013-11-20T08:11:49Z</time>
      </trkpt>
      <trkpt lat="43.24703" lon="5.65904">
        <ele>377.2</ele>
        <time>2013-11-20T08:11:55Z</time>
      </trkpt>
      <trkpt lat="43.24706" lon="5.65902">
        <ele>377.6</ele>
        <time>2013-11-20T08:11:59Z</time>
      </trkpt>
      <trkpt lat="43.24709" lon="5.65898">
        <ele>379</ele>
        <time>2013-11-20T08:12:05Z</time>
      </trkpt>
      <trkpt lat="43.24708" lon="5.65892">
        <ele>382.2</ele>
        <time>2013-11-20T08:12:09Z</time>
      </trkpt>
      <trkpt lat="43.24711" lon="5.65889">
        <ele>382.7</ele>
        <time>2013-11-20T08:12:12Z</time>
      </trkpt>
      <trkpt lat="43.24714" lon="5.65885">
        <ele>384.1</ele>
        <time>2013-11-20T08:12:17Z</time>
      </trkpt>
      <trkpt lat="43.24713" lon="5.6588">
        <ele>385.7</ele>
        <time>2013-11-20T08:12:22Z</time>
      </trkpt>
      <trkpt lat="43.24715" lon="5.65875">
        <ele>386.8</ele>
        <time>2013-11-20T08:12:27Z</time>
      </trkpt>
      <trkpt lat="43.24717" lon="5.65871">
        <ele>388.2</ele>
        <time>2013-11-20T08:12:31Z</time>
      </trkpt>
      <trkpt lat="43.24717" lon="5.6587">
        <ele>388.5</ele>
        <time>2013-11-20T08:12:32Z</time>
      </trkpt>
      <trkpt lat="43.24723" lon="5.65867">
        <ele>388.7</ele>
        <time>2013-11-20T08:12:38Z</time>
      </trkpt>
      <trkpt lat="43.24726" lon="5.65865">
        <ele>388.1</ele>
        <time>2013-11-20T08:12:41Z</time>
      </trkpt>
      <trkpt lat="43.24729" lon="5.65862">
        <ele>388.2</ele>
        <time>2013-11-20T08:12:44Z</time>
      </trkpt>
      <trkpt lat="43.24732" lon="5.65858">
        <ele>392</ele>
        <time>2013-11-20T08:12:50Z</time>
      </trkpt>
      <trkpt lat="43.24735" lon="5.65855">
        <ele>392.7</ele>
        <time>2013-11-20T08:12:56Z</time>
      </trkpt>
      <trkpt lat="43.24738" lon="5.65851">
        <ele>393.1</ele>
        <time>2013-11-20T08:13:01Z</time>
      </trkpt>
      <trkpt lat="43.24741" lon="5.65848">
        <ele>392</ele>
        <time>2013-11-20T08:13:06Z</time>
      </trkpt>
      <trkpt lat="43.24743" lon="5.65842">
        <ele>392.2</ele>
        <time>2013-11-20T08:13:12Z</time>
      </trkpt>
      <trkpt lat="43.24747" lon="5.65843">
        <ele>389.7</ele>
        <time>2013-11-20T08:13:14Z</time>
      </trkpt>
      <trkpt lat="43.24749" lon="5.65838">
        <ele>389.5</ele>
        <time>2013-11-20T08:13:18Z</time>
      </trkpt>
      <trkpt lat="43.2475" lon="5.65833">
        <ele>393</ele>
        <time>2013-11-20T08:13:24Z</time>
      </trkpt>
      <trkpt lat="43.24753" lon="5.65831">
        <ele>396.5</ele>
        <time>2013-11-20T08:13:29Z</time>
      </trkpt>
      <trkpt lat="43.24757" lon="5.65828">
        <ele>398</ele>
        <time>2013-11-20T08:13:35Z</time>
      </trkpt>
      <trkpt lat="43.24758" lon="5.65827">
        <ele>396.7</ele>
        <time>2013-11-20T08:13:36Z</time>
      </trkpt>
      <trkpt lat="43.24762" lon="5.6582">
        <ele>396.5</ele>
        <time>2013-11-20T08:13:44Z</time>
      </trkpt>
      <trkpt lat="43.24766" lon="5.65817">
        <ele>396.3</ele>
        <time>2013-11-20T08:13:48Z</time>
      </trkpt>
      <trkpt lat="43.24769" lon="5.65813">
        <ele>396.7</ele>
        <time>2013-11-20T08:13:54Z</time>
      </trkpt>
      <trkpt lat="43.2477" lon="5.65808">
        <ele>397.8</ele>
        <time>2013-11-20T08:14:01Z</time>
      </trkpt>
      <trkpt lat="43.24774" lon="5.65804">
        <ele>395</ele>
        <time>2013-11-20T08:14:09Z</time>
      </trkpt>
      <trkpt lat="43.24778" lon="5.65803">
        <ele>394</ele>
        <time>2013-11-20T08:14:14Z</time>
      </trkpt>
      <trkpt lat="43.2478" lon="5.65798">
        <ele>394.2</ele>
        <time>2013-11-20T08:14:26Z</time>
      </trkpt>
      <trkpt lat="43.24781" lon="5.65792">
        <ele>396.6</ele>
        <time>2013-11-20T08:14:35Z</time>
      </trkpt>
      <trkpt lat="43.24782" lon="5.65788">
        <ele>405.7</ele>
        <time>2013-11-20T08:14:49Z</time>
      </trkpt>
      <trkpt lat="43.24782" lon="5.65786">
        <ele>407.7</ele>
        <time>2013-11-20T08:14:50Z</time>
      </trkpt>
      <trkpt lat="43.24788" lon="5.65783">
        <ele>414.3</ele>
        <time>2013-11-20T08:15:01Z</time>
      </trkpt>
      <trkpt lat="43.24791" lon="5.65782">
        <ele>413.7</ele>
        <time>2013-11-20T08:15:03Z</time>
      </trkpt>
      <trkpt lat="43.24795" lon="5.65782">
        <ele>412.2</ele>
        <time>2013-11-20T08:15:06Z</time>
      </trkpt>
      <trkpt lat="43.24798" lon="5.65779">
        <ele>412.5</ele>
        <time>2013-11-20T08:15:11Z</time>
      </trkpt>
      <trkpt lat="43.24801" lon="5.65775">
        <ele>408.6</ele>
        <time>2013-11-20T08:15:17Z</time>
      </trkpt>
      <trkpt lat="43.24805" lon="5.65773">
        <ele>406.2</ele>
        <time>2013-11-20T08:15:22Z</time>
      </trkpt>
      <trkpt lat="43.24808" lon="5.65768">
        <ele>406.5</ele>
        <time>2013-11-20T08:15:28Z</time>
      </trkpt>
      <trkpt lat="43.24811" lon="5.65764">
        <ele>409</ele>
        <time>2013-11-20T08:15:36Z</time>
      </trkpt>
      <trkpt lat="43.24812" lon="5.65759">
        <ele>416</ele>
        <time>2013-11-20T08:15:47Z</time>
      </trkpt>
      <trkpt lat="43.24814" lon="5.65754">
        <ele>418.7</ele>
        <time>2013-11-20T08:15:57Z</time>
      </trkpt>
      <trkpt lat="43.24814" lon="5.65753">
        <ele>419.3</ele>
        <time>2013-11-20T08:15:58Z</time>
      </trkpt>
      <trkpt lat="43.24821" lon="5.65749">
        <ele>415.7</ele>
        <time>2013-11-20T08:16:07Z</time>
      </trkpt>
      <trkpt lat="43.24825" lon="5.65749">
        <ele>416.1</ele>
        <time>2013-11-20T08:16:25Z</time>
      </trkpt>
      <trkpt lat="43.24828" lon="5.65744">
        <ele>426</ele>
        <time>2013-11-20T08:16:51Z</time>
      </trkpt>
      <trkpt lat="43.24832" lon="5.65742">
        <ele>426.7</ele>
        <time>2013-11-20T08:17:01Z</time>
      </trkpt>
      <trkpt lat="43.24833" lon="5.65742">
        <ele>427</ele>
        <time>2013-11-20T08:17:02Z</time>
      </trkpt>
      <trkpt lat="43.24839" lon="5.65736">
        <ele>428.2</ele>
        <time>2013-11-20T08:17:24Z</time>
      </trkpt>
      <trkpt lat="43.24843" lon="5.65734">
        <ele>426.1</ele>
        <time>2013-11-20T08:17:34Z</time>
      </trkpt>
      <trkpt lat="43.24847" lon="5.65732">
        <ele>423.6</ele>
        <time>2013-11-20T08:17:42Z</time>
      </trkpt>
      <trkpt lat="43.24849" lon="5.65727">
        <ele>425.2</ele>
        <time>2013-11-20T08:17:52Z</time>
      </trkpt>
      <trkpt lat="43.24853" lon="5.65724">
        <ele>427.2</ele>
        <time>2013-11-20T08:18:01Z</time>
      </trkpt>
      <trkpt lat="43.24855" lon="5.65719">
        <ele>428.3</ele>
        <time>2013-11-20T08:18:11Z</time>
      </trkpt>
      <trkpt lat="43.24855" lon="5.65718">
        <ele>428.2</ele>
        <time>2013-11-20T08:18:12Z</time>
      </trkpt>
      <trkpt lat="43.24861" lon="5.6571">
        <ele>427.5</ele>
        <time>2013-11-20T08:18:30Z</time>
      </trkpt>
      <trkpt lat="43.24863" lon="5.65706">
        <ele>426.2</ele>
        <time>2013-11-20T08:18:38Z</time>
      </trkpt>
      <trkpt lat="43.24865" lon="5.657">
        <ele>426.6</ele>
        <time>2013-11-20T08:18:46Z</time>
      </trkpt>
      <trkpt lat="43.24869" lon="5.65696">
        <ele>426.8</ele>
        <time>2013-11-20T08:18:54Z</time>
      </trkpt>
      <trkpt lat="43.24873" lon="5.65694">
        <ele>423.1</ele>
        <time>2013-11-20T08:19:16Z</time>
      </trkpt>
      <trkpt lat="43.24873" lon="5.65694">
        <ele>422.8</ele>
        <time>2013-11-20T08:19:17Z</time>
      </trkpt>
      <trkpt lat="43.24872" lon="5.65684">
        <ele>430</ele>
        <time>2013-11-20T08:19:58Z</time>
      </trkpt>
      <trkpt lat="43.24871" lon="5.65678">
        <ele>431.7</ele>
        <time>2013-11-20T08:20:07Z</time>
      </trkpt>
      <trkpt lat="43.24873" lon="5.65673">
        <ele>435.1</ele>
        <time>2013-11-20T08:20:28Z</time>
      </trkpt>
      <trkpt lat="43.24873" lon="5.65673">
        <ele>435</ele>
        <time>2013-11-20T08:20:29Z</time>
      </trkpt>
      <trkpt lat="43.24876" lon="5.65664">
        <ele>438.2</ele>
        <time>2013-11-20T08:20:55Z</time>
      </trkpt>
      <trkpt lat="43.24878" lon="5.65659">
        <ele>439.6</ele>
        <time>2013-11-20T08:21:10Z</time>
      </trkpt>
      <trkpt lat="43.24877" lon="5.65653">
        <ele>440.7</ele>
        <time>2013-11-20T08:21:20Z</time>
      </trkpt>
      <trkpt lat="43.24879" lon="5.65648">
        <ele>441.7</ele>
        <time>2013-11-20T08:21:30Z</time>
      </trkpt>
      <trkpt lat="43.24879" lon="5.65647">
        <ele>442.1</ele>
        <time>2013-11-20T08:21:31Z</time>
      </trkpt>
      <trkpt lat="43.24881" lon="5.65636">
        <ele>447.5</ele>
        <time>2013-11-20T08:21:56Z</time>
      </trkpt>
      <trkpt lat="43.24878" lon="5.65632">
        <ele>450.3</ele>
        <time>2013-11-20T08:22:10Z</time>
      </trkpt>
      <trkpt lat="43.24877" lon="5.65626">
        <ele>452.2</ele>
        <time>2013-11-20T08:22:21Z</time>
      </trkpt>
      <trkpt lat="43.24875" lon="5.65621">
        <ele>453.2</ele>
        <time>2013-11-20T08:22:29Z</time>
      </trkpt>
      <trkpt lat="43.24872" lon="5.65617">
        <ele>456.1</ele>
        <time>2013-11-20T08:22:40Z</time>
      </trkpt>
      <trkpt lat="43.24871" lon="5.65617">
        <ele>456.6</ele>
        <time>2013-11-20T08:22:41Z</time>
      </trkpt>
      <trkpt lat="43.24871" lon="5.65608">
        <ele>459.2</ele>
        <time>2013-11-20T08:23:03Z</time>
      </trkpt>
      <trkpt lat="43.24869" lon="5.65602">
        <ele>462</ele>
        <time>2013-11-20T08:23:21Z</time>
      </trkpt>
      <trkpt lat="43.24866" lon="5.65598">
        <ele>464</ele>
        <time>2013-11-20T08:23:30Z</time>
      </trkpt>
      <trkpt lat="43.24864" lon="5.65593">
        <ele>466.2</ele>
        <time>2013-11-20T08:23:42Z</time>
      </trkpt>
      <trkpt lat="43.24864" lon="5.65592">
        <ele>466.5</ele>
        <time>2013-11-20T08:23:43Z</time>
      </trkpt>
      <trkpt lat="43.24863" lon="5.65581">
        <ele>466.7</ele>
        <time>2013-11-20T08:23:56Z</time>
      </trkpt>
      <trkpt lat="43.24863" lon="5.65576">
        <ele>468.5</ele>
        <time>2013-11-20T08:24:04Z</time>
      </trkpt>
      <trkpt lat="43.24867" lon="5.65572">
        <ele>469.7</ele>
        <time>2013-11-20T08:24:10Z</time>
      </trkpt>
      <trkpt lat="43.24869" lon="5.65567">
        <ele>470.6</ele>
        <time>2013-11-20T08:24:18Z</time>
      </trkpt>
      <trkpt lat="43.2487" lon="5.65562">
        <ele>471.5</ele>
        <time>2013-11-20T08:24:27Z</time>
      </trkpt>
      <trkpt lat="43.24871" lon="5.65557">
        <ele>472.2</ele>
        <time>2013-11-20T08:24:35Z</time>
      </trkpt>
      <trkpt lat="43.24875" lon="5.65555">
        <ele>474.1</ele>
        <time>2013-11-20T08:24:38Z</time>
      </trkpt>
      <trkpt lat="43.24879" lon="5.65554">
        <ele>474.5</ele>
        <time>2013-11-20T08:24:40Z</time>
      </trkpt>
      <trkpt lat="43.24882" lon="5.65551">
        <ele>474.7</ele>
        <time>2013-11-20T08:24:44Z</time>
      </trkpt>
      <trkpt lat="43.24883" lon="5.6555">
        <ele>474.7</ele>
        <time>2013-11-20T08:24:45Z</time>
      </trkpt>
      <trkpt lat="43.24883" lon="5.6554">
        <ele>474.6</ele>
        <time>2013-11-20T08:24:56Z</time>
      </trkpt>
      <trkpt lat="43.24885" lon="5.65534">
        <ele>474.3</ele>
        <time>2013-11-20T08:25:03Z</time>
      </trkpt>
      <trkpt lat="43.24885" lon="5.65529">
        <ele>475.2</ele>
        <time>2013-11-20T08:25:09Z</time>
      </trkpt>
      <trkpt lat="43.24883" lon="5.65524">
        <ele>475.6</ele>
        <time>2013-11-20T08:25:15Z</time>
      </trkpt>
      <trkpt lat="43.2488" lon="5.65519">
        <ele>476.1</ele>
        <time>2013-11-20T08:25:26Z</time>
      </trkpt>
      <trkpt lat="43.24877" lon="5.65515">
        <ele>477.2</ele>
        <time>2013-11-20T08:26:29Z</time>
      </trkpt>
      <trkpt lat="43.24877" lon="5.65515">
        <ele>477.2</ele>
        <time>2013-11-20T08:26:30Z</time>
      </trkpt>
      <trkpt lat="43.24874" lon="5.6551">
        <ele>480.2</ele>
        <time>2013-11-20T08:28:49Z</time>
      </trkpt>
      <trkpt lat="43.2487" lon="5.65501">
        <ele>479.7</ele>
        <time>2013-11-20T08:29:53Z</time>
      </trkpt>
      <trkpt lat="43.2487" lon="5.655">
        <ele>479.8</ele>
        <time>2013-11-20T08:29:54Z</time>
      </trkpt>
      <trkpt lat="43.24866" lon="5.65491">
        <ele>479.2</ele>
        <time>2013-11-20T08:30:04Z</time>
      </trkpt>
      <trkpt lat="43.24864" lon="5.65487">
        <ele>478.2</ele>
        <time>2013-11-20T08:30:09Z</time>
      </trkpt>
      <trkpt lat="43.24864" lon="5.65481">
        <ele>474</ele>
        <time>2013-11-20T08:30:20Z</time>
      </trkpt>
      <trkpt lat="43.24863" lon="5.65475">
        <ele>472.7</ele>
        <time>2013-11-20T08:30:26Z</time>
      </trkpt>
      <trkpt lat="43.24861" lon="5.6547">
        <ele>472</ele>
        <time>2013-11-20T08:30:31Z</time>
      </trkpt>
      <trkpt lat="43.2486" lon="5.65465">
        <ele>469.6</ele>
        <time>2013-11-20T08:30:38Z</time>
      </trkpt>
      <trkpt lat="43.24859" lon="5.65462">
        <ele>468.7</ele>
        <time>2013-11-20T08:30:42Z</time>
      </trkpt>
      <trkpt lat="43.24858" lon="5.65459">
        <ele>469.7</ele>
        <time>2013-11-20T08:30:43Z</time>
      </trkpt>
      <trkpt lat="43.24853" lon="5.65453">
        <ele>473</ele>
        <time>2013-11-20T08:30:44Z</time>
      </trkpt>
      <trkpt lat="43.24851" lon="5.65449">
        <ele>474.7</ele>
        <time>2013-11-20T08:30:45Z</time>
      </trkpt>
      <trkpt lat="43.24849" lon="5.65445">
        <ele>474.1</ele>
        <time>2013-11-20T08:30:49Z</time>
      </trkpt>
      <trkpt lat="43.24847" lon="5.65443">
        <ele>475.2</ele>
        <time>2013-11-20T08:30:50Z</time>
      </trkpt>
      <trkpt lat="43.24844" lon="5.65439">
        <ele>476.7</ele>
        <time>2013-11-20T08:30:52Z</time>
      </trkpt>
      <trkpt lat="43.24841" lon="5.65435">
        <ele>477</ele>
        <time>2013-11-20T08:30:55Z</time>
      </trkpt>
      <trkpt lat="43.2484" lon="5.65434">
        <ele>477</ele>
        <time>2013-11-20T08:30:56Z</time>
      </trkpt>
      <trkpt lat="43.24835" lon="5.65428">
        <ele>477.7</ele>
        <time>2013-11-20T08:31:01Z</time>
      </trkpt>
      <trkpt lat="43.24833" lon="5.65425">
        <ele>477.6</ele>
        <time>2013-11-20T08:31:04Z</time>
      </trkpt>
      <trkpt lat="43.2483" lon="5.65422">
        <ele>477</ele>
        <time>2013-11-20T08:31:08Z</time>
      </trkpt>
      <trkpt lat="43.24826" lon="5.65418">
        <ele>476.8</ele>
        <time>2013-11-20T08:31:12Z</time>
      </trkpt>
      <trkpt lat="43.24824" lon="5.65414">
        <ele>475.8</ele>
        <time>2013-11-20T08:31:17Z</time>
      </trkpt>
      <trkpt lat="43.24822" lon="5.6541">
        <ele>474.2</ele>
        <time>2013-11-20T08:31:23Z</time>
      </trkpt>
      <trkpt lat="43.24822" lon="5.65405">
        <ele>474.2</ele>
        <time>2013-11-20T08:31:27Z</time>
      </trkpt>
      <trkpt lat="43.24823" lon="5.65399">
        <ele>474.5</ele>
        <time>2013-11-20T08:31:31Z</time>
      </trkpt>
      <trkpt lat="43.24825" lon="5.65395">
        <ele>472.8</ele>
        <time>2013-11-20T08:31:36Z</time>
      </trkpt>
      <trkpt lat="43.24828" lon="5.65391">
        <ele>471.2</ele>
        <time>2013-11-20T08:31:42Z</time>
      </trkpt>
      <trkpt lat="43.24827" lon="5.65386">
        <ele>471.7</ele>
        <time>2013-11-20T08:31:45Z</time>
      </trkpt>
      <trkpt lat="43.24827" lon="5.6538">
        <ele>471.8</ele>
        <time>2013-11-20T08:31:50Z</time>
      </trkpt>
      <trkpt lat="43.24828" lon="5.65375">
        <ele>470.7</ele>
        <time>2013-11-20T08:31:57Z</time>
      </trkpt>
      <trkpt lat="43.24829" lon="5.65374">
        <ele>470.7</ele>
        <time>2013-11-20T08:31:58Z</time>
      </trkpt>
      <trkpt lat="43.24836" lon="5.65371">
        <ele>468.7</ele>
        <time>2013-11-20T08:32:11Z</time>
      </trkpt>
      <trkpt lat="43.2484" lon="5.65369">
        <ele>467.2</ele>
        <time>2013-11-20T08:32:18Z</time>
      </trkpt>
      <trkpt lat="43.24844" lon="5.65368">
        <ele>465.7</ele>
        <time>2013-11-20T08:32:25Z</time>
      </trkpt>
      <trkpt lat="43.24848" lon="5.65367">
        <ele>463.3</ele>
        <time>2013-11-20T08:32:31Z</time>
      </trkpt>
      <trkpt lat="43.24852" lon="5.65365">
        <ele>462.2</ele>
        <time>2013-11-20T08:32:35Z</time>
      </trkpt>
      <trkpt lat="43.24855" lon="5.65362">
        <ele>460.3</ele>
        <time>2013-11-20T08:32:41Z</time>
      </trkpt>
      <trkpt lat="43.24859" lon="5.65358">
        <ele>457.2</ele>
        <time>2013-11-20T08:32:50Z</time>
      </trkpt>
      <trkpt lat="43.24861" lon="5.65354">
        <ele>453.1</ele>
        <time>2013-11-20T08:32:58Z</time>
      </trkpt>
      <trkpt lat="43.24862" lon="5.65353">
        <ele>452.6</ele>
        <time>2013-11-20T08:32:59Z</time>
      </trkpt>
      <trkpt lat="43.24869" lon="5.65349">
        <ele>451.5</ele>
        <time>2013-11-20T08:33:07Z</time>
      </trkpt>
      <trkpt lat="43.24872" lon="5.65348">
        <ele>451.6</ele>
        <time>2013-11-20T08:33:10Z</time>
      </trkpt>
      <trkpt lat="43.24876" lon="5.65348">
        <ele>451.7</ele>
        <time>2013-11-20T08:33:13Z</time>
      </trkpt>
      <trkpt lat="43.2488" lon="5.65347">
        <ele>451.2</ele>
        <time>2013-11-20T08:33:16Z</time>
      </trkpt>
      <trkpt lat="43.24883" lon="5.65346">
        <ele>450.6</ele>
        <time>2013-11-20T08:33:19Z</time>
      </trkpt>
      <trkpt lat="43.24887" lon="5.65345">
        <ele>449.8</ele>
        <time>2013-11-20T08:33:22Z</time>
      </trkpt>
      <trkpt lat="43.24891" lon="5.65344">
        <ele>449.2</ele>
        <time>2013-11-20T08:33:26Z</time>
      </trkpt>
      <trkpt lat="43.24895" lon="5.65342">
        <ele>448.7</ele>
        <time>2013-11-20T08:33:30Z</time>
      </trkpt>
      <trkpt lat="43.249" lon="5.65341">
        <ele>448.8</ele>
        <time>2013-11-20T08:33:34Z</time>
      </trkpt>
      <trkpt lat="43.24904" lon="5.65341">
        <ele>449.2</ele>
        <time>2013-11-20T08:33:38Z</time>
      </trkpt>
      <trkpt lat="43.24908" lon="5.65342">
        <ele>448.2</ele>
        <time>2013-11-20T08:33:44Z</time>
      </trkpt>
      <trkpt lat="43.24912" lon="5.65341">
        <ele>447.8</ele>
        <time>2013-11-20T08:33:51Z</time>
      </trkpt>
      <trkpt lat="43.24916" lon="5.6534">
        <ele>446.7</ele>
        <time>2013-11-20T08:33:57Z</time>
      </trkpt>
      <trkpt lat="43.2492" lon="5.6534">
        <ele>445.7</ele>
        <time>2013-11-20T08:34:03Z</time>
      </trkpt>
      <trkpt lat="43.24921" lon="5.65339">
        <ele>445.6</ele>
        <time>2013-11-20T08:34:04Z</time>
      </trkpt>
      <trkpt lat="43.24927" lon="5.65338">
        <ele>443.8</ele>
        <time>2013-11-20T08:34:12Z</time>
      </trkpt>
      <trkpt lat="43.24932" lon="5.65337">
        <ele>442.3</ele>
        <time>2013-11-20T08:34:18Z</time>
      </trkpt>
      <trkpt lat="43.24936" lon="5.65336">
        <ele>440</ele>
        <time>2013-11-20T08:34:26Z</time>
      </trkpt>
      <trkpt lat="43.2494" lon="5.65335">
        <ele>439.6</ele>
        <time>2013-11-20T08:34:31Z</time>
      </trkpt>
      <trkpt lat="43.24943" lon="5.65333">
        <ele>438.2</ele>
        <time>2013-11-20T08:34:36Z</time>
      </trkpt>
      <trkpt lat="43.24947" lon="5.65331">
        <ele>434.8</ele>
        <time>2013-11-20T08:34:42Z</time>
      </trkpt>
      <trkpt lat="43.2495" lon="5.65328">
        <ele>432.3</ele>
        <time>2013-11-20T08:34:47Z</time>
      </trkpt>
      <trkpt lat="43.24953" lon="5.65326">
        <ele>432.3</ele>
        <time>2013-11-20T08:34:50Z</time>
      </trkpt>
      <trkpt lat="43.24956" lon="5.65325">
        <ele>433.1</ele>
        <time>2013-11-20T08:34:52Z</time>
      </trkpt>
      <trkpt lat="43.24959" lon="5.65323">
        <ele>434</ele>
        <time>2013-11-20T08:34:55Z</time>
      </trkpt>
      <trkpt lat="43.24963" lon="5.65323">
        <ele>434.8</ele>
        <time>2013-11-20T08:34:58Z</time>
      </trkpt>
      <trkpt lat="43.24967" lon="5.65322">
        <ele>436</ele>
        <time>2013-11-20T08:35:03Z</time>
      </trkpt>
      <trkpt lat="43.24972" lon="5.65323">
        <ele>437.7</ele>
        <time>2013-11-20T08:35:22Z</time>
      </trkpt>
      <trkpt lat="43.24972" lon="5.65323">
        <ele>437.7</ele>
        <time>2013-11-20T08:35:23Z</time>
      </trkpt>
      <trkpt lat="43.24971" lon="5.65317">
        <ele>442.3</ele>
        <time>2013-11-20T08:36:26Z</time>
      </trkpt>
      <trkpt lat="43.24971" lon="5.65311">
        <ele>437.8</ele>
        <time>2013-11-20T08:38:16Z</time>
      </trkpt>
      <trkpt lat="43.24971" lon="5.653">
        <ele>437.3</ele>
        <time>2013-11-20T08:38:27Z</time>
      </trkpt>
      <trkpt lat="43.24972" lon="5.65294">
        <ele>436.8</ele>
        <time>2013-11-20T08:38:32Z</time>
      </trkpt>
      <trkpt lat="43.24971" lon="5.65288">
        <ele>436.6</ele>
        <time>2013-11-20T08:38:37Z</time>
      </trkpt>
      <trkpt lat="43.24972" lon="5.65283">
        <ele>436.5</ele>
        <time>2013-11-20T08:38:41Z</time>
      </trkpt>
      <trkpt lat="43.24972" lon="5.65277">
        <ele>436.7</ele>
        <time>2013-11-20T08:38:45Z</time>
      </trkpt>
      <trkpt lat="43.24973" lon="5.65272">
        <ele>436.6</ele>
        <time>2013-11-20T08:38:49Z</time>
      </trkpt>
      <trkpt lat="43.24973" lon="5.65267">
        <ele>436.7</ele>
        <time>2013-11-20T08:38:53Z</time>
      </trkpt>
      <trkpt lat="43.24973" lon="5.65261">
        <ele>436.6</ele>
        <time>2013-11-20T08:38:57Z</time>
      </trkpt>
      <trkpt lat="43.24972" lon="5.65255">
        <ele>436.5</ele>
        <time>2013-11-20T08:39:01Z</time>
      </trkpt>
      <trkpt lat="43.24972" lon="5.6525">
        <ele>436.2</ele>
        <time>2013-11-20T08:39:05Z</time>
      </trkpt>
      <trkpt lat="43.24971" lon="5.65244">
        <ele>435.8</ele>
        <time>2013-11-20T08:39:09Z</time>
      </trkpt>
      <trkpt lat="43.24971" lon="5.65239">
        <ele>436.2</ele>
        <time>2013-11-20T08:39:13Z</time>
      </trkpt>
      <trkpt lat="43.24971" lon="5.65233">
        <ele>436.3</ele>
        <time>2013-11-20T08:39:17Z</time>
      </trkpt>
      <trkpt lat="43.24971" lon="5.65232">
        <ele>436.3</ele>
        <time>2013-11-20T08:39:18Z</time>
      </trkpt>
      <trkpt lat="43.2497" lon="5.65222">
        <ele>436.1</ele>
        <time>2013-11-20T08:39:26Z</time>
      </trkpt>
      <trkpt lat="43.24969" lon="5.65217">
        <ele>436.2</ele>
        <time>2013-11-20T08:39:30Z</time>
      </trkpt>
      <trkpt lat="43.24968" lon="5.65212">
        <ele>436</ele>
        <time>2013-11-20T08:39:34Z</time>
      </trkpt>
      <trkpt lat="43.24968" lon="5.65206">
        <ele>435.6</ele>
        <time>2013-11-20T08:39:38Z</time>
      </trkpt>
      <trkpt lat="43.24967" lon="5.65201">
        <ele>435.2</ele>
        <time>2013-11-20T08:39:42Z</time>
      </trkpt>
      <trkpt lat="43.24966" lon="5.65195">
        <ele>434.3</ele>
        <time>2013-11-20T08:39:47Z</time>
      </trkpt>
      <trkpt lat="43.24965" lon="5.6519">
        <ele>434.1</ele>
        <time>2013-11-20T08:39:51Z</time>
      </trkpt>
      <trkpt lat="43.24964" lon="5.65185">
        <ele>434.2</ele>
        <time>2013-11-20T08:39:55Z</time>
      </trkpt>
      <trkpt lat="43.24962" lon="5.65179">
        <ele>434.1</ele>
        <time>2013-11-20T08:39:59Z</time>
      </trkpt>
      <trkpt lat="43.2496" lon="5.65174">
        <ele>433.5</ele>
        <time>2013-11-20T08:40:03Z</time>
      </trkpt>
      <trkpt lat="43.24958" lon="5.6517">
        <ele>433.6</ele>
        <time>2013-11-20T08:40:06Z</time>
      </trkpt>
      <trkpt lat="43.24956" lon="5.65165">
        <ele>432.8</ele>
        <time>2013-11-20T08:40:11Z</time>
      </trkpt>
      <trkpt lat="43.24955" lon="5.65161">
        <ele>432.7</ele>
        <time>2013-11-20T08:40:14Z</time>
      </trkpt>
      <trkpt lat="43.24953" lon="5.65156">
        <ele>433.7</ele>
        <time>2013-11-20T08:40:16Z</time>
      </trkpt>
      <trkpt lat="43.24952" lon="5.65151">
        <ele>434.3</ele>
        <time>2013-11-20T08:40:18Z</time>
      </trkpt>
      <trkpt lat="43.24952" lon="5.6515">
        <ele>434.2</ele>
        <time>2013-11-20T08:40:19Z</time>
      </trkpt>
      <trkpt lat="43.24951" lon="5.65141">
        <ele>433.7</ele>
        <time>2013-11-20T08:40:26Z</time>
      </trkpt>
      <trkpt lat="43.24951" lon="5.65135">
        <ele>434.2</ele>
        <time>2013-11-20T08:40:30Z</time>
      </trkpt>
      <trkpt lat="43.24951" lon="5.6513">
        <ele>434.5</ele>
        <time>2013-11-20T08:40:33Z</time>
      </trkpt>
      <trkpt lat="43.2495" lon="5.65125">
        <ele>435</ele>
        <time>2013-11-20T08:40:36Z</time>
      </trkpt>
      <trkpt lat="43.2495" lon="5.65119">
        <ele>435.2</ele>
        <time>2013-11-20T08:40:40Z</time>
      </trkpt>
      <trkpt lat="43.24949" lon="5.65113">
        <ele>435.2</ele>
        <time>2013-11-20T08:40:44Z</time>
      </trkpt>
      <trkpt lat="43.24947" lon="5.65108">
        <ele>434.8</ele>
        <time>2013-11-20T08:40:48Z</time>
      </trkpt>
      <trkpt lat="43.24945" lon="5.65103">
        <ele>434.3</ele>
        <time>2013-11-20T08:40:52Z</time>
      </trkpt>
      <trkpt lat="43.24943" lon="5.65098">
        <ele>434.2</ele>
        <time>2013-11-20T08:40:56Z</time>
      </trkpt>
      <trkpt lat="43.24942" lon="5.65093">
        <ele>433.7</ele>
        <time>2013-11-20T08:41:00Z</time>
      </trkpt>
      <trkpt lat="43.2494" lon="5.65088">
        <ele>433.2</ele>
        <time>2013-11-20T08:41:04Z</time>
      </trkpt>
      <trkpt lat="43.24939" lon="5.65083">
        <ele>432.7</ele>
        <time>2013-11-20T08:41:08Z</time>
      </trkpt>
      <trkpt lat="43.24939" lon="5.65079">
        <ele>432</ele>
        <time>2013-11-20T08:41:12Z</time>
      </trkpt>
      <trkpt lat="43.24939" lon="5.65077">
        <ele>432</ele>
        <time>2013-11-20T08:41:13Z</time>
      </trkpt>
      <trkpt lat="43.24936" lon="5.65072">
        <ele>433.1</ele>
        <time>2013-11-20T08:41:15Z</time>
      </trkpt>
      <trkpt lat="43.24936" lon="5.65068">
        <ele>432.7</ele>
        <time>2013-11-20T08:41:19Z</time>
      </trkpt>
      <trkpt lat="43.24935" lon="5.65065">
        <ele>433.6</ele>
        <time>2013-11-20T08:41:20Z</time>
      </trkpt>
      <trkpt lat="43.24933" lon="5.6506">
        <ele>435.2</ele>
        <time>2013-11-20T08:41:22Z</time>
      </trkpt>
      <trkpt lat="43.24938" lon="5.6506">
        <ele>435.7</ele>
        <time>2013-11-20T08:41:32Z</time>
      </trkpt>
      <trkpt lat="43.24941" lon="5.65065">
        <ele>435.2</ele>
        <time>2013-11-20T08:41:40Z</time>
      </trkpt>
      <trkpt lat="43.24943" lon="5.6507">
        <ele>433.6</ele>
        <time>2013-11-20T08:41:46Z</time>
      </trkpt>
      <trkpt lat="43.24946" lon="5.65075">
        <ele>432.8</ele>
        <time>2013-11-20T08:41:55Z</time>
      </trkpt>
      <trkpt lat="43.24949" lon="5.65078">
        <ele>429.2</ele>
        <time>2013-11-20T08:42:05Z</time>
      </trkpt>
      <trkpt lat="43.24953" lon="5.6508">
        <ele>425.8</ele>
        <time>2013-11-20T08:42:12Z</time>
      </trkpt>
      <trkpt lat="43.24955" lon="5.65085">
        <ele>425.2</ele>
        <time>2013-11-20T08:42:24Z</time>
      </trkpt>
      <trkpt lat="43.24955" lon="5.65085">
        <ele>424.8</ele>
        <time>2013-11-20T08:42:25Z</time>
      </trkpt>
      <trkpt lat="43.24961" lon="5.65093">
        <ele>429.3</ele>
        <time>2013-11-20T08:42:45Z</time>
      </trkpt>
      <trkpt lat="43.24965" lon="5.65096">
        <ele>430</ele>
        <time>2013-11-20T08:42:52Z</time>
      </trkpt>
      <trkpt lat="43.24969" lon="5.65098">
        <ele>421.1</ele>
        <time>2013-11-20T08:43:03Z</time>
      </trkpt>
      <trkpt lat="43.24973" lon="5.65101">
        <ele>419.7</ele>
        <time>2013-11-20T08:43:11Z</time>
      </trkpt>
      <trkpt lat="43.24976" lon="5.65105">
        <ele>417.1</ele>
        <time>2013-11-20T08:43:21Z</time>
      </trkpt>
      <trkpt lat="43.24979" lon="5.65109">
        <ele>421.6</ele>
        <time>2013-11-20T08:43:30Z</time>
      </trkpt>
      <trkpt lat="43.24979" lon="5.65109">
        <ele>420.7</ele>
        <time>2013-11-20T08:43:31Z</time>
      </trkpt>
      <trkpt lat="43.24983" lon="5.65118">
        <ele>429.7</ele>
        <time>2013-11-20T08:43:43Z</time>
      </trkpt>
      <trkpt lat="43.24984" lon="5.65124">
        <ele>427.8</ele>
        <time>2013-11-20T08:43:50Z</time>
      </trkpt>
      <trkpt lat="43.24984" lon="5.6513">
        <ele>419.5</ele>
        <time>2013-11-20T08:44:01Z</time>
      </trkpt>
      <trkpt lat="43.24987" lon="5.65132">
        <ele>419.5</ele>
        <time>2013-11-20T08:44:08Z</time>
      </trkpt>
      <trkpt lat="43.24991" lon="5.65134">
        <ele>411.7</ele>
        <time>2013-11-20T08:44:24Z</time>
      </trkpt>
      <trkpt lat="43.24995" lon="5.6513">
        <ele>411.1</ele>
        <time>2013-11-20T08:44:40Z</time>
      </trkpt>
      <trkpt lat="43.24995" lon="5.6513">
        <ele>410.6</ele>
        <time>2013-11-20T08:44:41Z</time>
      </trkpt>
      <trkpt lat="43.25002" lon="5.65129">
        <ele>403.1</ele>
        <time>2013-11-20T08:45:08Z</time>
      </trkpt>
      <trkpt lat="43.25007" lon="5.65131">
        <ele>399.5</ele>
        <time>2013-11-20T08:45:14Z</time>
      </trkpt>
      <trkpt lat="43.25011" lon="5.65133">
        <ele>399.2</ele>
        <time>2013-11-20T08:45:21Z</time>
      </trkpt>
      <trkpt lat="43.25014" lon="5.65136">
        <ele>397.1</ele>
        <time>2013-11-20T08:45:34Z</time>
      </trkpt>
      <trkpt lat="43.25017" lon="5.65141">
        <ele>403.1</ele>
        <time>2013-11-20T08:45:41Z</time>
      </trkpt>
      <trkpt lat="43.25018" lon="5.65141">
        <ele>403.2</ele>
        <time>2013-11-20T08:45:42Z</time>
      </trkpt>
      <trkpt lat="43.25016" lon="5.65152">
        <ele>403.5</ele>
        <time>2013-11-20T08:46:16Z</time>
      </trkpt>
      <trkpt lat="43.25017" lon="5.65157">
        <ele>397.7</ele>
        <time>2013-11-20T08:46:27Z</time>
      </trkpt>
      <trkpt lat="43.25019" lon="5.65163">
        <ele>392.3</ele>
        <time>2013-11-20T08:46:34Z</time>
      </trkpt>
      <trkpt lat="43.25023" lon="5.65167">
        <ele>392.7</ele>
        <time>2013-11-20T08:46:43Z</time>
      </trkpt>
      <trkpt lat="43.25023" lon="5.65167">
        <ele>391.3</ele>
        <time>2013-11-20T08:46:44Z</time>
      </trkpt>
      <trkpt lat="43.2503" lon="5.65174">
        <ele>381.7</ele>
        <time>2013-11-20T08:47:04Z</time>
      </trkpt>
      <trkpt lat="43.25032" lon="5.65175">
        <ele>383.5</ele>
        <time>2013-11-20T08:47:09Z</time>
      </trkpt>
      <trkpt lat="43.25037" lon="5.65176">
        <ele>385.8</ele>
        <time>2013-11-20T08:47:15Z</time>
      </trkpt>
      <trkpt lat="43.2504" lon="5.6518">
        <ele>385</ele>
        <time>2013-11-20T08:47:26Z</time>
      </trkpt>
      <trkpt lat="43.25044" lon="5.65182">
        <ele>384.6</ele>
        <time>2013-11-20T08:47:31Z</time>
      </trkpt>
      <trkpt lat="43.25048" lon="5.65182">
        <ele>386.3</ele>
        <time>2013-11-20T08:47:37Z</time>
      </trkpt>
      <trkpt lat="43.25052" lon="5.65184">
        <ele>387.6</ele>
        <time>2013-11-20T08:47:43Z</time>
      </trkpt>
      <trkpt lat="43.25056" lon="5.65186">
        <ele>385.8</ele>
        <time>2013-11-20T08:47:50Z</time>
      </trkpt>
      <trkpt lat="43.25057" lon="5.65187">
        <ele>385.1</ele>
        <time>2013-11-20T08:47:51Z</time>
      </trkpt>
      <trkpt lat="43.25064" lon="5.65182">
        <ele>377.2</ele>
        <time>2013-11-20T08:48:10Z</time>
      </trkpt>
      <trkpt lat="43.25068" lon="5.65182">
        <ele>376.8</ele>
        <time>2013-11-20T08:48:15Z</time>
      </trkpt>
      <trkpt lat="43.25071" lon="5.65183">
        <ele>376.5</ele>
        <time>2013-11-20T08:48:18Z</time>
      </trkpt>
      <trkpt lat="43.25074" lon="5.65183">
        <ele>378.1</ele>
        <time>2013-11-20T08:48:20Z</time>
      </trkpt>
      <trkpt lat="43.25077" lon="5.65184">
        <ele>380</ele>
        <time>2013-11-20T08:48:22Z</time>
      </trkpt>
      <trkpt lat="43.25081" lon="5.65185">
        <ele>379.7</ele>
        <time>2013-11-20T08:48:25Z</time>
      </trkpt>
      <trkpt lat="43.25085" lon="5.65186">
        <ele>378.7</ele>
        <time>2013-11-20T08:48:29Z</time>
      </trkpt>
      <trkpt lat="43.25089" lon="5.65185">
        <ele>375.2</ele>
        <time>2013-11-20T08:48:36Z</time>
      </trkpt>
      <trkpt lat="43.25093" lon="5.65184">
        <ele>374.3</ele>
        <time>2013-11-20T08:48:42Z</time>
      </trkpt>
      <trkpt lat="43.25097" lon="5.65182">
        <ele>371.7</ele>
        <time>2013-11-20T08:48:49Z</time>
      </trkpt>
      <trkpt lat="43.25101" lon="5.65181">
        <ele>369.6</ele>
        <time>2013-11-20T08:48:56Z</time>
      </trkpt>
      <trkpt lat="43.25102" lon="5.65181">
        <ele>369.2</ele>
        <time>2013-11-20T08:48:57Z</time>
      </trkpt>
      <trkpt lat="43.2511" lon="5.6518">
        <ele>365.5</ele>
        <time>2013-11-20T08:49:06Z</time>
      </trkpt>
      <trkpt lat="43.25113" lon="5.65176">
        <ele>365.3</ele>
        <time>2013-11-20T08:49:12Z</time>
      </trkpt>
      <trkpt lat="43.25116" lon="5.65172">
        <ele>363.1</ele>
        <time>2013-11-20T08:49:19Z</time>
      </trkpt>
      <trkpt lat="43.2512" lon="5.6517">
        <ele>366.5</ele>
        <time>2013-11-20T08:49:21Z</time>
      </trkpt>
      <trkpt lat="43.25123" lon="5.65168">
        <ele>369</ele>
        <time>2013-11-20T08:49:24Z</time>
      </trkpt>
      <trkpt lat="43.25127" lon="5.65165">
        <ele>370.7</ele>
        <time>2013-11-20T08:49:31Z</time>
      </trkpt>
      <trkpt lat="43.25129" lon="5.65159">
        <ele>371.7</ele>
        <time>2013-11-20T08:49:38Z</time>
      </trkpt>
      <trkpt lat="43.25132" lon="5.65156">
        <ele>372.1</ele>
        <time>2013-11-20T08:49:46Z</time>
      </trkpt>
      <trkpt lat="43.25135" lon="5.65153">
        <ele>372</ele>
        <time>2013-11-20T08:49:54Z</time>
      </trkpt>
      <trkpt lat="43.25139" lon="5.65152">
        <ele>372.3</ele>
        <time>2013-11-20T08:49:59Z</time>
      </trkpt>
      <trkpt lat="43.2514" lon="5.65151">
        <ele>372.2</ele>
        <time>2013-11-20T08:50:00Z</time>
      </trkpt>
      <trkpt lat="43.25146" lon="5.65147">
        <ele>368.6</ele>
        <time>2013-11-20T08:50:11Z</time>
      </trkpt>
      <trkpt lat="43.2515" lon="5.65146">
        <ele>366.7</ele>
        <time>2013-11-20T08:50:15Z</time>
      </trkpt>
      <trkpt lat="43.25155" lon="5.65145">
        <ele>363.2</ele>
        <time>2013-11-20T08:50:24Z</time>
      </trkpt>
      <trkpt lat="43.25156" lon="5.6514">
        <ele>365.7</ele>
        <time>2013-11-20T08:50:46Z</time>
      </trkpt>
      <trkpt lat="43.25158" lon="5.65135">
        <ele>364.7</ele>
        <time>2013-11-20T08:50:53Z</time>
      </trkpt>
      <trkpt lat="43.25162" lon="5.65132">
        <ele>363.8</ele>
        <time>2013-11-20T08:50:59Z</time>
      </trkpt>
      <trkpt lat="43.25165" lon="5.65128">
        <ele>363.8</ele>
        <time>2013-11-20T08:51:04Z</time>
      </trkpt>
      <trkpt lat="43.25167" lon="5.65127">
        <ele>364.3</ele>
        <time>2013-11-20T08:51:05Z</time>
      </trkpt>
      <trkpt lat="43.25171" lon="5.65123">
        <ele>362.8</ele>
        <time>2013-11-20T08:51:13Z</time>
      </trkpt>
      <trkpt lat="43.25175" lon="5.6512">
        <ele>364.1</ele>
        <time>2013-11-20T08:51:17Z</time>
      </trkpt>
      <trkpt lat="43.25177" lon="5.65116">
        <ele>363.7</ele>
        <time>2013-11-20T08:51:22Z</time>
      </trkpt>
      <trkpt lat="43.25179" lon="5.65111">
        <ele>364.5</ele>
        <time>2013-11-20T08:51:26Z</time>
      </trkpt>
      <trkpt lat="43.25181" lon="5.65107">
        <ele>364</ele>
        <time>2013-11-20T08:51:30Z</time>
      </trkpt>
      <trkpt lat="43.25182" lon="5.65101">
        <ele>364.1</ele>
        <time>2013-11-20T08:51:35Z</time>
      </trkpt>
      <trkpt lat="43.25183" lon="5.65096">
        <ele>364.5</ele>
        <time>2013-11-20T08:51:39Z</time>
      </trkpt>
      <trkpt lat="43.25186" lon="5.65091">
        <ele>366</ele>
        <time>2013-11-20T08:51:42Z</time>
      </trkpt>
      <trkpt lat="43.25188" lon="5.65088">
        <ele>366.7</ele>
        <time>2013-11-20T08:51:45Z</time>
      </trkpt>
      <trkpt lat="43.2519" lon="5.65083">
        <ele>366.7</ele>
        <time>2013-11-20T08:51:49Z</time>
      </trkpt>
      <trkpt lat="43.25191" lon="5.65077">
        <ele>367</ele>
        <time>2013-11-20T08:51:53Z</time>
      </trkpt>
      <trkpt lat="43.25192" lon="5.65073">
        <ele>367.6</ele>
        <time>2013-11-20T08:51:59Z</time>
      </trkpt>
      <trkpt lat="43.25194" lon="5.65067">
        <ele>367.3</ele>
        <time>2013-11-20T08:52:04Z</time>
      </trkpt>
      <trkpt lat="43.25195" lon="5.65061">
        <ele>367.3</ele>
        <time>2013-11-20T08:52:08Z</time>
      </trkpt>
      <trkpt lat="43.25195" lon="5.6506">
        <ele>367.3</ele>
        <time>2013-11-20T08:52:09Z</time>
      </trkpt>
      <trkpt lat="43.25198" lon="5.65051">
        <ele>367.8</ele>
        <time>2013-11-20T08:52:18Z</time>
      </trkpt>
      <trkpt lat="43.252" lon="5.65047">
        <ele>367.8</ele>
        <time>2013-11-20T08:52:22Z</time>
      </trkpt>
      <trkpt lat="43.25201" lon="5.65042">
        <ele>368</ele>
        <time>2013-11-20T08:52:26Z</time>
      </trkpt>
      <trkpt lat="43.25202" lon="5.65037">
        <ele>367.8</ele>
        <time>2013-11-20T08:52:30Z</time>
      </trkpt>
      <trkpt lat="43.25204" lon="5.65033">
        <ele>368.2</ele>
        <time>2013-11-20T08:52:34Z</time>
      </trkpt>
      <trkpt lat="43.25206" lon="5.65028">
        <ele>367.6</ele>
        <time>2013-11-20T08:52:38Z</time>
      </trkpt>
      <trkpt lat="43.25206" lon="5.65022">
        <ele>367.7</ele>
        <time>2013-11-20T08:52:42Z</time>
      </trkpt>
      <trkpt lat="43.25207" lon="5.65017">
        <ele>367.2</ele>
        <time>2013-11-20T08:52:47Z</time>
      </trkpt>
      <trkpt lat="43.25209" lon="5.65012">
        <ele>366</ele>
        <time>2013-11-20T08:52:53Z</time>
      </trkpt>
      <trkpt lat="43.2521" lon="5.65006">
        <ele>365.2</ele>
        <time>2013-11-20T08:52:58Z</time>
      </trkpt>
      <trkpt lat="43.2521" lon="5.65001">
        <ele>365.2</ele>
        <time>2013-11-20T08:53:02Z</time>
      </trkpt>
      <trkpt lat="43.25211" lon="5.64996">
        <ele>365.1</ele>
        <time>2013-11-20T08:53:06Z</time>
      </trkpt>
      <trkpt lat="43.25212" lon="5.6499">
        <ele>364.8</ele>
        <time>2013-11-20T08:53:11Z</time>
      </trkpt>
      <trkpt lat="43.25213" lon="5.64989">
        <ele>365</ele>
        <time>2013-11-20T08:53:12Z</time>
      </trkpt>
      <trkpt lat="43.25215" lon="5.6498">
        <ele>364.3</ele>
        <time>2013-11-20T08:53:20Z</time>
      </trkpt>
      <trkpt lat="43.25216" lon="5.64975">
        <ele>363.6</ele>
        <time>2013-11-20T08:53:25Z</time>
      </trkpt>
      <trkpt lat="43.25217" lon="5.6497">
        <ele>363.1</ele>
        <time>2013-11-20T08:53:29Z</time>
      </trkpt>
      <trkpt lat="43.25218" lon="5.64965">
        <ele>362.3</ele>
        <time>2013-11-20T08:53:34Z</time>
      </trkpt>
      <trkpt lat="43.25219" lon="5.64959">
        <ele>362.2</ele>
        <time>2013-11-20T08:53:39Z</time>
      </trkpt>
      <trkpt lat="43.25221" lon="5.64956">
        <ele>363.6</ele>
        <time>2013-11-20T08:53:41Z</time>
      </trkpt>
      <trkpt lat="43.25223" lon="5.64951">
        <ele>365.3</ele>
        <time>2013-11-20T08:53:44Z</time>
      </trkpt>
      <trkpt lat="43.25225" lon="5.64947">
        <ele>366.2</ele>
        <time>2013-11-20T08:53:47Z</time>
      </trkpt>
      <trkpt lat="43.25227" lon="5.64942">
        <ele>366.6</ele>
        <time>2013-11-20T08:53:51Z</time>
      </trkpt>
      <trkpt lat="43.25228" lon="5.64937">
        <ele>366.7</ele>
        <time>2013-11-20T08:53:55Z</time>
      </trkpt>
      <trkpt lat="43.25229" lon="5.64932">
        <ele>366.7</ele>
        <time>2013-11-20T08:53:59Z</time>
      </trkpt>
      <trkpt lat="43.25231" lon="5.64927">
        <ele>367.1</ele>
        <time>2013-11-20T08:54:03Z</time>
      </trkpt>
      <trkpt lat="43.25231" lon="5.64921">
        <ele>367.1</ele>
        <time>2013-11-20T08:54:07Z</time>
      </trkpt>
      <trkpt lat="43.25232" lon="5.64916">
        <ele>367.3</ele>
        <time>2013-11-20T08:54:11Z</time>
      </trkpt>
      <trkpt lat="43.25233" lon="5.6491">
        <ele>368.2</ele>
        <time>2013-11-20T08:54:15Z</time>
      </trkpt>
      <trkpt lat="43.25233" lon="5.64909">
        <ele>368.5</ele>
        <time>2013-11-20T08:54:16Z</time>
      </trkpt>
      <trkpt lat="43.25234" lon="5.649">
        <ele>369</ele>
        <time>2013-11-20T08:54:23Z</time>
      </trkpt>
      <trkpt lat="43.25234" lon="5.64895">
        <ele>369.2</ele>
        <time>2013-11-20T08:54:27Z</time>
      </trkpt>
      <trkpt lat="43.25234" lon="5.6489">
        <ele>369.7</ele>
        <time>2013-11-20T08:54:31Z</time>
      </trkpt>
      <trkpt lat="43.25235" lon="5.64885">
        <ele>370.1</ele>
        <time>2013-11-20T08:54:35Z</time>
      </trkpt>
      <trkpt lat="43.25236" lon="5.64879">
        <ele>370.7</ele>
        <time>2013-11-20T08:54:39Z</time>
      </trkpt>
      <trkpt lat="43.25236" lon="5.64874">
        <ele>370.8</ele>
        <time>2013-11-20T08:54:43Z</time>
      </trkpt>
      <trkpt lat="43.25236" lon="5.64869">
        <ele>371.3</ele>
        <time>2013-11-20T08:54:47Z</time>
      </trkpt>
      <trkpt lat="43.25237" lon="5.64864">
        <ele>371.5</ele>
        <time>2013-11-20T08:54:51Z</time>
      </trkpt>
      <trkpt lat="43.25237" lon="5.64859">
        <ele>371.3</ele>
        <time>2013-11-20T08:54:55Z</time>
      </trkpt>
      <trkpt lat="43.25238" lon="5.64853">
        <ele>372.2</ele>
        <time>2013-11-20T08:54:59Z</time>
      </trkpt>
      <trkpt lat="43.25237" lon="5.64847">
        <ele>372.7</ele>
        <time>2013-11-20T08:55:03Z</time>
      </trkpt>
      <trkpt lat="43.25237" lon="5.64842">
        <ele>372.7</ele>
        <time>2013-11-20T08:55:07Z</time>
      </trkpt>
      <trkpt lat="43.25237" lon="5.64836">
        <ele>372.2</ele>
        <time>2013-11-20T08:55:11Z</time>
      </trkpt>
      <trkpt lat="43.25236" lon="5.64831">
        <ele>371.6</ele>
        <time>2013-11-20T08:55:16Z</time>
      </trkpt>
      <trkpt lat="43.25236" lon="5.6483">
        <ele>371.6</ele>
        <time>2013-11-20T08:55:17Z</time>
      </trkpt>
      <trkpt lat="43.25235" lon="5.64819">
        <ele>372.6</ele>
        <time>2013-11-20T08:55:24Z</time>
      </trkpt>
      <trkpt lat="43.25235" lon="5.64814">
        <ele>371.7</ele>
        <time>2013-11-20T08:55:28Z</time>
      </trkpt>
      <trkpt lat="43.25234" lon="5.64809">
        <ele>371.1</ele>
        <time>2013-11-20T08:55:32Z</time>
      </trkpt>
      <trkpt lat="43.25233" lon="5.64804">
        <ele>370.1</ele>
        <time>2013-11-20T08:55:36Z</time>
      </trkpt>
      <trkpt lat="43.25232" lon="5.64799">
        <ele>369.2</ele>
        <time>2013-11-20T08:55:40Z</time>
      </trkpt>
      <trkpt lat="43.25232" lon="5.64793">
        <ele>368.7</ele>
        <time>2013-11-20T08:55:44Z</time>
      </trkpt>
      <trkpt lat="43.25231" lon="5.64788">
        <ele>368.3</ele>
        <time>2013-11-20T08:55:48Z</time>
      </trkpt>
      <trkpt lat="43.25231" lon="5.64783">
        <ele>369.5</ele>
        <time>2013-11-20T08:55:51Z</time>
      </trkpt>
      <trkpt lat="43.25232" lon="5.64778">
        <ele>370.5</ele>
        <time>2013-11-20T08:55:54Z</time>
      </trkpt>
      <trkpt lat="43.25231" lon="5.64772">
        <ele>372.2</ele>
        <time>2013-11-20T08:55:56Z</time>
      </trkpt>
      <trkpt lat="43.25231" lon="5.64768">
        <ele>371.8</ele>
        <time>2013-11-20T08:55:59Z</time>
      </trkpt>
      <trkpt lat="43.25232" lon="5.64763">
        <ele>372.8</ele>
        <time>2013-11-20T08:56:02Z</time>
      </trkpt>
      <trkpt lat="43.25231" lon="5.64757">
        <ele>373.2</ele>
        <time>2013-11-20T08:56:06Z</time>
      </trkpt>
      <trkpt lat="43.25231" lon="5.64751">
        <ele>373.2</ele>
        <time>2013-11-20T08:56:10Z</time>
      </trkpt>
      <trkpt lat="43.2523" lon="5.64745">
        <ele>373</ele>
        <time>2013-11-20T08:56:15Z</time>
      </trkpt>
      <trkpt lat="43.2523" lon="5.6474">
        <ele>374</ele>
        <time>2013-11-20T08:56:19Z</time>
      </trkpt>
      <trkpt lat="43.2523" lon="5.64738">
        <ele>374.2</ele>
        <time>2013-11-20T08:56:20Z</time>
      </trkpt>
      <trkpt lat="43.25231" lon="5.64729">
        <ele>375.5</ele>
        <time>2013-11-20T08:56:27Z</time>
      </trkpt>
      <trkpt lat="43.25231" lon="5.64724">
        <ele>376</ele>
        <time>2013-11-20T08:56:30Z</time>
      </trkpt>
      <trkpt lat="43.2523" lon="5.64719">
        <ele>377.1</ele>
        <time>2013-11-20T08:56:33Z</time>
      </trkpt>
      <trkpt lat="43.2523" lon="5.64713">
        <ele>377.7</ele>
        <time>2013-11-20T08:56:37Z</time>
      </trkpt>
      <trkpt lat="43.25229" lon="5.64707">
        <ele>378.2</ele>
        <time>2013-11-20T08:56:41Z</time>
      </trkpt>
      <trkpt lat="43.25228" lon="5.64703">
        <ele>378.7</ele>
        <time>2013-11-20T08:56:44Z</time>
      </trkpt>
      <trkpt lat="43.25227" lon="5.64697">
        <ele>378.8</ele>
        <time>2013-11-20T08:56:48Z</time>
      </trkpt>
      <trkpt lat="43.25227" lon="5.64692">
        <ele>378.7</ele>
        <time>2013-11-20T08:56:53Z</time>
      </trkpt>
      <trkpt lat="43.25227" lon="5.64686">
        <ele>378.6</ele>
        <time>2013-11-20T08:56:58Z</time>
      </trkpt>
      <trkpt lat="43.25226" lon="5.6468">
        <ele>379.5</ele>
        <time>2013-11-20T08:57:01Z</time>
      </trkpt>
      <trkpt lat="43.25225" lon="5.64675">
        <ele>379.8</ele>
        <time>2013-11-20T08:57:05Z</time>
      </trkpt>
      <trkpt lat="43.25224" lon="5.64671">
        <ele>379.2</ele>
        <time>2013-11-20T08:57:08Z</time>
      </trkpt>
      <trkpt lat="43.25223" lon="5.64665">
        <ele>377.6</ele>
        <time>2013-11-20T08:57:14Z</time>
      </trkpt>
      <trkpt lat="43.25222" lon="5.6466">
        <ele>379.3</ele>
        <time>2013-11-20T08:57:19Z</time>
      </trkpt>
      <trkpt lat="43.25221" lon="5.64654">
        <ele>379.2</ele>
        <time>2013-11-20T08:57:24Z</time>
      </trkpt>
      <trkpt lat="43.25222" lon="5.64653">
        <ele>379.3</ele>
        <time>2013-11-20T08:57:25Z</time>
      </trkpt>
      <trkpt lat="43.25227" lon="5.64652">
        <ele>383.7</ele>
        <time>2013-11-20T08:58:27Z</time>
      </trkpt>
      <trkpt lat="43.25227" lon="5.64652">
        <ele>383.7</ele>
        <time>2013-11-20T08:58:28Z</time>
      </trkpt>
      <trkpt lat="43.25223" lon="5.64653">
        <ele>379.7</ele>
        <time>2013-11-20T09:00:08Z</time>
      </trkpt>
      <trkpt lat="43.25221" lon="5.64661">
        <ele>400</ele>
        <time>2013-11-20T09:03:32Z</time>
      </trkpt>
      <trkpt lat="43.25222" lon="5.64661">
        <ele>399.8</ele>
        <time>2013-11-20T09:03:33Z</time>
      </trkpt>
      <trkpt lat="43.25222" lon="5.64659">
        <ele>395.3</ele>
        <time>2013-11-20T09:04:31Z</time>
      </trkpt>
      <trkpt lat="43.2522" lon="5.64665">
        <ele>388.8</ele>
        <time>2013-11-20T09:07:52Z</time>
      </trkpt>
      <trkpt lat="43.2522" lon="5.64666">
        <ele>388.2</ele>
        <time>2013-11-20T09:07:53Z</time>
      </trkpt>
      <trkpt lat="43.25222" lon="5.64676">
        <ele>377.8</ele>
        <time>2013-11-20T09:08:07Z</time>
      </trkpt>
      <trkpt lat="43.25223" lon="5.64682">
        <ele>375.3</ele>
        <time>2013-11-20T09:08:13Z</time>
      </trkpt>
      <trkpt lat="43.25224" lon="5.64688">
        <ele>373</ele>
        <time>2013-11-20T09:08:19Z</time>
      </trkpt>
      <trkpt lat="43.25225" lon="5.64693">
        <ele>370.7</ele>
        <time>2013-11-20T09:08:26Z</time>
      </trkpt>
      <trkpt lat="43.25226" lon="5.64699">
        <ele>371.2</ele>
        <time>2013-11-20T09:08:31Z</time>
      </trkpt>
      <trkpt lat="43.25227" lon="5.64704">
        <ele>371.3</ele>
        <time>2013-11-20T09:08:35Z</time>
      </trkpt>
      <trkpt lat="43.25228" lon="5.64709">
        <ele>371.7</ele>
        <time>2013-11-20T09:08:39Z</time>
      </trkpt>
      <trkpt lat="43.25229" lon="5.64714">
        <ele>371.1</ele>
        <time>2013-11-20T09:08:44Z</time>
      </trkpt>
      <trkpt lat="43.25229" lon="5.64719">
        <ele>371.6</ele>
        <time>2013-11-20T09:08:48Z</time>
      </trkpt>
      <trkpt lat="43.25229" lon="5.64725">
        <ele>371.7</ele>
        <time>2013-11-20T09:08:52Z</time>
      </trkpt>
      <trkpt lat="43.2523" lon="5.6473">
        <ele>372.1</ele>
        <time>2013-11-20T09:08:56Z</time>
      </trkpt>
      <trkpt lat="43.2523" lon="5.64731">
        <ele>372.1</ele>
        <time>2013-11-20T09:08:57Z</time>
      </trkpt>
      <trkpt lat="43.2523" lon="5.6474">
        <ele>372.2</ele>
        <time>2013-11-20T09:09:04Z</time>
      </trkpt>
      <trkpt lat="43.25231" lon="5.64746">
        <ele>370.6</ele>
        <time>2013-11-20T09:09:08Z</time>
      </trkpt>
      <trkpt lat="43.25231" lon="5.64751">
        <ele>369.6</ele>
        <time>2013-11-20T09:09:12Z</time>
      </trkpt>
      <trkpt lat="43.25231" lon="5.64757">
        <ele>367.5</ele>
        <time>2013-11-20T09:09:16Z</time>
      </trkpt>
      <trkpt lat="43.25231" lon="5.64762">
        <ele>366.2</ele>
        <time>2013-11-20T09:09:20Z</time>
      </trkpt>
      <trkpt lat="43.25232" lon="5.64768">
        <ele>366</ele>
        <time>2013-11-20T09:09:24Z</time>
      </trkpt>
      <trkpt lat="43.25232" lon="5.64773">
        <ele>365</ele>
        <time>2013-11-20T09:09:28Z</time>
      </trkpt>
      <trkpt lat="43.25232" lon="5.64779">
        <ele>365.7</ele>
        <time>2013-11-20T09:09:32Z</time>
      </trkpt>
      <trkpt lat="43.25233" lon="5.64784">
        <ele>364.8</ele>
        <time>2013-11-20T09:09:36Z</time>
      </trkpt>
      <trkpt lat="43.25233" lon="5.64789">
        <ele>363.3</ele>
        <time>2013-11-20T09:09:40Z</time>
      </trkpt>
      <trkpt lat="43.25234" lon="5.64795">
        <ele>360.7</ele>
        <time>2013-11-20T09:09:45Z</time>
      </trkpt>
      <trkpt lat="43.25234" lon="5.64801">
        <ele>357.8</ele>
        <time>2013-11-20T09:09:50Z</time>
      </trkpt>
      <trkpt lat="43.25234" lon="5.64806">
        <ele>356</ele>
        <time>2013-11-20T09:09:54Z</time>
      </trkpt>
      <trkpt lat="43.25234" lon="5.64812">
        <ele>354</ele>
        <time>2013-11-20T09:09:58Z</time>
      </trkpt>
      <trkpt lat="43.25234" lon="5.64813">
        <ele>353.7</ele>
        <time>2013-11-20T09:09:59Z</time>
      </trkpt>
      <trkpt lat="43.25234" lon="5.64822">
        <ele>351.2</ele>
        <time>2013-11-20T09:10:06Z</time>
      </trkpt>
      <trkpt lat="43.25234" lon="5.64828">
        <ele>354.3</ele>
        <time>2013-11-20T09:10:09Z</time>
      </trkpt>
      <trkpt lat="43.25235" lon="5.64834">
        <ele>358.1</ele>
        <time>2013-11-20T09:10:12Z</time>
      </trkpt>
      <trkpt lat="43.25235" lon="5.6484">
        <ele>358.6</ele>
        <time>2013-11-20T09:10:16Z</time>
      </trkpt>
      <trkpt lat="43.25234" lon="5.64846">
        <ele>357.2</ele>
        <time>2013-11-20T09:10:20Z</time>
      </trkpt>
      <trkpt lat="43.25235" lon="5.64851">
        <ele>359.2</ele>
        <time>2013-11-20T09:10:23Z</time>
      </trkpt>
      <trkpt lat="43.25234" lon="5.64856">
        <ele>358.2</ele>
        <time>2013-11-20T09:10:27Z</time>
      </trkpt>
      <trkpt lat="43.25234" lon="5.64862">
        <ele>357.7</ele>
        <time>2013-11-20T09:10:31Z</time>
      </trkpt>
      <trkpt lat="43.25234" lon="5.64867">
        <ele>356.3</ele>
        <time>2013-11-20T09:10:35Z</time>
      </trkpt>
      <trkpt lat="43.25233" lon="5.64872">
        <ele>356</ele>
        <time>2013-11-20T09:10:38Z</time>
      </trkpt>
      <trkpt lat="43.25233" lon="5.64876">
        <ele>356.7</ele>
        <time>2013-11-20T09:10:41Z</time>
      </trkpt>
      <trkpt lat="43.25232" lon="5.64881">
        <ele>357.7</ele>
        <time>2013-11-20T09:10:44Z</time>
      </trkpt>
      <trkpt lat="43.25232" lon="5.64887">
        <ele>358.5</ele>
        <time>2013-11-20T09:10:48Z</time>
      </trkpt>
      <trkpt lat="43.25232" lon="5.64892">
        <ele>359.7</ele>
        <time>2013-11-20T09:10:51Z</time>
      </trkpt>
      <trkpt lat="43.25231" lon="5.64897">
        <ele>360</ele>
        <time>2013-11-20T09:10:54Z</time>
      </trkpt>
      <trkpt lat="43.25231" lon="5.64903">
        <ele>360.1</ele>
        <time>2013-11-20T09:10:58Z</time>
      </trkpt>
      <trkpt lat="43.25231" lon="5.64908">
        <ele>361.5</ele>
        <time>2013-11-20T09:11:01Z</time>
      </trkpt>
      <trkpt lat="43.25231" lon="5.64909">
        <ele>361.1</ele>
        <time>2013-11-20T09:11:02Z</time>
      </trkpt>
      <trkpt lat="43.2523" lon="5.64918">
        <ele>359.5</ele>
        <time>2013-11-20T09:11:08Z</time>
      </trkpt>
      <trkpt lat="43.25229" lon="5.64923">
        <ele>360.2</ele>
        <time>2013-11-20T09:11:11Z</time>
      </trkpt>
      <trkpt lat="43.25228" lon="5.64927">
        <ele>359</ele>
        <time>2013-11-20T09:11:14Z</time>
      </trkpt>
      <trkpt lat="43.25227" lon="5.64932">
        <ele>358</ele>
        <time>2013-11-20T09:11:17Z</time>
      </trkpt>
      <trkpt lat="43.25226" lon="5.64937">
        <ele>356.3</ele>
        <time>2013-11-20T09:11:21Z</time>
      </trkpt>
      <trkpt lat="43.25225" lon="5.64941">
        <ele>354.2</ele>
        <time>2013-11-20T09:11:24Z</time>
      </trkpt>
      <trkpt lat="43.25224" lon="5.64946">
        <ele>354</ele>
        <time>2013-11-20T09:11:27Z</time>
      </trkpt>
      <trkpt lat="43.25223" lon="5.64951">
        <ele>353.6</ele>
        <time>2013-11-20T09:11:31Z</time>
      </trkpt>
      <trkpt lat="43.25221" lon="5.64957">
        <ele>351.8</ele>
        <time>2013-11-20T09:11:35Z</time>
      </trkpt>
      <trkpt lat="43.2522" lon="5.64963">
        <ele>350.5</ele>
        <time>2013-11-20T09:11:39Z</time>
      </trkpt>
      <trkpt lat="43.25219" lon="5.64969">
        <ele>349</ele>
        <time>2013-11-20T09:11:43Z</time>
      </trkpt>
      <trkpt lat="43.25218" lon="5.64974">
        <ele>347</ele>
        <time>2013-11-20T09:11:47Z</time>
      </trkpt>
      <trkpt lat="43.25217" lon="5.64978">
        <ele>345.7</ele>
        <time>2013-11-20T09:11:50Z</time>
      </trkpt>
      <trkpt lat="43.25217" lon="5.64983">
        <ele>349.6</ele>
        <time>2013-11-20T09:11:52Z</time>
      </trkpt>
      <trkpt lat="43.25216" lon="5.64987">
        <ele>352.2</ele>
        <time>2013-11-20T09:11:54Z</time>
      </trkpt>
      <trkpt lat="43.25215" lon="5.64993">
        <ele>351.7</ele>
        <time>2013-11-20T09:11:58Z</time>
      </trkpt>
      <trkpt lat="43.25214" lon="5.64998">
        <ele>352.3</ele>
        <time>2013-11-20T09:12:01Z</time>
      </trkpt>
      <trkpt lat="43.25213" lon="5.65002">
        <ele>353.2</ele>
        <time>2013-11-20T09:12:04Z</time>
      </trkpt>
      <trkpt lat="43.25212" lon="5.65004">
        <ele>353.7</ele>
        <time>2013-11-20T09:12:05Z</time>
      </trkpt>
      <trkpt lat="43.2521" lon="5.65012">
        <ele>353.2</ele>
        <time>2013-11-20T09:12:11Z</time>
      </trkpt>
      <trkpt lat="43.25208" lon="5.65017">
        <ele>352.7</ele>
        <time>2013-11-20T09:12:14Z</time>
      </trkpt>
      <trkpt lat="43.25207" lon="5.65021">
        <ele>352.2</ele>
        <time>2013-11-20T09:12:17Z</time>
      </trkpt>
      <trkpt lat="43.25206" lon="5.65027">
        <ele>352.7</ele>
        <time>2013-11-20T09:12:20Z</time>
      </trkpt>
      <trkpt lat="43.25204" lon="5.65032">
        <ele>353.2</ele>
        <time>2013-11-20T09:12:24Z</time>
      </trkpt>
      <trkpt lat="43.25202" lon="5.65038">
        <ele>352.7</ele>
        <time>2013-11-20T09:12:28Z</time>
      </trkpt>
      <trkpt lat="43.25201" lon="5.65043">
        <ele>352.8</ele>
        <time>2013-11-20T09:12:32Z</time>
      </trkpt>
      <trkpt lat="43.25199" lon="5.65048">
        <ele>353.7</ele>
        <time>2013-11-20T09:12:36Z</time>
      </trkpt>
      <trkpt lat="43.25198" lon="5.65053">
        <ele>354.1</ele>
        <time>2013-11-20T09:12:39Z</time>
      </trkpt>
      <trkpt lat="43.25196" lon="5.65057">
        <ele>353.5</ele>
        <time>2013-11-20T09:12:42Z</time>
      </trkpt>
      <trkpt lat="43.25194" lon="5.65062">
        <ele>353.5</ele>
        <time>2013-11-20T09:12:46Z</time>
      </trkpt>
      <trkpt lat="43.25193" lon="5.65068">
        <ele>354.7</ele>
        <time>2013-11-20T09:12:50Z</time>
      </trkpt>
      <trkpt lat="43.25192" lon="5.65073">
        <ele>355.5</ele>
        <time>2013-11-20T09:12:54Z</time>
      </trkpt>
      <trkpt lat="43.2519" lon="5.65078">
        <ele>354.2</ele>
        <time>2013-11-20T09:12:58Z</time>
      </trkpt>
      <trkpt lat="43.25189" lon="5.65082">
        <ele>353.3</ele>
        <time>2013-11-20T09:13:01Z</time>
      </trkpt>
      <trkpt lat="43.25188" lon="5.65087">
        <ele>353.8</ele>
        <time>2013-11-20T09:13:04Z</time>
      </trkpt>
      <trkpt lat="43.25187" lon="5.65093">
        <ele>355.1</ele>
        <time>2013-11-20T09:13:08Z</time>
      </trkpt>
      <trkpt lat="43.25186" lon="5.65094">
        <ele>354.8</ele>
        <time>2013-11-20T09:13:09Z</time>
      </trkpt>
      <trkpt lat="43.25183" lon="5.65103">
        <ele>351.7</ele>
        <time>2013-11-20T09:13:16Z</time>
      </trkpt>
      <trkpt lat="43.25182" lon="5.65108">
        <ele>349.5</ele>
        <time>2013-11-20T09:13:20Z</time>
      </trkpt>
      <trkpt lat="43.25179" lon="5.65113">
        <ele>348</ele>
        <time>2013-11-20T09:13:24Z</time>
      </trkpt>
      <trkpt lat="43.25177" lon="5.65116">
        <ele>345.7</ele>
        <time>2013-11-20T09:13:27Z</time>
      </trkpt>
      <trkpt lat="43.25174" lon="5.6512">
        <ele>344.2</ele>
        <time>2013-11-20T09:13:30Z</time>
      </trkpt>
      <trkpt lat="43.25171" lon="5.65124">
        <ele>343.3</ele>
        <time>2013-11-20T09:13:34Z</time>
      </trkpt>
      <trkpt lat="43.25168" lon="5.65126">
        <ele>341.5</ele>
        <time>2013-11-20T09:13:38Z</time>
      </trkpt>
      <trkpt lat="43.25165" lon="5.65129">
        <ele>340.8</ele>
        <time>2013-11-20T09:13:41Z</time>
      </trkpt>
      <trkpt lat="43.25162" lon="5.65132">
        <ele>340.6</ele>
        <time>2013-11-20T09:13:44Z</time>
      </trkpt>
      <trkpt lat="43.25159" lon="5.65135">
        <ele>339</ele>
        <time>2013-11-20T09:13:48Z</time>
      </trkpt>
      <trkpt lat="43.25155" lon="5.65137">
        <ele>336.3</ele>
        <time>2013-11-20T09:13:52Z</time>
      </trkpt>
      <trkpt lat="43.25151" lon="5.65138">
        <ele>334.6</ele>
        <time>2013-11-20T09:13:56Z</time>
      </trkpt>
      <trkpt lat="43.25147" lon="5.65139">
        <ele>335.2</ele>
        <time>2013-11-20T09:14:00Z</time>
      </trkpt>
      <trkpt lat="43.25143" lon="5.65141">
        <ele>333.8</ele>
        <time>2013-11-20T09:14:04Z</time>
      </trkpt>
      <trkpt lat="43.25139" lon="5.65142">
        <ele>333.7</ele>
        <time>2013-11-20T09:14:08Z</time>
      </trkpt>
      <trkpt lat="43.25135" lon="5.65145">
        <ele>333.2</ele>
        <time>2013-11-20T09:14:12Z</time>
      </trkpt>
      <trkpt lat="43.25134" lon="5.65145">
        <ele>333.5</ele>
        <time>2013-11-20T09:14:13Z</time>
      </trkpt>
      <trkpt lat="43.25128" lon="5.6515">
        <ele>334.7</ele>
        <time>2013-11-20T09:14:20Z</time>
      </trkpt>
      <trkpt lat="43.25126" lon="5.65154">
        <ele>332.1</ele>
        <time>2013-11-20T09:14:24Z</time>
      </trkpt>
      <trkpt lat="43.25125" lon="5.65159">
        <ele>332.6</ele>
        <time>2013-11-20T09:14:28Z</time>
      </trkpt>
      <trkpt lat="43.25125" lon="5.65165">
        <ele>332.6</ele>
        <time>2013-11-20T09:14:32Z</time>
      </trkpt>
      <trkpt lat="43.25127" lon="5.6517">
        <ele>332.7</ele>
        <time>2013-11-20T09:14:36Z</time>
      </trkpt>
      <trkpt lat="43.25129" lon="5.65175">
        <ele>332.2</ele>
        <time>2013-11-20T09:14:40Z</time>
      </trkpt>
      <trkpt lat="43.25131" lon="5.6518">
        <ele>332.5</ele>
        <time>2013-11-20T09:14:44Z</time>
      </trkpt>
      <trkpt lat="43.25134" lon="5.65183">
        <ele>334.6</ele>
        <time>2013-11-20T09:14:47Z</time>
      </trkpt>
      <trkpt lat="43.25138" lon="5.65186">
        <ele>336.7</ele>
        <time>2013-11-20T09:14:51Z</time>
      </trkpt>
      <trkpt lat="43.25141" lon="5.65188">
        <ele>339.5</ele>
        <time>2013-11-20T09:14:54Z</time>
      </trkpt>
      <trkpt lat="43.25145" lon="5.6519">
        <ele>342.7</ele>
        <time>2013-11-20T09:14:58Z</time>
      </trkpt>
      <trkpt lat="43.25149" lon="5.65192">
        <ele>343.7</ele>
        <time>2013-11-20T09:15:02Z</time>
      </trkpt>
      <trkpt lat="43.25152" lon="5.65195">
        <ele>348.8</ele>
        <time>2013-11-20T09:15:06Z</time>
      </trkpt>
      <trkpt lat="43.25155" lon="5.65198">
        <ele>353.5</ele>
        <time>2013-11-20T09:15:10Z</time>
      </trkpt>
      <trkpt lat="43.25158" lon="5.65199">
        <ele>354.7</ele>
        <time>2013-11-20T09:15:12Z</time>
      </trkpt>
      <trkpt lat="43.25161" lon="5.65201">
        <ele>356.6</ele>
        <time>2013-11-20T09:15:15Z</time>
      </trkpt>
      <trkpt lat="43.25162" lon="5.65201">
        <ele>357.2</ele>
        <time>2013-11-20T09:15:16Z</time>
      </trkpt>
      <trkpt lat="43.25168" lon="5.65205">
        <ele>357.6</ele>
        <time>2013-11-20T09:15:23Z</time>
      </trkpt>
      <trkpt lat="43.25172" lon="5.65207">
        <ele>357.8</ele>
        <time>2013-11-20T09:15:27Z</time>
      </trkpt>
      <trkpt lat="43.25176" lon="5.65208">
        <ele>356.7</ele>
        <time>2013-11-20T09:15:31Z</time>
      </trkpt>
      <trkpt lat="43.2518" lon="5.6521">
        <ele>355.7</ele>
        <time>2013-11-20T09:15:36Z</time>
      </trkpt>
      <trkpt lat="43.25183" lon="5.65211">
        <ele>356.1</ele>
        <time>2013-11-20T09:15:40Z</time>
      </trkpt>
      <trkpt lat="43.25188" lon="5.65213">
        <ele>356.6</ele>
        <time>2013-11-20T09:15:45Z</time>
      </trkpt>
      <trkpt lat="43.25192" lon="5.65215">
        <ele>356.7</ele>
        <time>2013-11-20T09:15:49Z</time>
      </trkpt>
      <trkpt lat="43.25195" lon="5.65217">
        <ele>356.8</ele>
        <time>2013-11-20T09:15:52Z</time>
      </trkpt>
      <trkpt lat="43.25199" lon="5.65218">
        <ele>357.2</ele>
        <time>2013-11-20T09:15:56Z</time>
      </trkpt>
      <trkpt lat="43.25202" lon="5.65219">
        <ele>357.6</ele>
        <time>2013-11-20T09:15:58Z</time>
      </trkpt>
      <trkpt lat="43.25204" lon="5.65219">
        <ele>358.2</ele>
        <time>2013-11-20T09:15:59Z</time>
      </trkpt>
      <trkpt lat="43.25208" lon="5.6522">
        <ele>359.6</ele>
        <time>2013-11-20T09:16:01Z</time>
      </trkpt>
      <trkpt lat="43.25211" lon="5.65221">
        <ele>359.3</ele>
        <time>2013-11-20T09:16:04Z</time>
      </trkpt>
      <trkpt lat="43.25215" lon="5.65222">
        <ele>359.1</ele>
        <time>2013-11-20T09:16:07Z</time>
      </trkpt>
      <trkpt lat="43.25219" lon="5.65224">
        <ele>359.2</ele>
        <time>2013-11-20T09:16:11Z</time>
      </trkpt>
      <trkpt lat="43.25222" lon="5.65225">
        <ele>359.6</ele>
        <time>2013-11-20T09:16:14Z</time>
      </trkpt>
      <trkpt lat="43.25227" lon="5.65227">
        <ele>360</ele>
        <time>2013-11-20T09:16:18Z</time>
      </trkpt>
      <trkpt lat="43.25228" lon="5.65227">
        <ele>360.2</ele>
        <time>2013-11-20T09:16:19Z</time>
      </trkpt>
      <trkpt lat="43.25234" lon="5.65228">
        <ele>361.7</ele>
        <time>2013-11-20T09:16:22Z</time>
      </trkpt>
      <trkpt lat="43.25238" lon="5.65229">
        <ele>362.3</ele>
        <time>2013-11-20T09:16:25Z</time>
      </trkpt>
      <trkpt lat="43.25242" lon="5.6523">
        <ele>363</ele>
        <time>2013-11-20T09:16:28Z</time>
      </trkpt>
      <trkpt lat="43.25246" lon="5.65231">
        <ele>363.3</ele>
        <time>2013-11-20T09:16:31Z</time>
      </trkpt>
      <trkpt lat="43.25249" lon="5.65231">
        <ele>363.1</ele>
        <time>2013-11-20T09:16:34Z</time>
      </trkpt>
      <trkpt lat="43.25253" lon="5.65232">
        <ele>362.8</ele>
        <time>2013-11-20T09:16:37Z</time>
      </trkpt>
      <trkpt lat="43.25257" lon="5.65232">
        <ele>362.7</ele>
        <time>2013-11-20T09:16:40Z</time>
      </trkpt>
      <trkpt lat="43.2526" lon="5.65233">
        <ele>363</ele>
        <time>2013-11-20T09:16:43Z</time>
      </trkpt>
      <trkpt lat="43.25264" lon="5.65233">
        <ele>363.2</ele>
        <time>2013-11-20T09:16:46Z</time>
      </trkpt>
      <trkpt lat="43.25267" lon="5.65234">
        <ele>363.2</ele>
        <time>2013-11-20T09:16:49Z</time>
      </trkpt>
      <trkpt lat="43.25271" lon="5.65235">
        <ele>363.7</ele>
        <time>2013-11-20T09:16:52Z</time>
      </trkpt>
      <trkpt lat="43.25274" lon="5.65235">
        <ele>363.7</ele>
        <time>2013-11-20T09:16:55Z</time>
      </trkpt>
      <trkpt lat="43.25278" lon="5.65236">
        <ele>364</ele>
        <time>2013-11-20T09:16:58Z</time>
      </trkpt>
      <trkpt lat="43.25282" lon="5.65238">
        <ele>364.2</ele>
        <time>2013-11-20T09:17:02Z</time>
      </trkpt>
      <trkpt lat="43.25286" lon="5.65239">
        <ele>364.2</ele>
        <time>2013-11-20T09:17:06Z</time>
      </trkpt>
      <trkpt lat="43.25291" lon="5.6524">
        <ele>364.2</ele>
        <time>2013-11-20T09:17:10Z</time>
      </trkpt>
      <trkpt lat="43.25295" lon="5.65242">
        <ele>364</ele>
        <time>2013-11-20T09:17:14Z</time>
      </trkpt>
      <trkpt lat="43.25299" lon="5.65243">
        <ele>364</ele>
        <time>2013-11-20T09:17:18Z</time>
      </trkpt>
      <trkpt lat="43.25302" lon="5.65245">
        <ele>363.3</ele>
        <time>2013-11-20T09:17:23Z</time>
      </trkpt>
      <trkpt lat="43.25304" lon="5.65246">
        <ele>363.2</ele>
        <time>2013-11-20T09:17:24Z</time>
      </trkpt>
      <trkpt lat="43.25309" lon="5.65248">
        <ele>363.2</ele>
        <time>2013-11-20T09:17:29Z</time>
      </trkpt>
      <trkpt lat="43.25312" lon="5.6525">
        <ele>363.7</ele>
        <time>2013-11-20T09:17:32Z</time>
      </trkpt>
      <trkpt lat="43.25317" lon="5.65252">
        <ele>363.5</ele>
        <time>2013-11-20T09:17:36Z</time>
      </trkpt>
      <trkpt lat="43.2532" lon="5.65254">
        <ele>363.5</ele>
        <time>2013-11-20T09:17:40Z</time>
      </trkpt>
      <trkpt lat="43.25323" lon="5.65256">
        <ele>363.7</ele>
        <time>2013-11-20T09:17:43Z</time>
      </trkpt>
      <trkpt lat="43.25327" lon="5.65259">
        <ele>363.6</ele>
        <time>2013-11-20T09:17:47Z</time>
      </trkpt>
      <trkpt lat="43.25331" lon="5.65261">
        <ele>364.2</ele>
        <time>2013-11-20T09:17:50Z</time>
      </trkpt>
      <trkpt lat="43.25335" lon="5.65263">
        <ele>364.7</ele>
        <time>2013-11-20T09:17:54Z</time>
      </trkpt>
      <trkpt lat="43.25339" lon="5.65266">
        <ele>365</ele>
        <time>2013-11-20T09:17:58Z</time>
      </trkpt>
      <trkpt lat="43.25342" lon="5.65268">
        <ele>365.1</ele>
        <time>2013-11-20T09:18:02Z</time>
      </trkpt>
      <trkpt lat="43.25347" lon="5.6527">
        <ele>365.7</ele>
        <time>2013-11-20T09:18:06Z</time>
      </trkpt>
      <trkpt lat="43.2535" lon="5.65272">
        <ele>366</ele>
        <time>2013-11-20T09:18:10Z</time>
      </trkpt>
      <trkpt lat="43.25354" lon="5.65275">
        <ele>366.1</ele>
        <time>2013-11-20T09:18:15Z</time>
      </trkpt>
      <trkpt lat="43.25358" lon="5.65278">
        <ele>364.7</ele>
        <time>2013-11-20T09:18:19Z</time>
      </trkpt>
      <trkpt lat="43.25361" lon="5.65281">
        <ele>364.2</ele>
        <time>2013-11-20T09:18:23Z</time>
      </trkpt>
      <trkpt lat="43.25364" lon="5.65285">
        <ele>363.1</ele>
        <time>2013-11-20T09:18:29Z</time>
      </trkpt>
      <trkpt lat="43.25364" lon="5.65285">
        <ele>362.6</ele>
        <time>2013-11-20T09:18:30Z</time>
      </trkpt>
      <trkpt lat="43.2537" lon="5.65291">
        <ele>362.7</ele>
        <time>2013-11-20T09:18:38Z</time>
      </trkpt>
      <trkpt lat="43.25374" lon="5.65295">
        <ele>363.6</ele>
        <time>2013-11-20T09:18:42Z</time>
      </trkpt>
      <trkpt lat="43.25377" lon="5.65298">
        <ele>363.5</ele>
        <time>2013-11-20T09:18:47Z</time>
      </trkpt>
      <trkpt lat="43.2538" lon="5.653">
        <ele>364</ele>
        <time>2013-11-20T09:18:49Z</time>
      </trkpt>
      <trkpt lat="43.25384" lon="5.65302">
        <ele>365</ele>
        <time>2013-11-20T09:18:52Z</time>
      </trkpt>
      <trkpt lat="43.25387" lon="5.65305">
        <ele>365.1</ele>
        <time>2013-11-20T09:18:55Z</time>
      </trkpt>
      <trkpt lat="43.2539" lon="5.65307">
        <ele>365.5</ele>
        <time>2013-11-20T09:18:58Z</time>
      </trkpt>
      <trkpt lat="43.25394" lon="5.6531">
        <ele>365.7</ele>
        <time>2013-11-20T09:19:02Z</time>
      </trkpt>
      <trkpt lat="43.25397" lon="5.65314">
        <ele>365.5</ele>
        <time>2013-11-20T09:19:07Z</time>
      </trkpt>
      <trkpt lat="43.254" lon="5.65318">
        <ele>365</ele>
        <time>2013-11-20T09:19:13Z</time>
      </trkpt>
      <trkpt lat="43.25403" lon="5.65323">
        <ele>364.3</ele>
        <time>2013-11-20T09:19:18Z</time>
      </trkpt>
      <trkpt lat="43.25406" lon="5.65326">
        <ele>364.8</ele>
        <time>2013-11-20T09:19:22Z</time>
      </trkpt>
      <trkpt lat="43.25409" lon="5.65328">
        <ele>366.1</ele>
        <time>2013-11-20T09:19:24Z</time>
      </trkpt>
      <trkpt lat="43.25413" lon="5.65332">
        <ele>367.5</ele>
        <time>2013-11-20T09:19:27Z</time>
      </trkpt>
      <trkpt lat="43.25416" lon="5.65336">
        <ele>367.1</ele>
        <time>2013-11-20T09:19:31Z</time>
      </trkpt>
      <trkpt lat="43.25416" lon="5.65337">
        <ele>367</ele>
        <time>2013-11-20T09:19:32Z</time>
      </trkpt>
      <trkpt lat="43.25421" lon="5.65345">
        <ele>368.3</ele>
        <time>2013-11-20T09:19:39Z</time>
      </trkpt>
      <trkpt lat="43.25424" lon="5.65349">
        <ele>369</ele>
        <time>2013-11-20T09:19:43Z</time>
      </trkpt>
      <trkpt lat="43.25426" lon="5.65353">
        <ele>369.1</ele>
        <time>2013-11-20T09:19:46Z</time>
      </trkpt>
      <trkpt lat="43.25429" lon="5.65356">
        <ele>368.3</ele>
        <time>2013-11-20T09:19:50Z</time>
      </trkpt>
      <trkpt lat="43.25432" lon="5.65359">
        <ele>368.7</ele>
        <time>2013-11-20T09:19:53Z</time>
      </trkpt>
      <trkpt lat="43.25435" lon="5.65364">
        <ele>369</ele>
        <time>2013-11-20T09:19:57Z</time>
      </trkpt>
      <trkpt lat="43.25438" lon="5.65367">
        <ele>369.2</ele>
        <time>2013-11-20T09:20:01Z</time>
      </trkpt>
      <trkpt lat="43.25441" lon="5.65371">
        <ele>370</ele>
        <time>2013-11-20T09:20:04Z</time>
      </trkpt>
      <trkpt lat="43.25444" lon="5.65374">
        <ele>370.2</ele>
        <time>2013-11-20T09:20:08Z</time>
      </trkpt>
      <trkpt lat="43.25447" lon="5.65378">
        <ele>370.2</ele>
        <time>2013-11-20T09:20:12Z</time>
      </trkpt>
      <trkpt lat="43.25451" lon="5.65382">
        <ele>370.8</ele>
        <time>2013-11-20T09:20:16Z</time>
      </trkpt>
      <trkpt lat="43.25454" lon="5.65384">
        <ele>371.2</ele>
        <time>2013-11-20T09:20:19Z</time>
      </trkpt>
      <trkpt lat="43.25457" lon="5.65388">
        <ele>371.3</ele>
        <time>2013-11-20T09:20:23Z</time>
      </trkpt>
      <trkpt lat="43.25461" lon="5.65391">
        <ele>372.2</ele>
        <time>2013-11-20T09:20:27Z</time>
      </trkpt>
      <trkpt lat="43.25464" lon="5.65395">
        <ele>372.3</ele>
        <time>2013-11-20T09:20:30Z</time>
      </trkpt>
      <trkpt lat="43.25467" lon="5.65397">
        <ele>373.2</ele>
        <time>2013-11-20T09:20:33Z</time>
      </trkpt>
      <trkpt lat="43.25468" lon="5.65398">
        <ele>373.2</ele>
        <time>2013-11-20T09:20:34Z</time>
      </trkpt>
      <trkpt lat="43.25472" lon="5.65404">
        <ele>373.8</ele>
        <time>2013-11-20T09:20:40Z</time>
      </trkpt>
      <trkpt lat="43.25475" lon="5.65409">
        <ele>373.7</ele>
        <time>2013-11-20T09:20:44Z</time>
      </trkpt>
      <trkpt lat="43.25478" lon="5.65412">
        <ele>373.8</ele>
        <time>2013-11-20T09:20:47Z</time>
      </trkpt>
      <trkpt lat="43.2548" lon="5.65416">
        <ele>373.7</ele>
        <time>2013-11-20T09:20:50Z</time>
      </trkpt>
      <trkpt lat="43.25483" lon="5.6542">
        <ele>373.3</ele>
        <time>2013-11-20T09:20:54Z</time>
      </trkpt>
      <trkpt lat="43.25485" lon="5.65425">
        <ele>372.6</ele>
        <time>2013-11-20T09:20:58Z</time>
      </trkpt>
      <trkpt lat="43.25488" lon="5.6543">
        <ele>373</ele>
        <time>2013-11-20T09:21:02Z</time>
      </trkpt>
      <trkpt lat="43.2549" lon="5.65434">
        <ele>373.8</ele>
        <time>2013-11-20T09:21:05Z</time>
      </trkpt>
      <trkpt lat="43.25492" lon="5.6544">
        <ele>375.1</ele>
        <time>2013-11-20T09:21:09Z</time>
      </trkpt>
      <trkpt lat="43.25494" lon="5.65444">
        <ele>375.5</ele>
        <time>2013-11-20T09:21:13Z</time>
      </trkpt>
      <trkpt lat="43.25496" lon="5.65449">
        <ele>377.5</ele>
        <time>2013-11-20T09:21:17Z</time>
      </trkpt>
      <trkpt lat="43.25497" lon="5.65454">
        <ele>377.6</ele>
        <time>2013-11-20T09:21:21Z</time>
      </trkpt>
      <trkpt lat="43.25499" lon="5.65459">
        <ele>376.2</ele>
        <time>2013-11-20T09:21:25Z</time>
      </trkpt>
      <trkpt lat="43.255" lon="5.65464">
        <ele>375.1</ele>
        <time>2013-11-20T09:21:29Z</time>
      </trkpt>
      <trkpt lat="43.25501" lon="5.65469">
        <ele>375.3</ele>
        <time>2013-11-20T09:21:32Z</time>
      </trkpt>
      <trkpt lat="43.25503" lon="5.65474">
        <ele>375.7</ele>
        <time>2013-11-20T09:21:36Z</time>
      </trkpt>
      <trkpt lat="43.25503" lon="5.65476">
        <ele>375.5</ele>
        <time>2013-11-20T09:21:37Z</time>
      </trkpt>
      <trkpt lat="43.25506" lon="5.65485">
        <ele>375.5</ele>
        <time>2013-11-20T09:21:44Z</time>
      </trkpt>
      <trkpt lat="43.25508" lon="5.6549">
        <ele>374.7</ele>
        <time>2013-11-20T09:21:48Z</time>
      </trkpt>
      <trkpt lat="43.2551" lon="5.65494">
        <ele>374.2</ele>
        <time>2013-11-20T09:21:51Z</time>
      </trkpt>
      <trkpt lat="43.25512" lon="5.65499">
        <ele>374.6</ele>
        <time>2013-11-20T09:21:55Z</time>
      </trkpt>
      <trkpt lat="43.25514" lon="5.65504">
        <ele>373.5</ele>
        <time>2013-11-20T09:21:59Z</time>
      </trkpt>
      <trkpt lat="43.25515" lon="5.65509">
        <ele>372</ele>
        <time>2013-11-20T09:22:02Z</time>
      </trkpt>
      <trkpt lat="43.25516" lon="5.65514">
        <ele>372.6</ele>
        <time>2013-11-20T09:22:06Z</time>
      </trkpt>
      <trkpt lat="43.25517" lon="5.65519">
        <ele>372.7</ele>
        <time>2013-11-20T09:22:09Z</time>
      </trkpt>
      <trkpt lat="43.25518" lon="5.65524">
        <ele>374.8</ele>
        <time>2013-11-20T09:22:12Z</time>
      </trkpt>
      <trkpt lat="43.25517" lon="5.65529">
        <ele>374.8</ele>
        <time>2013-11-20T09:22:15Z</time>
      </trkpt>
      <trkpt lat="43.25517" lon="5.65534">
        <ele>374</ele>
        <time>2013-11-20T09:22:18Z</time>
      </trkpt>
      <trkpt lat="43.25518" lon="5.65539">
        <ele>373.3</ele>
        <time>2013-11-20T09:22:21Z</time>
      </trkpt>
      <trkpt lat="43.25518" lon="5.65544">
        <ele>371.7</ele>
        <time>2013-11-20T09:22:24Z</time>
      </trkpt>
      <trkpt lat="43.25518" lon="5.65549">
        <ele>371.7</ele>
        <time>2013-11-20T09:22:27Z</time>
      </trkpt>
      <trkpt lat="43.25519" lon="5.65554">
        <ele>371.1</ele>
        <time>2013-11-20T09:22:31Z</time>
      </trkpt>
      <trkpt lat="43.2552" lon="5.65559">
        <ele>372.1</ele>
        <time>2013-11-20T09:22:34Z</time>
      </trkpt>
      <trkpt lat="43.25521" lon="5.65564">
        <ele>371.6</ele>
        <time>2013-11-20T09:22:38Z</time>
      </trkpt>
      <trkpt lat="43.25522" lon="5.65566">
        <ele>371.2</ele>
        <time>2013-11-20T09:22:39Z</time>
      </trkpt>
      <trkpt lat="43.25524" lon="5.65575">
        <ele>371.1</ele>
        <time>2013-11-20T09:22:45Z</time>
      </trkpt>
      <trkpt lat="43.25525" lon="5.65581">
        <ele>371.1</ele>
        <time>2013-11-20T09:22:49Z</time>
      </trkpt>
      <trkpt lat="43.25526" lon="5.65586">
        <ele>374.2</ele>
        <time>2013-11-20T09:22:52Z</time>
      </trkpt>
      <trkpt lat="43.25527" lon="5.6559">
        <ele>375</ele>
        <time>2013-11-20T09:22:55Z</time>
      </trkpt>
      <trkpt lat="43.25528" lon="5.65595">
        <ele>375.7</ele>
        <time>2013-11-20T09:22:58Z</time>
      </trkpt>
      <trkpt lat="43.25529" lon="5.656">
        <ele>375.3</ele>
        <time>2013-11-20T09:23:01Z</time>
      </trkpt>
      <trkpt lat="43.2553" lon="5.65606">
        <ele>374.6</ele>
        <time>2013-11-20T09:23:05Z</time>
      </trkpt>
      <trkpt lat="43.2553" lon="5.6561">
        <ele>374.2</ele>
        <time>2013-11-20T09:23:08Z</time>
      </trkpt>
      <trkpt lat="43.25531" lon="5.65615">
        <ele>374.6</ele>
        <time>2013-11-20T09:23:11Z</time>
      </trkpt>
      <trkpt lat="43.25531" lon="5.6562">
        <ele>374.3</ele>
        <time>2013-11-20T09:23:14Z</time>
      </trkpt>
      <trkpt lat="43.25532" lon="5.65624">
        <ele>374.7</ele>
        <time>2013-11-20T09:23:17Z</time>
      </trkpt>
      <trkpt lat="43.25532" lon="5.6563">
        <ele>375</ele>
        <time>2013-11-20T09:23:21Z</time>
      </trkpt>
      <trkpt lat="43.25531" lon="5.65635">
        <ele>376.1</ele>
        <time>2013-11-20T09:23:24Z</time>
      </trkpt>
      <trkpt lat="43.25531" lon="5.65641">
        <ele>376.2</ele>
        <time>2013-11-20T09:23:27Z</time>
      </trkpt>
      <trkpt lat="43.2553" lon="5.65646">
        <ele>376.6</ele>
        <time>2013-11-20T09:23:30Z</time>
      </trkpt>
      <trkpt lat="43.2553" lon="5.6565">
        <ele>376.7</ele>
        <time>2013-11-20T09:23:33Z</time>
      </trkpt>
      <trkpt lat="43.25529" lon="5.65655">
        <ele>376.2</ele>
        <time>2013-11-20T09:23:36Z</time>
      </trkpt>
      <trkpt lat="43.25528" lon="5.6566">
        <ele>376.7</ele>
        <time>2013-11-20T09:23:39Z</time>
      </trkpt>
      <trkpt lat="43.25527" lon="5.65661">
        <ele>376.5</ele>
        <time>2013-11-20T09:23:40Z</time>
      </trkpt>
      <trkpt lat="43.25526" lon="5.65669">
        <ele>377.7</ele>
        <time>2013-11-20T09:23:45Z</time>
      </trkpt>
      <trkpt lat="43.25525" lon="5.65674">
        <ele>377.6</ele>
        <time>2013-11-20T09:23:48Z</time>
      </trkpt>
      <trkpt lat="43.25523" lon="5.65678">
        <ele>377.7</ele>
        <time>2013-11-20T09:23:51Z</time>
      </trkpt>
      <trkpt lat="43.25522" lon="5.65682">
        <ele>377.6</ele>
        <time>2013-11-20T09:23:54Z</time>
      </trkpt>
      <trkpt lat="43.2552" lon="5.65688">
        <ele>378.5</ele>
        <time>2013-11-20T09:23:58Z</time>
      </trkpt>
      <trkpt lat="43.25519" lon="5.65692">
        <ele>378.5</ele>
        <time>2013-11-20T09:24:01Z</time>
      </trkpt>
      <trkpt lat="43.25518" lon="5.65697">
        <ele>378.8</ele>
        <time>2013-11-20T09:24:04Z</time>
      </trkpt>
      <trkpt lat="43.25516" lon="5.65701">
        <ele>379.1</ele>
        <time>2013-11-20T09:24:07Z</time>
      </trkpt>
      <trkpt lat="43.25515" lon="5.65706">
        <ele>379.2</ele>
        <time>2013-11-20T09:24:10Z</time>
      </trkpt>
      <trkpt lat="43.25513" lon="5.65711">
        <ele>379.7</ele>
        <time>2013-11-20T09:24:14Z</time>
      </trkpt>
      <trkpt lat="43.25512" lon="5.65716">
        <ele>380</ele>
        <time>2013-11-20T09:24:18Z</time>
      </trkpt>
      <trkpt lat="43.2551" lon="5.6572">
        <ele>379.3</ele>
        <time>2013-11-20T09:24:21Z</time>
      </trkpt>
      <trkpt lat="43.25508" lon="5.65724">
        <ele>379.3</ele>
        <time>2013-11-20T09:24:24Z</time>
      </trkpt>
      <trkpt lat="43.25506" lon="5.6573">
        <ele>379.2</ele>
        <time>2013-11-20T09:24:28Z</time>
      </trkpt>
      <trkpt lat="43.25505" lon="5.65734">
        <ele>379.2</ele>
        <time>2013-11-20T09:24:31Z</time>
      </trkpt>
      <trkpt lat="43.25503" lon="5.65739">
        <ele>378</ele>
        <time>2013-11-20T09:24:35Z</time>
      </trkpt>
      <trkpt lat="43.25501" lon="5.65744">
        <ele>378.2</ele>
        <time>2013-11-20T09:24:39Z</time>
      </trkpt>
      <trkpt lat="43.25499" lon="5.65749">
        <ele>377.8</ele>
        <time>2013-11-20T09:24:43Z</time>
      </trkpt>
      <trkpt lat="43.25498" lon="5.6575">
        <ele>377.8</ele>
        <time>2013-11-20T09:24:44Z</time>
      </trkpt>
      <trkpt lat="43.25495" lon="5.65759">
        <ele>377.8</ele>
        <time>2013-11-20T09:24:51Z</time>
      </trkpt>
      <trkpt lat="43.25492" lon="5.65764">
        <ele>377.1</ele>
        <time>2013-11-20T09:24:55Z</time>
      </trkpt>
      <trkpt lat="43.25491" lon="5.65769">
        <ele>380.2</ele>
        <time>2013-11-20T09:24:58Z</time>
      </trkpt>
      <trkpt lat="43.25489" lon="5.65774">
        <ele>383.1</ele>
        <time>2013-11-20T09:25:02Z</time>
      </trkpt>
      <trkpt lat="43.25486" lon="5.65778">
        <ele>383.6</ele>
        <time>2013-11-20T09:25:06Z</time>
      </trkpt>
      <trkpt lat="43.25484" lon="5.65783">
        <ele>381.2</ele>
        <time>2013-11-20T09:25:10Z</time>
      </trkpt>
      <trkpt lat="43.25481" lon="5.65787">
        <ele>379</ele>
        <time>2013-11-20T09:25:14Z</time>
      </trkpt>
      <trkpt lat="43.25479" lon="5.6579">
        <ele>375.6</ele>
        <time>2013-11-20T09:25:17Z</time>
      </trkpt>
      <trkpt lat="43.25477" lon="5.65794">
        <ele>373.7</ele>
        <time>2013-11-20T09:25:20Z</time>
      </trkpt>
      <trkpt lat="43.25476" lon="5.65799">
        <ele>373.3</ele>
        <time>2013-11-20T09:25:23Z</time>
      </trkpt>
      <trkpt lat="43.25474" lon="5.65804">
        <ele>371.7</ele>
        <time>2013-11-20T09:25:27Z</time>
      </trkpt>
      <trkpt lat="43.25473" lon="5.65809">
        <ele>371</ele>
        <time>2013-11-20T09:25:30Z</time>
      </trkpt>
      <trkpt lat="43.25471" lon="5.65813">
        <ele>371.1</ele>
        <time>2013-11-20T09:25:33Z</time>
      </trkpt>
      <trkpt lat="43.2547" lon="5.65818">
        <ele>370.2</ele>
        <time>2013-11-20T09:25:36Z</time>
      </trkpt>
      <trkpt lat="43.25469" lon="5.65823">
        <ele>369.8</ele>
        <time>2013-11-20T09:25:40Z</time>
      </trkpt>
      <trkpt lat="43.25468" lon="5.65829">
        <ele>373.6</ele>
        <time>2013-11-20T09:25:43Z</time>
      </trkpt>
      <trkpt lat="43.25467" lon="5.65835">
        <ele>376.2</ele>
        <time>2013-11-20T09:25:46Z</time>
      </trkpt>
      <trkpt lat="43.25467" lon="5.65836">
        <ele>376.2</ele>
        <time>2013-11-20T09:25:47Z</time>
      </trkpt>
      <trkpt lat="43.25465" lon="5.65845">
        <ele>374.5</ele>
        <time>2013-11-20T09:25:53Z</time>
      </trkpt>
      <trkpt lat="43.25465" lon="5.6585">
        <ele>376.7</ele>
        <time>2013-11-20T09:25:56Z</time>
      </trkpt>
      <trkpt lat="43.25464" lon="5.65855">
        <ele>377.3</ele>
        <time>2013-11-20T09:25:59Z</time>
      </trkpt>
      <trkpt lat="43.25464" lon="5.6586">
        <ele>378.2</ele>
        <time>2013-11-20T09:26:02Z</time>
      </trkpt>
      <trkpt lat="43.25463" lon="5.65866">
        <ele>378.6</ele>
        <time>2013-11-20T09:26:05Z</time>
      </trkpt>
      <trkpt lat="43.25463" lon="5.6587">
        <ele>378.8</ele>
        <time>2013-11-20T09:26:08Z</time>
      </trkpt>
      <trkpt lat="43.25462" lon="5.65876">
        <ele>378</ele>
        <time>2013-11-20T09:26:11Z</time>
      </trkpt>
      <trkpt lat="43.25462" lon="5.65882">
        <ele>377.6</ele>
        <time>2013-11-20T09:26:15Z</time>
      </trkpt>
      <trkpt lat="43.25461" lon="5.65888">
        <ele>376.1</ele>
        <time>2013-11-20T09:26:19Z</time>
      </trkpt>
      <trkpt lat="43.2546" lon="5.65892">
        <ele>375.2</ele>
        <time>2013-11-20T09:26:22Z</time>
      </trkpt>
      <trkpt lat="43.2546" lon="5.65897">
        <ele>373.7</ele>
        <time>2013-11-20T09:26:25Z</time>
      </trkpt>
      <trkpt lat="43.25459" lon="5.65903">
        <ele>372</ele>
        <time>2013-11-20T09:26:29Z</time>
      </trkpt>
      <trkpt lat="43.25459" lon="5.65908">
        <ele>369.7</ele>
        <time>2013-11-20T09:26:33Z</time>
      </trkpt>
      <trkpt lat="43.25458" lon="5.65914">
        <ele>367</ele>
        <time>2013-11-20T09:26:37Z</time>
      </trkpt>
      <trkpt lat="43.25457" lon="5.65919">
        <ele>365.7</ele>
        <time>2013-11-20T09:26:41Z</time>
      </trkpt>
      <trkpt lat="43.25456" lon="5.65925">
        <ele>364.1</ele>
        <time>2013-11-20T09:26:45Z</time>
      </trkpt>
      <trkpt lat="43.25455" lon="5.65931">
        <ele>363</ele>
        <time>2013-11-20T09:26:50Z</time>
      </trkpt>
      <trkpt lat="43.25455" lon="5.65932">
        <ele>362.7</ele>
        <time>2013-11-20T09:26:51Z</time>
      </trkpt>
      <trkpt lat="43.25454" lon="5.6594">
        <ele>362.2</ele>
        <time>2013-11-20T09:26:56Z</time>
      </trkpt>
      <trkpt lat="43.25455" lon="5.65946">
        <ele>363.1</ele>
        <time>2013-11-20T09:27:00Z</time>
      </trkpt>
      <trkpt lat="43.25455" lon="5.6595">
        <ele>366.2</ele>
        <time>2013-11-20T09:27:02Z</time>
      </trkpt>
      <trkpt lat="43.25455" lon="5.65954">
        <ele>368.6</ele>
        <time>2013-11-20T09:27:04Z</time>
      </trkpt>
      <trkpt lat="43.25455" lon="5.65959">
        <ele>368.6</ele>
        <time>2013-11-20T09:27:07Z</time>
      </trkpt>
      <trkpt lat="43.25455" lon="5.65965">
        <ele>367</ele>
        <time>2013-11-20T09:27:11Z</time>
      </trkpt>
      <trkpt lat="43.25455" lon="5.65971">
        <ele>364.7</ele>
        <time>2013-11-20T09:27:15Z</time>
      </trkpt>
      <trkpt lat="43.25454" lon="5.65977">
        <ele>363.1</ele>
        <time>2013-11-20T09:27:19Z</time>
      </trkpt>
      <trkpt lat="43.25454" lon="5.65982">
        <ele>362.1</ele>
        <time>2013-11-20T09:27:23Z</time>
      </trkpt>
      <trkpt lat="43.25454" lon="5.65987">
        <ele>361.6</ele>
        <time>2013-11-20T09:27:27Z</time>
      </trkpt>
      <trkpt lat="43.25454" lon="5.65993">
        <ele>361.7</ele>
        <time>2013-11-20T09:27:31Z</time>
      </trkpt>
      <trkpt lat="43.25453" lon="5.65999">
        <ele>361.8</ele>
        <time>2013-11-20T09:27:35Z</time>
      </trkpt>
      <trkpt lat="43.25453" lon="5.66005">
        <ele>360.8</ele>
        <time>2013-11-20T09:27:39Z</time>
      </trkpt>
      <trkpt lat="43.25453" lon="5.66011">
        <ele>360.3</ele>
        <time>2013-11-20T09:27:43Z</time>
      </trkpt>
      <trkpt lat="43.25453" lon="5.66016">
        <ele>363.2</ele>
        <time>2013-11-20T09:27:45Z</time>
      </trkpt>
      <trkpt lat="43.25453" lon="5.66021">
        <ele>364.8</ele>
        <time>2013-11-20T09:27:48Z</time>
      </trkpt>
      <trkpt lat="43.25454" lon="5.66027">
        <ele>366.2</ele>
        <time>2013-11-20T09:27:51Z</time>
      </trkpt>
      <trkpt lat="43.25454" lon="5.66028">
        <ele>366.5</ele>
        <time>2013-11-20T09:27:52Z</time>
      </trkpt>
      <trkpt lat="43.25454" lon="5.66037">
        <ele>366.5</ele>
        <time>2013-11-20T09:27:57Z</time>
      </trkpt>
      <trkpt lat="43.25454" lon="5.66042">
        <ele>366.7</ele>
        <time>2013-11-20T09:28:00Z</time>
      </trkpt>
      <trkpt lat="43.25455" lon="5.66047">
        <ele>366.7</ele>
        <time>2013-11-20T09:28:03Z</time>
      </trkpt>
      <trkpt lat="43.25455" lon="5.66052">
        <ele>367.2</ele>
        <time>2013-11-20T09:28:06Z</time>
      </trkpt>
      <trkpt lat="43.25456" lon="5.66057">
        <ele>367.6</ele>
        <time>2013-11-20T09:28:09Z</time>
      </trkpt>
      <trkpt lat="43.25457" lon="5.66062">
        <ele>367.5</ele>
        <time>2013-11-20T09:28:12Z</time>
      </trkpt>
      <trkpt lat="43.25458" lon="5.66066">
        <ele>367.2</ele>
        <time>2013-11-20T09:28:15Z</time>
      </trkpt>
      <trkpt lat="43.25459" lon="5.66071">
        <ele>366.8</ele>
        <time>2013-11-20T09:28:18Z</time>
      </trkpt>
      <trkpt lat="43.2546" lon="5.66077">
        <ele>366.3</ele>
        <time>2013-11-20T09:28:22Z</time>
      </trkpt>
      <trkpt lat="43.2546" lon="5.66083">
        <ele>365.3</ele>
        <time>2013-11-20T09:28:26Z</time>
      </trkpt>
      <trkpt lat="43.25461" lon="5.66088">
        <ele>365.2</ele>
        <time>2013-11-20T09:28:29Z</time>
      </trkpt>
      <trkpt lat="43.25462" lon="5.66094">
        <ele>364.7</ele>
        <time>2013-11-20T09:28:33Z</time>
      </trkpt>
      <trkpt lat="43.25462" lon="5.66099">
        <ele>363.7</ele>
        <time>2013-11-20T09:28:37Z</time>
      </trkpt>
      <trkpt lat="43.25461" lon="5.66104">
        <ele>362.7</ele>
        <time>2013-11-20T09:28:41Z</time>
      </trkpt>
      <trkpt lat="43.2546" lon="5.6611">
        <ele>361.5</ele>
        <time>2013-11-20T09:28:45Z</time>
      </trkpt>
      <trkpt lat="43.25458" lon="5.66115">
        <ele>359.5</ele>
        <time>2013-11-20T09:28:49Z</time>
      </trkpt>
      <trkpt lat="43.25457" lon="5.6612">
        <ele>357.2</ele>
        <time>2013-11-20T09:28:53Z</time>
      </trkpt>
      <trkpt lat="43.25456" lon="5.66121">
        <ele>356.8</ele>
        <time>2013-11-20T09:28:54Z</time>
      </trkpt>
      <trkpt lat="43.25454" lon="5.6613">
        <ele>354.2</ele>
        <time>2013-11-20T09:29:01Z</time>
      </trkpt>
      <trkpt lat="43.25453" lon="5.66135">
        <ele>353.3</ele>
        <time>2013-11-20T09:29:05Z</time>
      </trkpt>
      <trkpt lat="43.25453" lon="5.66141">
        <ele>352.6</ele>
        <time>2013-11-20T09:29:09Z</time>
      </trkpt>
      <trkpt lat="43.25453" lon="5.66147">
        <ele>351.7</ele>
        <time>2013-11-20T09:29:13Z</time>
      </trkpt>
      <trkpt lat="43.25453" lon="5.66153">
        <ele>353.7</ele>
        <time>2013-11-20T09:29:16Z</time>
      </trkpt>
      <trkpt lat="43.25454" lon="5.66159">
        <ele>356.8</ele>
        <time>2013-11-20T09:29:19Z</time>
      </trkpt>
      <trkpt lat="43.25455" lon="5.66165">
        <ele>355.6</ele>
        <time>2013-11-20T09:29:23Z</time>
      </trkpt>
      <trkpt lat="43.25455" lon="5.6617">
        <ele>354.5</ele>
        <time>2013-11-20T09:29:27Z</time>
      </trkpt>
      <trkpt lat="43.25455" lon="5.66175">
        <ele>353.8</ele>
        <time>2013-11-20T09:29:31Z</time>
      </trkpt>
      <trkpt lat="43.25456" lon="5.6618">
        <ele>353.7</ele>
        <time>2013-11-20T09:29:34Z</time>
      </trkpt>
      <trkpt lat="43.25457" lon="5.66184">
        <ele>354.2</ele>
        <time>2013-11-20T09:29:37Z</time>
      </trkpt>
      <trkpt lat="43.25458" lon="5.6619">
        <ele>353.2</ele>
        <time>2013-11-20T09:29:41Z</time>
      </trkpt>
      <trkpt lat="43.25459" lon="5.66196">
        <ele>352.6</ele>
        <time>2013-11-20T09:29:45Z</time>
      </trkpt>
      <trkpt lat="43.25459" lon="5.66202">
        <ele>351.7</ele>
        <time>2013-11-20T09:29:49Z</time>
      </trkpt>
      <trkpt lat="43.2546" lon="5.66208">
        <ele>350.5</ele>
        <time>2013-11-20T09:29:53Z</time>
      </trkpt>
      <trkpt lat="43.25461" lon="5.66214">
        <ele>349.6</ele>
        <time>2013-11-20T09:29:57Z</time>
      </trkpt>
      <trkpt lat="43.25461" lon="5.66215">
        <ele>349</ele>
        <time>2013-11-20T09:29:58Z</time>
      </trkpt>
      <trkpt lat="43.25461" lon="5.66224">
        <ele>346.7</ele>
        <time>2013-11-20T09:30:04Z</time>
      </trkpt>
      <trkpt lat="43.25461" lon="5.66229">
        <ele>346.3</ele>
        <time>2013-11-20T09:30:07Z</time>
      </trkpt>
      <trkpt lat="43.25461" lon="5.66234">
        <ele>345.7</ele>
        <time>2013-11-20T09:30:10Z</time>
      </trkpt>
      <trkpt lat="43.25461" lon="5.66239">
        <ele>345.1</ele>
        <time>2013-11-20T09:30:13Z</time>
      </trkpt>
      <trkpt lat="43.2546" lon="5.66244">
        <ele>345</ele>
        <time>2013-11-20T09:30:16Z</time>
      </trkpt>
      <trkpt lat="43.2546" lon="5.66249">
        <ele>344.7</ele>
        <time>2013-11-20T09:30:19Z</time>
      </trkpt>
      <trkpt lat="43.25459" lon="5.66255">
        <ele>343.7</ele>
        <time>2013-11-20T09:30:23Z</time>
      </trkpt>
      <trkpt lat="43.25458" lon="5.6626">
        <ele>346.2</ele>
        <time>2013-11-20T09:30:27Z</time>
      </trkpt>
      <trkpt lat="43.25458" lon="5.66265">
        <ele>347.6</ele>
        <time>2013-11-20T09:30:31Z</time>
      </trkpt>
      <trkpt lat="43.25457" lon="5.6627">
        <ele>346.2</ele>
        <time>2013-11-20T09:30:35Z</time>
      </trkpt>
      <trkpt lat="43.25455" lon="5.66275">
        <ele>342.6</ele>
        <time>2013-11-20T09:30:39Z</time>
      </trkpt>
      <trkpt lat="43.25454" lon="5.6628">
        <ele>339.8</ele>
        <time>2013-11-20T09:30:43Z</time>
      </trkpt>
      <trkpt lat="43.25451" lon="5.66285">
        <ele>335.6</ele>
        <time>2013-11-20T09:30:47Z</time>
      </trkpt>
      <trkpt lat="43.2545" lon="5.6629">
        <ele>332.5</ele>
        <time>2013-11-20T09:30:50Z</time>
      </trkpt>
      <trkpt lat="43.25449" lon="5.66295">
        <ele>330.2</ele>
        <time>2013-11-20T09:30:53Z</time>
      </trkpt>
      <trkpt lat="43.25448" lon="5.66299">
        <ele>329.3</ele>
        <time>2013-11-20T09:30:56Z</time>
      </trkpt>
      <trkpt lat="43.25446" lon="5.66304">
        <ele>328.5</ele>
        <time>2013-11-20T09:30:59Z</time>
      </trkpt>
      <trkpt lat="43.25446" lon="5.66305">
        <ele>328.3</ele>
        <time>2013-11-20T09:31:00Z</time>
      </trkpt>
      <trkpt lat="43.25443" lon="5.66312">
        <ele>329.7</ele>
        <time>2013-11-20T09:31:05Z</time>
      </trkpt>
      <trkpt lat="43.25442" lon="5.66317">
        <ele>335.2</ele>
        <time>2013-11-20T09:31:07Z</time>
      </trkpt>
      <trkpt lat="43.25441" lon="5.66321">
        <ele>336</ele>
        <time>2013-11-20T09:31:09Z</time>
      </trkpt>
      <trkpt lat="43.2544" lon="5.66326">
        <ele>341</ele>
        <time>2013-11-20T09:31:11Z</time>
      </trkpt>
      <trkpt lat="43.25439" lon="5.66331">
        <ele>344.7</ele>
        <time>2013-11-20T09:31:14Z</time>
      </trkpt>
      <trkpt lat="43.25437" lon="5.66335">
        <ele>342.1</ele>
        <time>2013-11-20T09:31:17Z</time>
      </trkpt>
      <trkpt lat="43.25434" lon="5.66339">
        <ele>343.1</ele>
        <time>2013-11-20T09:31:21Z</time>
      </trkpt>
      <trkpt lat="43.25432" lon="5.66345">
        <ele>347.7</ele>
        <time>2013-11-20T09:31:24Z</time>
      </trkpt>
      <trkpt lat="43.2543" lon="5.66349">
        <ele>349.2</ele>
        <time>2013-11-20T09:31:27Z</time>
      </trkpt>
      <trkpt lat="43.25428" lon="5.66353">
        <ele>347.1</ele>
        <time>2013-11-20T09:31:31Z</time>
      </trkpt>
      <trkpt lat="43.25424" lon="5.66357">
        <ele>344.7</ele>
        <time>2013-11-20T09:31:35Z</time>
      </trkpt>
      <trkpt lat="43.25421" lon="5.66361">
        <ele>341.2</ele>
        <time>2013-11-20T09:31:39Z</time>
      </trkpt>
      <trkpt lat="43.25418" lon="5.66364">
        <ele>336.8</ele>
        <time>2013-11-20T09:31:43Z</time>
      </trkpt>
      <trkpt lat="43.25416" lon="5.66367">
        <ele>334.7</ele>
        <time>2013-11-20T09:31:46Z</time>
      </trkpt>
      <trkpt lat="43.25413" lon="5.66372">
        <ele>333.2</ele>
        <time>2013-11-20T09:31:50Z</time>
      </trkpt>
      <trkpt lat="43.2541" lon="5.66376">
        <ele>332.7</ele>
        <time>2013-11-20T09:31:54Z</time>
      </trkpt>
      <trkpt lat="43.25407" lon="5.6638">
        <ele>331</ele>
        <time>2013-11-20T09:31:58Z</time>
      </trkpt>
      <trkpt lat="43.25404" lon="5.66385">
        <ele>330.7</ele>
        <time>2013-11-20T09:32:02Z</time>
      </trkpt>
      <trkpt lat="43.25403" lon="5.66386">
        <ele>330.3</ele>
        <time>2013-11-20T09:32:03Z</time>
      </trkpt>
      <trkpt lat="43.25399" lon="5.66393">
        <ele>330.7</ele>
        <time>2013-11-20T09:32:08Z</time>
      </trkpt>
      <trkpt lat="43.25396" lon="5.66397">
        <ele>330.6</ele>
        <time>2013-11-20T09:32:12Z</time>
      </trkpt>
      <trkpt lat="43.25393" lon="5.664">
        <ele>330.2</ele>
        <time>2013-11-20T09:32:16Z</time>
      </trkpt>
      <trkpt lat="43.25391" lon="5.66405">
        <ele>330.6</ele>
        <time>2013-11-20T09:32:25Z</time>
      </trkpt>
      <trkpt lat="43.25391" lon="5.66411">
        <ele>336.6</ele>
        <time>2013-11-20T09:32:33Z</time>
      </trkpt>
      <trkpt lat="43.25392" lon="5.66416">
        <ele>343.7</ele>
        <time>2013-11-20T09:32:49Z</time>
      </trkpt>
      <trkpt lat="43.25394" lon="5.66421">
        <ele>356.2</ele>
        <time>2013-11-20T09:33:39Z</time>
      </trkpt>
      <trkpt lat="43.25394" lon="5.66422">
        <ele>356.8</ele>
        <time>2013-11-20T09:33:40Z</time>
      </trkpt>
      <trkpt lat="43.25389" lon="5.66421">
        <ele>353</ele>
        <time>2013-11-20T09:35:18Z</time>
      </trkpt>
      <trkpt lat="43.25382" lon="5.66418">
        <ele>350.7</ele>
        <time>2013-11-20T09:35:31Z</time>
      </trkpt>
      <trkpt lat="43.25379" lon="5.66416">
        <ele>350.8</ele>
        <time>2013-11-20T09:35:34Z</time>
      </trkpt>
      <trkpt lat="43.25376" lon="5.66415">
        <ele>352.1</ele>
        <time>2013-11-20T09:35:38Z</time>
      </trkpt>
      <trkpt lat="43.25372" lon="5.66412">
        <ele>355.1</ele>
        <time>2013-11-20T09:35:43Z</time>
      </trkpt>
      <trkpt lat="43.25368" lon="5.66411">
        <ele>353.2</ele>
        <time>2013-11-20T09:35:48Z</time>
      </trkpt>
      <trkpt lat="43.25364" lon="5.6641">
        <ele>351.5</ele>
        <time>2013-11-20T09:35:53Z</time>
      </trkpt>
      <trkpt lat="43.25361" lon="5.66408">
        <ele>351.6</ele>
        <time>2013-11-20T09:35:58Z</time>
      </trkpt>
      <trkpt lat="43.25356" lon="5.66406">
        <ele>353.8</ele>
        <time>2013-11-20T09:36:04Z</time>
      </trkpt>
      <trkpt lat="43.25353" lon="5.66402">
        <ele>355</ele>
        <time>2013-11-20T09:36:09Z</time>
      </trkpt>
      <trkpt lat="43.25349" lon="5.664">
        <ele>354.5</ele>
        <time>2013-11-20T09:36:14Z</time>
      </trkpt>
      <trkpt lat="43.25345" lon="5.66398">
        <ele>354.7</ele>
        <time>2013-11-20T09:36:19Z</time>
      </trkpt>
      <trkpt lat="43.25344" lon="5.66398">
        <ele>354.6</ele>
        <time>2013-11-20T09:36:20Z</time>
      </trkpt>
      <trkpt lat="43.25337" lon="5.66395">
        <ele>357.2</ele>
        <time>2013-11-20T09:36:29Z</time>
      </trkpt>
      <trkpt lat="43.25334" lon="5.66394">
        <ele>356.2</ele>
        <time>2013-11-20T09:36:33Z</time>
      </trkpt>
      <trkpt lat="43.2533" lon="5.66392">
        <ele>353.2</ele>
        <time>2013-11-20T09:36:38Z</time>
      </trkpt>
      <trkpt lat="43.25326" lon="5.66391">
        <ele>352.2</ele>
        <time>2013-11-20T09:36:43Z</time>
      </trkpt>
      <trkpt lat="43.25322" lon="5.66388">
        <ele>351.5</ele>
        <time>2013-11-20T09:36:48Z</time>
      </trkpt>
      <trkpt lat="43.25318" lon="5.66387">
        <ele>371</ele>
        <time>2013-11-20T09:37:20Z</time>
      </trkpt>
      <trkpt lat="43.25317" lon="5.66387">
        <ele>372.3</ele>
        <time>2013-11-20T09:37:21Z</time>
      </trkpt>
      <trkpt lat="43.25312" lon="5.66382">
        <ele>365.1</ele>
        <time>2013-11-20T09:38:16Z</time>
      </trkpt>
      <trkpt lat="43.25308" lon="5.66381">
        <ele>362.1</ele>
        <time>2013-11-20T09:38:20Z</time>
      </trkpt>
      <trkpt lat="43.25304" lon="5.66382">
        <ele>363.6</ele>
        <time>2013-11-20T09:38:26Z</time>
      </trkpt>
      <trkpt lat="43.25304" lon="5.66383">
        <ele>365.3</ele>
        <time>2013-11-20T09:38:27Z</time>
      </trkpt>
      <trkpt lat="43.25296" lon="5.66379">
        <ele>363</ele>
        <time>2013-11-20T09:38:42Z</time>
      </trkpt>
      <trkpt lat="43.25292" lon="5.66378">
        <ele>361.5</ele>
        <time>2013-11-20T09:38:51Z</time>
      </trkpt>
      <trkpt lat="43.25288" lon="5.66379">
        <ele>364.3</ele>
        <time>2013-11-20T09:38:57Z</time>
      </trkpt>
      <trkpt lat="43.25284" lon="5.66377">
        <ele>362.8</ele>
        <time>2013-11-20T09:39:05Z</time>
      </trkpt>
      <trkpt lat="43.2528" lon="5.66376">
        <ele>366.3</ele>
        <time>2013-11-20T09:39:13Z</time>
      </trkpt>
      <trkpt lat="43.25276" lon="5.66373">
        <ele>369.2</ele>
        <time>2013-11-20T09:39:21Z</time>
      </trkpt>
      <trkpt lat="43.25273" lon="5.6637">
        <ele>371.5</ele>
        <time>2013-11-20T09:39:29Z</time>
      </trkpt>
      <trkpt lat="43.25272" lon="5.6637">
        <ele>371.6</ele>
        <time>2013-11-20T09:39:30Z</time>
      </trkpt>
      <trkpt lat="43.25267" lon="5.66363">
        <ele>375.7</ele>
        <time>2013-11-20T09:39:44Z</time>
      </trkpt>
      <trkpt lat="43.25264" lon="5.66359">
        <ele>375.2</ele>
        <time>2013-11-20T09:39:52Z</time>
      </trkpt>
      <trkpt lat="43.25265" lon="5.66354">
        <ele>374.3</ele>
        <time>2013-11-20T09:40:00Z</time>
      </trkpt>
      <trkpt lat="43.25269" lon="5.6635">
        <ele>379.7</ele>
        <time>2013-11-20T09:40:11Z</time>
      </trkpt>
      <trkpt lat="43.2527" lon="5.66344">
        <ele>383.2</ele>
        <time>2013-11-20T09:40:21Z</time>
      </trkpt>
      <trkpt lat="43.25271" lon="5.66339">
        <ele>386.2</ele>
        <time>2013-11-20T09:40:34Z</time>
      </trkpt>
      <trkpt lat="43.25272" lon="5.66339">
        <ele>386.2</ele>
        <time>2013-11-20T09:40:35Z</time>
      </trkpt>
      <trkpt lat="43.25268" lon="5.6633">
        <ele>399</ele>
        <time>2013-11-20T09:41:13Z</time>
      </trkpt>
      <trkpt lat="43.25267" lon="5.66325">
        <ele>395.8</ele>
        <time>2013-11-20T09:41:23Z</time>
      </trkpt>
      <trkpt lat="43.25269" lon="5.66321">
        <ele>392.5</ele>
        <time>2013-11-20T09:41:28Z</time>
      </trkpt>
      <trkpt lat="43.25266" lon="5.66317">
        <ele>389.1</ele>
        <time>2013-11-20T09:41:41Z</time>
      </trkpt>
      <trkpt lat="43.25266" lon="5.66316">
        <ele>388.2</ele>
        <time>2013-11-20T09:41:42Z</time>
      </trkpt>
      <trkpt lat="43.25268" lon="5.66306">
        <ele>389.2</ele>
        <time>2013-11-20T09:42:01Z</time>
      </trkpt>
      <trkpt lat="43.25271" lon="5.66302">
        <ele>396.2</ele>
        <time>2013-11-20T09:42:17Z</time>
      </trkpt>
      <trkpt lat="43.25276" lon="5.66301">
        <ele>399</ele>
        <time>2013-11-20T09:42:43Z</time>
      </trkpt>
      <trkpt lat="43.25276" lon="5.663">
        <ele>399.1</ele>
        <time>2013-11-20T09:42:44Z</time>
      </trkpt>
      <trkpt lat="43.25274" lon="5.66289">
        <ele>398.3</ele>
        <time>2013-11-20T09:43:05Z</time>
      </trkpt>
      <trkpt lat="43.25272" lon="5.66284">
        <ele>396.2</ele>
        <time>2013-11-20T09:43:15Z</time>
      </trkpt>
      <trkpt lat="43.25269" lon="5.66279">
        <ele>398.2</ele>
        <time>2013-11-20T09:43:26Z</time>
      </trkpt>
      <trkpt lat="43.25271" lon="5.66274">
        <ele>403</ele>
        <time>2013-11-20T09:43:47Z</time>
      </trkpt>
      <trkpt lat="43.25271" lon="5.66274">
        <ele>403.3</ele>
        <time>2013-11-20T09:43:48Z</time>
      </trkpt>
      <trkpt lat="43.25266" lon="5.66265">
        <ele>405.2</ele>
        <time>2013-11-20T09:44:08Z</time>
      </trkpt>
      <trkpt lat="43.25262" lon="5.66262">
        <ele>405.5</ele>
        <time>2013-11-20T09:44:17Z</time>
      </trkpt>
      <trkpt lat="43.25258" lon="5.66259">
        <ele>406.7</ele>
        <time>2013-11-20T09:44:25Z</time>
      </trkpt>
      <trkpt lat="43.25259" lon="5.66254">
        <ele>408.1</ele>
        <time>2013-11-20T09:44:37Z</time>
      </trkpt>
      <trkpt lat="43.25263" lon="5.66251">
        <ele>412.7</ele>
        <time>2013-11-20T09:44:47Z</time>
      </trkpt>
      <trkpt lat="43.25266" lon="5.66247">
        <ele>415.7</ele>
        <time>2013-11-20T09:44:59Z</time>
      </trkpt>
      <trkpt lat="43.25266" lon="5.66246">
        <ele>416.1</ele>
        <time>2013-11-20T09:45:00Z</time>
      </trkpt>
      <trkpt lat="43.2527" lon="5.66238">
        <ele>424</ele>
        <time>2013-11-20T09:45:27Z</time>
      </trkpt>
      <trkpt lat="43.25272" lon="5.66232">
        <ele>423.8</ele>
        <time>2013-11-20T09:45:42Z</time>
      </trkpt>
      <trkpt lat="43.25275" lon="5.66228">
        <ele>426.6</ele>
        <time>2013-11-20T09:46:02Z</time>
      </trkpt>
      <trkpt lat="43.25275" lon="5.66228">
        <ele>426.5</ele>
        <time>2013-11-20T09:46:03Z</time>
      </trkpt>
      <trkpt lat="43.2527" lon="5.6622">
        <ele>439.8</ele>
        <time>2013-11-20T09:47:01Z</time>
      </trkpt>
      <trkpt lat="43.2527" lon="5.66225">
        <ele>431.3</ele>
        <time>2013-11-20T09:47:20Z</time>
      </trkpt>
      <trkpt lat="43.25269" lon="5.66227">
        <ele>431.1</ele>
        <time>2013-11-20T09:47:21Z</time>
      </trkpt>
      <trkpt lat="43.25272" lon="5.66231">
        <ele>437.2</ele>
        <time>2013-11-20T09:47:45Z</time>
      </trkpt>
      <trkpt lat="43.25272" lon="5.66225">
        <ele>437.1</ele>
        <time>2013-11-20T09:47:59Z</time>
      </trkpt>
      <trkpt lat="43.25268" lon="5.66221">
        <ele>433.2</ele>
        <time>2013-11-20T09:48:08Z</time>
      </trkpt>
      <trkpt lat="43.25266" lon="5.66216">
        <ele>425.8</ele>
        <time>2013-11-20T09:48:22Z</time>
      </trkpt>
      <trkpt lat="43.25265" lon="5.66215">
        <ele>424.8</ele>
        <time>2013-11-20T09:48:23Z</time>
      </trkpt>
      <trkpt lat="43.25266" lon="5.66208">
        <ele>426.2</ele>
        <time>2013-11-20T09:48:40Z</time>
      </trkpt>
      <trkpt lat="43.25264" lon="5.66203">
        <ele>431.7</ele>
        <time>2013-11-20T09:48:53Z</time>
      </trkpt>
      <trkpt lat="43.25265" lon="5.66198">
        <ele>433.2</ele>
        <time>2013-11-20T09:49:03Z</time>
      </trkpt>
      <trkpt lat="43.25263" lon="5.66192">
        <ele>433.2</ele>
        <time>2013-11-20T09:49:19Z</time>
      </trkpt>
      <trkpt lat="43.2526" lon="5.66188">
        <ele>433.2</ele>
        <time>2013-11-20T09:49:33Z</time>
      </trkpt>
      <trkpt lat="43.25259" lon="5.66187">
        <ele>433.5</ele>
        <time>2013-11-20T09:49:34Z</time>
      </trkpt>
      <trkpt lat="43.25255" lon="5.66179">
        <ele>440</ele>
        <time>2013-11-20T09:49:56Z</time>
      </trkpt>
      <trkpt lat="43.25252" lon="5.66176">
        <ele>440</ele>
        <time>2013-11-20T09:50:07Z</time>
      </trkpt>
      <trkpt lat="43.2525" lon="5.66171">
        <ele>438.8</ele>
        <time>2013-11-20T09:50:16Z</time>
      </trkpt>
      <trkpt lat="43.2525" lon="5.66165">
        <ele>443.1</ele>
        <time>2013-11-20T09:50:21Z</time>
      </trkpt>
      <trkpt lat="43.2525" lon="5.6616">
        <ele>445.8</ele>
        <time>2013-11-20T09:50:29Z</time>
      </trkpt>
      <trkpt lat="43.25253" lon="5.66155">
        <ele>447</ele>
        <time>2013-11-20T09:50:34Z</time>
      </trkpt>
      <trkpt lat="43.25254" lon="5.66154">
        <ele>446.5</ele>
        <time>2013-11-20T09:50:35Z</time>
      </trkpt>
      <trkpt lat="43.2526" lon="5.66149">
        <ele>447.2</ele>
        <time>2013-11-20T09:50:50Z</time>
      </trkpt>
      <trkpt lat="43.25264" lon="5.66152">
        <ele>448.6</ele>
        <time>2013-11-20T09:50:57Z</time>
      </trkpt>
      <trkpt lat="43.2526" lon="5.66151">
        <ele>458.3</ele>
        <time>2013-11-20T09:51:52Z</time>
      </trkpt>
      <trkpt lat="43.25259" lon="5.66151">
        <ele>458.2</ele>
        <time>2013-11-20T09:51:53Z</time>
      </trkpt>
      <trkpt lat="43.25255" lon="5.6615">
        <ele>464.6</ele>
        <time>2013-11-20T09:53:07Z</time>
      </trkpt>
      <trkpt lat="43.25256" lon="5.66143">
        <ele>447.5</ele>
        <time>2013-11-20T09:54:27Z</time>
      </trkpt>
      <trkpt lat="43.25257" lon="5.66132">
        <ele>449.1</ele>
        <time>2013-11-20T09:54:42Z</time>
      </trkpt>
      <trkpt lat="43.25256" lon="5.66126">
        <ele>450.7</ele>
        <time>2013-11-20T09:54:47Z</time>
      </trkpt>
      <trkpt lat="43.25257" lon="5.6612">
        <ele>450.7</ele>
        <time>2013-11-20T09:54:53Z</time>
      </trkpt>
      <trkpt lat="43.25257" lon="5.66115">
        <ele>448.6</ele>
        <time>2013-11-20T09:54:58Z</time>
      </trkpt>
      <trkpt lat="43.25257" lon="5.6611">
        <ele>448.1</ele>
        <time>2013-11-20T09:55:03Z</time>
      </trkpt>
      <trkpt lat="43.25256" lon="5.66105">
        <ele>444.8</ele>
        <time>2013-11-20T09:55:08Z</time>
      </trkpt>
      <trkpt lat="43.25256" lon="5.66099">
        <ele>445</ele>
        <time>2013-11-20T09:55:14Z</time>
      </trkpt>
      <trkpt lat="43.25256" lon="5.66094">
        <ele>444.2</ele>
        <time>2013-11-20T09:55:19Z</time>
      </trkpt>
      <trkpt lat="43.25254" lon="5.66089">
        <ele>444.7</ele>
        <time>2013-11-20T09:55:23Z</time>
      </trkpt>
      <trkpt lat="43.25252" lon="5.66085">
        <ele>445.7</ele>
        <time>2013-11-20T09:55:27Z</time>
      </trkpt>
      <trkpt lat="43.25252" lon="5.66084">
        <ele>445.7</ele>
        <time>2013-11-20T09:55:28Z</time>
      </trkpt>
      <trkpt lat="43.2525" lon="5.66074">
        <ele>448.8</ele>
        <time>2013-11-20T09:55:36Z</time>
      </trkpt>
      <trkpt lat="43.25248" lon="5.66071">
        <ele>451</ele>
        <time>2013-11-20T09:55:38Z</time>
      </trkpt>
      <trkpt lat="43.25246" lon="5.66066">
        <ele>452.7</ele>
        <time>2013-11-20T09:55:41Z</time>
      </trkpt>
      <trkpt lat="43.25244" lon="5.66062">
        <ele>452.2</ele>
        <time>2013-11-20T09:55:44Z</time>
      </trkpt>
      <trkpt lat="43.25245" lon="5.66056">
        <ele>452.2</ele>
        <time>2013-11-20T09:55:49Z</time>
      </trkpt>
      <trkpt lat="43.25243" lon="5.66051">
        <ele>447.2</ele>
        <time>2013-11-20T09:55:56Z</time>
      </trkpt>
      <trkpt lat="43.25243" lon="5.66047">
        <ele>443.2</ele>
        <time>2013-11-20T09:56:02Z</time>
      </trkpt>
      <trkpt lat="43.25242" lon="5.66041">
        <ele>443.2</ele>
        <time>2013-11-20T09:56:05Z</time>
      </trkpt>
      <trkpt lat="43.25241" lon="5.66036">
        <ele>442.1</ele>
        <time>2013-11-20T09:56:09Z</time>
      </trkpt>
      <trkpt lat="43.25241" lon="5.66031">
        <ele>442</ele>
        <time>2013-11-20T09:56:13Z</time>
      </trkpt>
      <trkpt lat="43.2524" lon="5.66027">
        <ele>443.8</ele>
        <time>2013-11-20T09:56:15Z</time>
      </trkpt>
      <trkpt lat="43.25239" lon="5.66022">
        <ele>447.2</ele>
        <time>2013-11-20T09:56:18Z</time>
      </trkpt>
      <trkpt lat="43.25239" lon="5.66018">
        <ele>447.2</ele>
        <time>2013-11-20T09:56:21Z</time>
      </trkpt>
      <trkpt lat="43.25237" lon="5.66012">
        <ele>448.7</ele>
        <time>2013-11-20T09:56:24Z</time>
      </trkpt>
      <trkpt lat="43.25237" lon="5.66006">
        <ele>447.2</ele>
        <time>2013-11-20T09:56:29Z</time>
      </trkpt>
      <trkpt lat="43.25237" lon="5.66005">
        <ele>446.8</ele>
        <time>2013-11-20T09:56:30Z</time>
      </trkpt>
      <trkpt lat="43.25237" lon="5.65995">
        <ele>441.1</ele>
        <time>2013-11-20T09:56:41Z</time>
      </trkpt>
      <trkpt lat="43.25236" lon="5.6599">
        <ele>438.5</ele>
        <time>2013-11-20T09:56:46Z</time>
      </trkpt>
      <trkpt lat="43.25235" lon="5.65985">
        <ele>440.5</ele>
        <time>2013-11-20T09:56:48Z</time>
      </trkpt>
      <trkpt lat="43.25235" lon="5.6598">
        <ele>443.7</ele>
        <time>2013-11-20T09:56:50Z</time>
      </trkpt>
      <trkpt lat="43.25234" lon="5.65975">
        <ele>442.6</ele>
        <time>2013-11-20T09:56:54Z</time>
      </trkpt>
      <trkpt lat="43.25234" lon="5.65969">
        <ele>440.3</ele>
        <time>2013-11-20T09:57:00Z</time>
      </trkpt>
      <trkpt lat="43.25233" lon="5.65964">
        <ele>441.7</ele>
        <time>2013-11-20T09:57:03Z</time>
      </trkpt>
      <trkpt lat="43.25233" lon="5.65958">
        <ele>446.3</ele>
        <time>2013-11-20T09:57:06Z</time>
      </trkpt>
      <trkpt lat="43.25236" lon="5.65955">
        <ele>448.7</ele>
        <time>2013-11-20T09:57:09Z</time>
      </trkpt>
      <trkpt lat="43.25239" lon="5.65952">
        <ele>450.2</ele>
        <time>2013-11-20T09:57:13Z</time>
      </trkpt>
      <trkpt lat="43.25243" lon="5.65949">
        <ele>451.8</ele>
        <time>2013-11-20T09:57:19Z</time>
      </trkpt>
      <trkpt lat="43.25245" lon="5.65945">
        <ele>453.2</ele>
        <time>2013-11-20T09:57:30Z</time>
      </trkpt>
      <trkpt lat="43.25246" lon="5.65944">
        <ele>453.5</ele>
        <time>2013-11-20T09:57:31Z</time>
      </trkpt>
      <trkpt lat="43.25253" lon="5.65941">
        <ele>454.3</ele>
        <time>2013-11-20T09:57:49Z</time>
      </trkpt>
      <trkpt lat="43.25257" lon="5.6594">
        <ele>456.5</ele>
        <time>2013-11-20T09:58:00Z</time>
      </trkpt>
      <trkpt lat="43.25261" lon="5.65941">
        <ele>456.8</ele>
        <time>2013-11-20T09:58:08Z</time>
      </trkpt>
      <trkpt lat="43.25265" lon="5.65941">
        <ele>456</ele>
        <time>2013-11-20T09:58:15Z</time>
      </trkpt>
      <trkpt lat="43.2527" lon="5.65941">
        <ele>457.7</ele>
        <time>2013-11-20T09:58:21Z</time>
      </trkpt>
      <trkpt lat="43.25274" lon="5.6594">
        <ele>456.7</ele>
        <time>2013-11-20T09:58:29Z</time>
      </trkpt>
      <trkpt lat="43.25278" lon="5.65939">
        <ele>457.7</ele>
        <time>2013-11-20T09:58:34Z</time>
      </trkpt>
      <trkpt lat="43.25278" lon="5.65938">
        <ele>457.7</ele>
        <time>2013-11-20T09:58:35Z</time>
      </trkpt>
      <trkpt lat="43.25286" lon="5.65937">
        <ele>459.8</ele>
        <time>2013-11-20T09:58:45Z</time>
      </trkpt>
      <trkpt lat="43.2529" lon="5.65935">
        <ele>460.7</ele>
        <time>2013-11-20T09:58:50Z</time>
      </trkpt>
      <trkpt lat="43.25294" lon="5.65933">
        <ele>461.3</ele>
        <time>2013-11-20T09:58:55Z</time>
      </trkpt>
      <trkpt lat="43.25298" lon="5.65932">
        <ele>461.6</ele>
        <time>2013-11-20T09:59:02Z</time>
      </trkpt>
      <trkpt lat="43.25302" lon="5.65931">
        <ele>462</ele>
        <time>2013-11-20T09:59:06Z</time>
      </trkpt>
      <trkpt lat="43.25306" lon="5.6593">
        <ele>463.7</ele>
        <time>2013-11-20T09:59:10Z</time>
      </trkpt>
      <trkpt lat="43.25309" lon="5.65926">
        <ele>464.5</ele>
        <time>2013-11-20T09:59:16Z</time>
      </trkpt>
      <trkpt lat="43.2531" lon="5.6592">
        <ele>465.1</ele>
        <time>2013-11-20T09:59:22Z</time>
      </trkpt>
      <trkpt lat="43.25311" lon="5.65915">
        <ele>463.7</ele>
        <time>2013-11-20T09:59:30Z</time>
      </trkpt>
      <trkpt lat="43.2531" lon="5.65909">
        <ele>462.2</ele>
        <time>2013-11-20T09:59:37Z</time>
      </trkpt>
      <trkpt lat="43.2531" lon="5.65909">
        <ele>461.8</ele>
        <time>2013-11-20T09:59:38Z</time>
      </trkpt>
      <trkpt lat="43.25311" lon="5.65898">
        <ele>461.1</ele>
        <time>2013-11-20T09:59:50Z</time>
      </trkpt>
      <trkpt lat="43.25312" lon="5.65893">
        <ele>463.5</ele>
        <time>2013-11-20T09:59:55Z</time>
      </trkpt>
      <trkpt lat="43.25315" lon="5.65889">
        <ele>464.8</ele>
        <time>2013-11-20T10:00:00Z</time>
      </trkpt>
      <trkpt lat="43.25317" lon="5.65885">
        <ele>465.3</ele>
        <time>2013-11-20T10:00:04Z</time>
      </trkpt>
      <trkpt lat="43.25319" lon="5.6588">
        <ele>465.5</ele>
        <time>2013-11-20T10:00:09Z</time>
      </trkpt>
      <trkpt lat="43.25317" lon="5.65875">
        <ele>463.6</ele>
        <time>2013-11-20T10:00:17Z</time>
      </trkpt>
      <trkpt lat="43.25318" lon="5.6587">
        <ele>461.2</ele>
        <time>2013-11-20T10:00:23Z</time>
      </trkpt>
      <trkpt lat="43.25319" lon="5.65864">
        <ele>461.2</ele>
        <time>2013-11-20T10:00:28Z</time>
      </trkpt>
      <trkpt lat="43.2532" lon="5.65859">
        <ele>460.2</ele>
        <time>2013-11-20T10:00:33Z</time>
      </trkpt>
      <trkpt lat="43.25319" lon="5.65854">
        <ele>461.2</ele>
        <time>2013-11-20T10:00:37Z</time>
      </trkpt>
      <trkpt lat="43.25321" lon="5.65848">
        <ele>462.1</ele>
        <time>2013-11-20T10:00:42Z</time>
      </trkpt>
      <trkpt lat="43.25321" lon="5.65847">
        <ele>461.7</ele>
        <time>2013-11-20T10:00:43Z</time>
      </trkpt>
      <trkpt lat="43.25324" lon="5.65838">
        <ele>465</ele>
        <time>2013-11-20T10:00:51Z</time>
      </trkpt>
      <trkpt lat="43.25324" lon="5.65832">
        <ele>464.7</ele>
        <time>2013-11-20T10:00:58Z</time>
      </trkpt>
      <trkpt lat="43.25324" lon="5.65826">
        <ele>466.6</ele>
        <time>2013-11-20T10:01:03Z</time>
      </trkpt>
      <trkpt lat="43.25326" lon="5.65821">
        <ele>463.7</ele>
        <time>2013-11-20T10:01:10Z</time>
      </trkpt>
      <trkpt lat="43.25327" lon="5.65815">
        <ele>461.7</ele>
        <time>2013-11-20T10:01:15Z</time>
      </trkpt>
      <trkpt lat="43.25328" lon="5.65811">
        <ele>460.7</ele>
        <time>2013-11-20T10:01:19Z</time>
      </trkpt>
      <trkpt lat="43.25329" lon="5.65806">
        <ele>459.7</ele>
        <time>2013-11-20T10:01:23Z</time>
      </trkpt>
      <trkpt lat="43.25331" lon="5.65801">
        <ele>461</ele>
        <time>2013-11-20T10:01:27Z</time>
      </trkpt>
      <trkpt lat="43.25331" lon="5.65796">
        <ele>463.2</ele>
        <time>2013-11-20T10:01:31Z</time>
      </trkpt>
      <trkpt lat="43.25332" lon="5.6579">
        <ele>467.7</ele>
        <time>2013-11-20T10:01:36Z</time>
      </trkpt>
      <trkpt lat="43.25334" lon="5.65785">
        <ele>469.6</ele>
        <time>2013-11-20T10:01:40Z</time>
      </trkpt>
      <trkpt lat="43.25336" lon="5.6578">
        <ele>471.3</ele>
        <time>2013-11-20T10:01:45Z</time>
      </trkpt>
      <trkpt lat="43.25336" lon="5.65779">
        <ele>471.7</ele>
        <time>2013-11-20T10:01:46Z</time>
      </trkpt>
      <trkpt lat="43.25341" lon="5.65772">
        <ele>473.5</ele>
        <time>2013-11-20T10:01:53Z</time>
      </trkpt>
      <trkpt lat="43.25343" lon="5.65768">
        <ele>474.8</ele>
        <time>2013-11-20T10:01:57Z</time>
      </trkpt>
      <trkpt lat="43.25345" lon="5.65763">
        <ele>476.7</ele>
        <time>2013-11-20T10:02:01Z</time>
      </trkpt>
      <trkpt lat="43.25345" lon="5.65758">
        <ele>477.3</ele>
        <time>2013-11-20T10:02:07Z</time>
      </trkpt>
      <trkpt lat="43.25344" lon="5.65753">
        <ele>477.1</ele>
        <time>2013-11-20T10:02:12Z</time>
      </trkpt>
      <trkpt lat="43.25344" lon="5.65747">
        <ele>475.7</ele>
        <time>2013-11-20T10:02:17Z</time>
      </trkpt>
      <trkpt lat="43.25344" lon="5.65741">
        <ele>473.7</ele>
        <time>2013-11-20T10:02:23Z</time>
      </trkpt>
      <trkpt lat="43.25344" lon="5.65736">
        <ele>471.5</ele>
        <time>2013-11-20T10:02:29Z</time>
      </trkpt>
      <trkpt lat="43.25345" lon="5.6573">
        <ele>470.8</ele>
        <time>2013-11-20T10:02:34Z</time>
      </trkpt>
      <trkpt lat="43.25344" lon="5.65724">
        <ele>475.6</ele>
        <time>2013-11-20T10:02:37Z</time>
      </trkpt>
      <trkpt lat="43.25345" lon="5.65719">
        <ele>477.6</ele>
        <time>2013-11-20T10:02:42Z</time>
      </trkpt>
      <trkpt lat="43.25348" lon="5.65714">
        <ele>478.8</ele>
        <time>2013-11-20T10:02:48Z</time>
      </trkpt>
      <trkpt lat="43.25348" lon="5.65713">
        <ele>479.1</ele>
        <time>2013-11-20T10:02:49Z</time>
      </trkpt>
      <trkpt lat="43.25349" lon="5.65704">
        <ele>478.6</ele>
        <time>2013-11-20T10:03:01Z</time>
      </trkpt>
      <trkpt lat="43.2535" lon="5.65698">
        <ele>478.7</ele>
        <time>2013-11-20T10:03:07Z</time>
      </trkpt>
      <trkpt lat="43.25352" lon="5.65693">
        <ele>479.2</ele>
        <time>2013-11-20T10:03:12Z</time>
      </trkpt>
      <trkpt lat="43.25354" lon="5.65689">
        <ele>479.3</ele>
        <time>2013-11-20T10:03:17Z</time>
      </trkpt>
      <trkpt lat="43.25358" lon="5.65685">
        <ele>479.2</ele>
        <time>2013-11-20T10:03:28Z</time>
      </trkpt>
      <trkpt lat="43.25357" lon="5.65679">
        <ele>477</ele>
        <time>2013-11-20T10:03:43Z</time>
      </trkpt>
      <trkpt lat="43.25359" lon="5.65675">
        <ele>477.7</ele>
        <time>2013-11-20T10:03:47Z</time>
      </trkpt>
      <trkpt lat="43.25362" lon="5.65671">
        <ele>478.2</ele>
        <time>2013-11-20T10:03:51Z</time>
      </trkpt>
      <trkpt lat="43.25362" lon="5.6567">
        <ele>478.3</ele>
        <time>2013-11-20T10:03:52Z</time>
      </trkpt>
      <trkpt lat="43.25365" lon="5.65661">
        <ele>478.7</ele>
        <time>2013-11-20T10:04:00Z</time>
      </trkpt>
      <trkpt lat="43.25366" lon="5.65656">
        <ele>479.2</ele>
        <time>2013-11-20T10:04:04Z</time>
      </trkpt>
      <trkpt lat="43.25367" lon="5.6565">
        <ele>479.7</ele>
        <time>2013-11-20T10:04:09Z</time>
      </trkpt>
      <trkpt lat="43.25368" lon="5.65645">
        <ele>480</ele>
        <time>2013-11-20T10:04:14Z</time>
      </trkpt>
      <trkpt lat="43.25371" lon="5.6564">
        <ele>481</ele>
        <time>2013-11-20T10:04:19Z</time>
      </trkpt>
      <trkpt lat="43.25374" lon="5.65637">
        <ele>482</ele>
        <time>2013-11-20T10:04:23Z</time>
      </trkpt>
      <trkpt lat="43.25377" lon="5.65633">
        <ele>482.8</ele>
        <time>2013-11-20T10:04:28Z</time>
      </trkpt>
      <trkpt lat="43.25379" lon="5.65629">
        <ele>483.6</ele>
        <time>2013-11-20T10:04:32Z</time>
      </trkpt>
      <trkpt lat="43.25383" lon="5.65625">
        <ele>484.1</ele>
        <time>2013-11-20T10:04:37Z</time>
      </trkpt>
      <trkpt lat="43.25386" lon="5.65623">
        <ele>484.3</ele>
        <time>2013-11-20T10:04:42Z</time>
      </trkpt>
      <trkpt lat="43.25389" lon="5.65619">
        <ele>484.6</ele>
        <time>2013-11-20T10:04:47Z</time>
      </trkpt>
      <trkpt lat="43.25391" lon="5.65614">
        <ele>484.2</ele>
        <time>2013-11-20T10:04:52Z</time>
      </trkpt>
      <trkpt lat="43.25391" lon="5.65613">
        <ele>484.2</ele>
        <time>2013-11-20T10:04:53Z</time>
      </trkpt>
      <trkpt lat="43.25399" lon="5.65608">
        <ele>484.5</ele>
        <time>2013-11-20T10:05:02Z</time>
      </trkpt>
      <trkpt lat="43.25402" lon="5.65606">
        <ele>484.2</ele>
        <time>2013-11-20T10:05:09Z</time>
      </trkpt>
      <trkpt lat="43.25405" lon="5.65602">
        <ele>483.8</ele>
        <time>2013-11-20T10:05:14Z</time>
      </trkpt>
      <trkpt lat="43.25408" lon="5.65598">
        <ele>483.7</ele>
        <time>2013-11-20T10:05:20Z</time>
      </trkpt>
      <trkpt lat="43.25412" lon="5.65597">
        <ele>484</ele>
        <time>2013-11-20T10:05:47Z</time>
      </trkpt>
      <trkpt lat="43.25408" lon="5.65597">
        <ele>484.7</ele>
        <time>2013-11-20T10:07:01Z</time>
      </trkpt>
      <trkpt lat="43.25407" lon="5.65597">
        <ele>484.7</ele>
        <time>2013-11-20T10:07:02Z</time>
      </trkpt>
      <trkpt lat="43.25404" lon="5.65601">
        <ele>486.6</ele>
        <time>2013-11-20T10:08:17Z</time>
      </trkpt>
      <trkpt lat="43.25398" lon="5.65607">
        <ele>485.8</ele>
        <time>2013-11-20T10:08:28Z</time>
      </trkpt>
      <trkpt lat="43.25395" lon="5.6561">
        <ele>485.2</ele>
        <time>2013-11-20T10:08:32Z</time>
      </trkpt>
      <trkpt lat="43.25393" lon="5.65614">
        <ele>484.5</ele>
        <time>2013-11-20T10:08:36Z</time>
      </trkpt>
      <trkpt lat="43.2539" lon="5.65619">
        <ele>483.7</ele>
        <time>2013-11-20T10:08:41Z</time>
      </trkpt>
      <trkpt lat="43.25387" lon="5.65622">
        <ele>482.6</ele>
        <time>2013-11-20T10:08:45Z</time>
      </trkpt>
      <trkpt lat="43.25383" lon="5.65624">
        <ele>481.7</ele>
        <time>2013-11-20T10:08:50Z</time>
      </trkpt>
      <trkpt lat="43.2538" lon="5.65628">
        <ele>481.1</ele>
        <time>2013-11-20T10:08:55Z</time>
      </trkpt>
      <trkpt lat="43.25377" lon="5.65632">
        <ele>480.3</ele>
        <time>2013-11-20T10:09:00Z</time>
      </trkpt>
      <trkpt lat="43.25375" lon="5.65635">
        <ele>480.1</ele>
        <time>2013-11-20T10:09:03Z</time>
      </trkpt>
      <trkpt lat="43.25371" lon="5.65639">
        <ele>480.2</ele>
        <time>2013-11-20T10:09:07Z</time>
      </trkpt>
      <trkpt lat="43.2537" lon="5.65645">
        <ele>480</ele>
        <time>2013-11-20T10:09:15Z</time>
      </trkpt>
      <trkpt lat="43.25368" lon="5.6565">
        <ele>481.2</ele>
        <time>2013-11-20T10:09:39Z</time>
      </trkpt>
      <trkpt lat="43.25368" lon="5.65651">
        <ele>481</ele>
        <time>2013-11-20T10:09:40Z</time>
      </trkpt>
      <trkpt lat="43.25368" lon="5.65661">
        <ele>479.7</ele>
        <time>2013-11-20T10:09:52Z</time>
      </trkpt>
      <trkpt lat="43.25369" lon="5.65655">
        <ele>480.7</ele>
        <time>2013-11-20T10:10:09Z</time>
      </trkpt>
      <trkpt lat="43.25369" lon="5.65649">
        <ele>480.3</ele>
        <time>2013-11-20T10:10:14Z</time>
      </trkpt>
      <trkpt lat="43.25368" lon="5.65643">
        <ele>480.2</ele>
        <time>2013-11-20T10:10:20Z</time>
      </trkpt>
      <trkpt lat="43.25365" lon="5.65642">
        <ele>480.6</ele>
        <time>2013-11-20T10:10:23Z</time>
      </trkpt>
      <trkpt lat="43.25361" lon="5.65641">
        <ele>480.7</ele>
        <time>2013-11-20T10:10:26Z</time>
      </trkpt>
      <trkpt lat="43.25358" lon="5.65639">
        <ele>481.2</ele>
        <time>2013-11-20T10:10:29Z</time>
      </trkpt>
      <trkpt lat="43.25354" lon="5.65638">
        <ele>481.2</ele>
        <time>2013-11-20T10:10:32Z</time>
      </trkpt>
      <trkpt lat="43.25351" lon="5.65635">
        <ele>481.2</ele>
        <time>2013-11-20T10:10:35Z</time>
      </trkpt>
      <trkpt lat="43.25348" lon="5.65632">
        <ele>481.2</ele>
        <time>2013-11-20T10:10:38Z</time>
      </trkpt>
      <trkpt lat="43.25346" lon="5.65627">
        <ele>481.2</ele>
        <time>2013-11-20T10:10:42Z</time>
      </trkpt>
      <trkpt lat="43.25345" lon="5.65626">
        <ele>481.2</ele>
        <time>2013-11-20T10:10:43Z</time>
      </trkpt>
      <trkpt lat="43.2534" lon="5.65618">
        <ele>480.7</ele>
        <time>2013-11-20T10:10:50Z</time>
      </trkpt>
      <trkpt lat="43.25337" lon="5.65615">
        <ele>480.2</ele>
        <time>2013-11-20T10:10:53Z</time>
      </trkpt>
      <trkpt lat="43.25335" lon="5.65612">
        <ele>479.7</ele>
        <time>2013-11-20T10:10:56Z</time>
      </trkpt>
      <trkpt lat="43.25332" lon="5.65609">
        <ele>479.5</ele>
        <time>2013-11-20T10:10:59Z</time>
      </trkpt>
      <trkpt lat="43.25329" lon="5.65605">
        <ele>478.7</ele>
        <time>2013-11-20T10:11:03Z</time>
      </trkpt>
      <trkpt lat="43.25325" lon="5.65601">
        <ele>478.2</ele>
        <time>2013-11-20T10:11:07Z</time>
      </trkpt>
      <trkpt lat="43.25321" lon="5.656">
        <ele>477.5</ele>
        <time>2013-11-20T10:11:11Z</time>
      </trkpt>
      <trkpt lat="43.25317" lon="5.65597">
        <ele>476.8</ele>
        <time>2013-11-20T10:11:15Z</time>
      </trkpt>
      <trkpt lat="43.25314" lon="5.65596">
        <ele>477.2</ele>
        <time>2013-11-20T10:11:18Z</time>
      </trkpt>
      <trkpt lat="43.2531" lon="5.65596">
        <ele>477.6</ele>
        <time>2013-11-20T10:11:21Z</time>
      </trkpt>
      <trkpt lat="43.25307" lon="5.65597">
        <ele>477.6</ele>
        <time>2013-11-20T10:11:24Z</time>
      </trkpt>
      <trkpt lat="43.25302" lon="5.65598">
        <ele>477.2</ele>
        <time>2013-11-20T10:11:28Z</time>
      </trkpt>
      <trkpt lat="43.25299" lon="5.65598">
        <ele>477</ele>
        <time>2013-11-20T10:11:31Z</time>
      </trkpt>
      <trkpt lat="43.25295" lon="5.65596">
        <ele>476.8</ele>
        <time>2013-11-20T10:11:34Z</time>
      </trkpt>
      <trkpt lat="43.25292" lon="5.65593">
        <ele>476.2</ele>
        <time>2013-11-20T10:11:38Z</time>
      </trkpt>
      <trkpt lat="43.25288" lon="5.65591">
        <ele>475.7</ele>
        <time>2013-11-20T10:11:42Z</time>
      </trkpt>
      <trkpt lat="43.25284" lon="5.6559">
        <ele>474.5</ele>
        <time>2013-11-20T10:11:47Z</time>
      </trkpt>
      <trkpt lat="43.25283" lon="5.65589">
        <ele>474.1</ele>
        <time>2013-11-20T10:11:48Z</time>
      </trkpt>
      <trkpt lat="43.25284" lon="5.6559">
        <ele>472.6</ele>
        <time>2013-11-20T10:12:15Z</time>
      </trkpt>
      <trkpt lat="43.25288" lon="5.65591">
        <ele>473.7</ele>
        <time>2013-11-20T10:12:19Z</time>
      </trkpt>
      <trkpt lat="43.25289" lon="5.65597">
        <ele>473.7</ele>
        <time>2013-11-20T10:12:26Z</time>
      </trkpt>
      <trkpt lat="43.25287" lon="5.65602">
        <ele>473.2</ele>
        <time>2013-11-20T10:12:52Z</time>
      </trkpt>
      <trkpt lat="43.25287" lon="5.65602">
        <ele>473.1</ele>
        <time>2013-11-20T10:12:53Z</time>
      </trkpt>
      <trkpt lat="43.25287" lon="5.65592">
        <ele>473.3</ele>
        <time>2013-11-20T10:13:31Z</time>
      </trkpt>
      <trkpt lat="43.25284" lon="5.6559">
        <ele>472.5</ele>
        <time>2013-11-20T10:13:34Z</time>
      </trkpt>
      <trkpt lat="43.2528" lon="5.65589">
        <ele>471.6</ele>
        <time>2013-11-20T10:13:37Z</time>
      </trkpt>
      <trkpt lat="43.25277" lon="5.65588">
        <ele>470.7</ele>
        <time>2013-11-20T10:13:40Z</time>
      </trkpt>
      <trkpt lat="43.25273" lon="5.65588">
        <ele>469.6</ele>
        <time>2013-11-20T10:13:44Z</time>
      </trkpt>
      <trkpt lat="43.25269" lon="5.65592">
        <ele>469.8</ele>
        <time>2013-11-20T10:14:10Z</time>
      </trkpt>
      <trkpt lat="43.25269" lon="5.65592">
        <ele>470.2</ele>
        <time>2013-11-20T10:14:11Z</time>
      </trkpt>
      <trkpt lat="43.25263" lon="5.65601">
        <ele>470.5</ele>
        <time>2013-11-20T10:14:37Z</time>
      </trkpt>
      <trkpt lat="43.25259" lon="5.65601">
        <ele>469.2</ele>
        <time>2013-11-20T10:14:48Z</time>
      </trkpt>
      <trkpt lat="43.25255" lon="5.65601">
        <ele>467.8</ele>
        <time>2013-11-20T10:14:55Z</time>
      </trkpt>
      <trkpt lat="43.25251" lon="5.65601">
        <ele>466.8</ele>
        <time>2013-11-20T10:15:01Z</time>
      </trkpt>
      <trkpt lat="43.25247" lon="5.65601">
        <ele>466.2</ele>
        <time>2013-11-20T10:15:06Z</time>
      </trkpt>
      <trkpt lat="43.25243" lon="5.65601">
        <ele>465.6</ele>
        <time>2013-11-20T10:15:11Z</time>
      </trkpt>
      <trkpt lat="43.25243" lon="5.65601">
        <ele>465.6</ele>
        <time>2013-11-20T10:15:12Z</time>
      </trkpt>
      <trkpt lat="43.25236" lon="5.65599">
        <ele>465.5</ele>
        <time>2013-11-20T10:15:20Z</time>
      </trkpt>
      <trkpt lat="43.25232" lon="5.65598">
        <ele>464.3</ele>
        <time>2013-11-20T10:15:25Z</time>
      </trkpt>
      <trkpt lat="43.25228" lon="5.65597">
        <ele>463.5</ele>
        <time>2013-11-20T10:15:30Z</time>
      </trkpt>
      <trkpt lat="43.25224" lon="5.65595">
        <ele>462.3</ele>
        <time>2013-11-20T10:15:35Z</time>
      </trkpt>
      <trkpt lat="43.2522" lon="5.65595">
        <ele>461.3</ele>
        <time>2013-11-20T10:15:39Z</time>
      </trkpt>
      <trkpt lat="43.25216" lon="5.65593">
        <ele>461.7</ele>
        <time>2013-11-20T10:15:43Z</time>
      </trkpt>
      <trkpt lat="43.25212" lon="5.65593">
        <ele>462.2</ele>
        <time>2013-11-20T10:15:47Z</time>
      </trkpt>
      <trkpt lat="43.25208" lon="5.65592">
        <ele>462.2</ele>
        <time>2013-11-20T10:15:51Z</time>
      </trkpt>
      <trkpt lat="43.25205" lon="5.65591">
        <ele>462.6</ele>
        <time>2013-11-20T10:15:54Z</time>
      </trkpt>
      <trkpt lat="43.25201" lon="5.65592">
        <ele>462.2</ele>
        <time>2013-11-20T10:15:58Z</time>
      </trkpt>
      <trkpt lat="43.25197" lon="5.65592">
        <ele>461.3</ele>
        <time>2013-11-20T10:16:02Z</time>
      </trkpt>
      <trkpt lat="43.25193" lon="5.65591">
        <ele>460.7</ele>
        <time>2013-11-20T10:16:06Z</time>
      </trkpt>
      <trkpt lat="43.25189" lon="5.65589">
        <ele>460.5</ele>
        <time>2013-11-20T10:16:10Z</time>
      </trkpt>
      <trkpt lat="43.25184" lon="5.65588">
        <ele>460</ele>
        <time>2013-11-20T10:16:14Z</time>
      </trkpt>
      <trkpt lat="43.25184" lon="5.65588">
        <ele>459.7</ele>
        <time>2013-11-20T10:16:15Z</time>
      </trkpt>
      <trkpt lat="43.25176" lon="5.65583">
        <ele>460.2</ele>
        <time>2013-11-20T10:16:24Z</time>
      </trkpt>
      <trkpt lat="43.25173" lon="5.65586">
        <ele>460.7</ele>
        <time>2013-11-20T10:16:31Z</time>
      </trkpt>
      <trkpt lat="43.2517" lon="5.65591">
        <ele>459.1</ele>
        <time>2013-11-20T10:16:37Z</time>
      </trkpt>
      <trkpt lat="43.25168" lon="5.65596">
        <ele>459.1</ele>
        <time>2013-11-20T10:16:46Z</time>
      </trkpt>
      <trkpt lat="43.25167" lon="5.65601">
        <ele>458.8</ele>
        <time>2013-11-20T10:16:54Z</time>
      </trkpt>
      <trkpt lat="43.25165" lon="5.65607">
        <ele>458.1</ele>
        <time>2013-11-20T10:17:02Z</time>
      </trkpt>
      <trkpt lat="43.25163" lon="5.65612">
        <ele>457.1</ele>
        <time>2013-11-20T10:17:09Z</time>
      </trkpt>
      <trkpt lat="43.25161" lon="5.65617">
        <ele>455.6</ele>
        <time>2013-11-20T10:17:16Z</time>
      </trkpt>
      <trkpt lat="43.25161" lon="5.65617">
        <ele>455.2</ele>
        <time>2013-11-20T10:17:17Z</time>
      </trkpt>
      <trkpt lat="43.25156" lon="5.65626">
        <ele>451.1</ele>
        <time>2013-11-20T10:17:30Z</time>
      </trkpt>
      <trkpt lat="43.25154" lon="5.6563">
        <ele>449.7</ele>
        <time>2013-11-20T10:17:36Z</time>
      </trkpt>
      <trkpt lat="43.2515" lon="5.65634">
        <ele>448</ele>
        <time>2013-11-20T10:17:42Z</time>
      </trkpt>
      <trkpt lat="43.25147" lon="5.65638">
        <ele>447</ele>
        <time>2013-11-20T10:17:48Z</time>
      </trkpt>
      <trkpt lat="43.25144" lon="5.65641">
        <ele>446.3</ele>
        <time>2013-11-20T10:17:52Z</time>
      </trkpt>
      <trkpt lat="43.25141" lon="5.65644">
        <ele>445.6</ele>
        <time>2013-11-20T10:17:56Z</time>
      </trkpt>
      <trkpt lat="43.25138" lon="5.65646">
        <ele>444.6</ele>
        <time>2013-11-20T10:18:00Z</time>
      </trkpt>
      <trkpt lat="43.25134" lon="5.65648">
        <ele>444.2</ele>
        <time>2013-11-20T10:18:04Z</time>
      </trkpt>
      <trkpt lat="43.2513" lon="5.6565">
        <ele>443.6</ele>
        <time>2013-11-20T10:18:08Z</time>
      </trkpt>
      <trkpt lat="43.25126" lon="5.65652">
        <ele>443.8</ele>
        <time>2013-11-20T10:18:11Z</time>
      </trkpt>
      <trkpt lat="43.25123" lon="5.65654">
        <ele>443.8</ele>
        <time>2013-11-20T10:18:14Z</time>
      </trkpt>
      <trkpt lat="43.25119" lon="5.65656">
        <ele>443</ele>
        <time>2013-11-20T10:18:18Z</time>
      </trkpt>
      <trkpt lat="43.25117" lon="5.65656">
        <ele>442.7</ele>
        <time>2013-11-20T10:18:19Z</time>
      </trkpt>
      <trkpt lat="43.25112" lon="5.65658">
        <ele>441.2</ele>
        <time>2013-11-20T10:18:25Z</time>
      </trkpt>
      <trkpt lat="43.25108" lon="5.6566">
        <ele>439.7</ele>
        <time>2013-11-20T10:18:28Z</time>
      </trkpt>
      <trkpt lat="43.25105" lon="5.65662">
        <ele>438.2</ele>
        <time>2013-11-20T10:18:32Z</time>
      </trkpt>
      <trkpt lat="43.25101" lon="5.65664">
        <ele>439.1</ele>
        <time>2013-11-20T10:18:36Z</time>
      </trkpt>
      <trkpt lat="43.25097" lon="5.65666">
        <ele>439.1</ele>
        <time>2013-11-20T10:18:40Z</time>
      </trkpt>
      <trkpt lat="43.25094" lon="5.65669">
        <ele>439.7</ele>
        <time>2013-11-20T10:18:44Z</time>
      </trkpt>
      <trkpt lat="43.2509" lon="5.65672">
        <ele>440.2</ele>
        <time>2013-11-20T10:18:48Z</time>
      </trkpt>
      <trkpt lat="43.25087" lon="5.65676">
        <ele>440</ele>
        <time>2013-11-20T10:18:52Z</time>
      </trkpt>
      <trkpt lat="43.25084" lon="5.65679">
        <ele>440.2</ele>
        <time>2013-11-20T10:18:56Z</time>
      </trkpt>
      <trkpt lat="43.25082" lon="5.65683">
        <ele>440</ele>
        <time>2013-11-20T10:19:00Z</time>
      </trkpt>
      <trkpt lat="43.25079" lon="5.65686">
        <ele>439.6</ele>
        <time>2013-11-20T10:19:04Z</time>
      </trkpt>
      <trkpt lat="43.25076" lon="5.6569">
        <ele>439.6</ele>
        <time>2013-11-20T10:19:08Z</time>
      </trkpt>
      <trkpt lat="43.25073" lon="5.65694">
        <ele>439.3</ele>
        <time>2013-11-20T10:19:11Z</time>
      </trkpt>
      <trkpt lat="43.25071" lon="5.65697">
        <ele>439.1</ele>
        <time>2013-11-20T10:19:14Z</time>
      </trkpt>
      <trkpt lat="43.25068" lon="5.65701">
        <ele>439</ele>
        <time>2013-11-20T10:19:17Z</time>
      </trkpt>
      <trkpt lat="43.25066" lon="5.65704">
        <ele>439</ele>
        <time>2013-11-20T10:19:20Z</time>
      </trkpt>
      <trkpt lat="43.25065" lon="5.65705">
        <ele>439.1</ele>
        <time>2013-11-20T10:19:21Z</time>
      </trkpt>
      <trkpt lat="43.25061" lon="5.65712">
        <ele>439.5</ele>
        <time>2013-11-20T10:19:27Z</time>
      </trkpt>
      <trkpt lat="43.25058" lon="5.65717">
        <ele>439</ele>
        <time>2013-11-20T10:19:31Z</time>
      </trkpt>
      <trkpt lat="43.25056" lon="5.6572">
        <ele>438.6</ele>
        <time>2013-11-20T10:19:34Z</time>
      </trkpt>
      <trkpt lat="43.25053" lon="5.65724">
        <ele>437.7</ele>
        <time>2013-11-20T10:19:37Z</time>
      </trkpt>
      <trkpt lat="43.25052" lon="5.65728">
        <ele>437.6</ele>
        <time>2013-11-20T10:19:40Z</time>
      </trkpt>
      <trkpt lat="43.2505" lon="5.65732">
        <ele>437.7</ele>
        <time>2013-11-20T10:19:43Z</time>
      </trkpt>
      <trkpt lat="43.25049" lon="5.65736">
        <ele>437.8</ele>
        <time>2013-11-20T10:19:46Z</time>
      </trkpt>
      <trkpt lat="43.25047" lon="5.65742">
        <ele>437.7</ele>
        <time>2013-11-20T10:19:50Z</time>
      </trkpt>
      <trkpt lat="43.25046" lon="5.65748">
        <ele>437.2</ele>
        <time>2013-11-20T10:19:55Z</time>
      </trkpt>
      <trkpt lat="43.25045" lon="5.65754">
        <ele>436.7</ele>
        <time>2013-11-20T10:20:00Z</time>
      </trkpt>
      <trkpt lat="43.25043" lon="5.65759">
        <ele>436.2</ele>
        <time>2013-11-20T10:20:04Z</time>
      </trkpt>
      <trkpt lat="43.25042" lon="5.65763">
        <ele>435.7</ele>
        <time>2013-11-20T10:20:08Z</time>
      </trkpt>
      <trkpt lat="43.25041" lon="5.65768">
        <ele>435.3</ele>
        <time>2013-11-20T10:20:12Z</time>
      </trkpt>
      <trkpt lat="43.25039" lon="5.65773">
        <ele>435</ele>
        <time>2013-11-20T10:20:16Z</time>
      </trkpt>
      <trkpt lat="43.25038" lon="5.65778">
        <ele>434.2</ele>
        <time>2013-11-20T10:20:20Z</time>
      </trkpt>
      <trkpt lat="43.25036" lon="5.65783">
        <ele>433.7</ele>
        <time>2013-11-20T10:20:24Z</time>
      </trkpt>
      <trkpt lat="43.25036" lon="5.65784">
        <ele>433.5</ele>
        <time>2013-11-20T10:20:25Z</time>
      </trkpt>
      <trkpt lat="43.25033" lon="5.65793">
        <ele>432.3</ele>
        <time>2013-11-20T10:20:32Z</time>
      </trkpt>
      <trkpt lat="43.25031" lon="5.65798">
        <ele>431.8</ele>
        <time>2013-11-20T10:20:36Z</time>
      </trkpt>
      <trkpt lat="43.25028" lon="5.65803">
        <ele>431.5</ele>
        <time>2013-11-20T10:20:40Z</time>
      </trkpt>
      <trkpt lat="43.25026" lon="5.65807">
        <ele>431.1</ele>
        <time>2013-11-20T10:20:44Z</time>
      </trkpt>
      <trkpt lat="43.25023" lon="5.65811">
        <ele>430.6</ele>
        <time>2013-11-20T10:20:48Z</time>
      </trkpt>
      <trkpt lat="43.2502" lon="5.65814">
        <ele>430.2</ele>
        <time>2013-11-20T10:20:52Z</time>
      </trkpt>
      <trkpt lat="43.25016" lon="5.65818">
        <ele>429.2</ele>
        <time>2013-11-20T10:20:56Z</time>
      </trkpt>
      <trkpt lat="43.25013" lon="5.65822">
        <ele>428.8</ele>
        <time>2013-11-20T10:21:00Z</time>
      </trkpt>
      <trkpt lat="43.25009" lon="5.65825">
        <ele>428.7</ele>
        <time>2013-11-20T10:21:04Z</time>
      </trkpt>
      <trkpt lat="43.25006" lon="5.65828">
        <ele>428.7</ele>
        <time>2013-11-20T10:21:07Z</time>
      </trkpt>
      <trkpt lat="43.25002" lon="5.65831">
        <ele>428.5</ele>
        <time>2013-11-20T10:21:11Z</time>
      </trkpt>
      <trkpt lat="43.24999" lon="5.65834">
        <ele>428</ele>
        <time>2013-11-20T10:21:15Z</time>
      </trkpt>
      <trkpt lat="43.24996" lon="5.65837">
        <ele>427.3</ele>
        <time>2013-11-20T10:21:19Z</time>
      </trkpt>
      <trkpt lat="43.24994" lon="5.65841">
        <ele>426.6</ele>
        <time>2013-11-20T10:21:23Z</time>
      </trkpt>
      <trkpt lat="43.24991" lon="5.65845">
        <ele>426</ele>
        <time>2013-11-20T10:21:27Z</time>
      </trkpt>
      <trkpt lat="43.24991" lon="5.65846">
        <ele>425.8</ele>
        <time>2013-11-20T10:21:28Z</time>
      </trkpt>
      <trkpt lat="43.24987" lon="5.65855">
        <ele>424.8</ele>
        <time>2013-11-20T10:21:35Z</time>
      </trkpt>
      <trkpt lat="43.24985" lon="5.65861">
        <ele>424.3</ele>
        <time>2013-11-20T10:21:39Z</time>
      </trkpt>
      <trkpt lat="43.24983" lon="5.65866">
        <ele>423.5</ele>
        <time>2013-11-20T10:21:43Z</time>
      </trkpt>
      <trkpt lat="43.24982" lon="5.65871">
        <ele>422.5</ele>
        <time>2013-11-20T10:21:47Z</time>
      </trkpt>
      <trkpt lat="43.2498" lon="5.65876">
        <ele>421.7</ele>
        <time>2013-11-20T10:21:51Z</time>
      </trkpt>
      <trkpt lat="43.24978" lon="5.65882">
        <ele>421.5</ele>
        <time>2013-11-20T10:21:55Z</time>
      </trkpt>
      <trkpt lat="43.24977" lon="5.65887">
        <ele>420.7</ele>
        <time>2013-11-20T10:21:59Z</time>
      </trkpt>
      <trkpt lat="43.24976" lon="5.65892">
        <ele>420.1</ele>
        <time>2013-11-20T10:22:03Z</time>
      </trkpt>
      <trkpt lat="43.24974" lon="5.65897">
        <ele>419.3</ele>
        <time>2013-11-20T10:22:08Z</time>
      </trkpt>
      <trkpt lat="43.24973" lon="5.65901">
        <ele>419.2</ele>
        <time>2013-11-20T10:22:11Z</time>
      </trkpt>
      <trkpt lat="43.24971" lon="5.65907">
        <ele>418.3</ele>
        <time>2013-11-20T10:22:15Z</time>
      </trkpt>
      <trkpt lat="43.2497" lon="5.65912">
        <ele>417.7</ele>
        <time>2013-11-20T10:22:19Z</time>
      </trkpt>
      <trkpt lat="43.24968" lon="5.65918">
        <ele>416.7</ele>
        <time>2013-11-20T10:22:23Z</time>
      </trkpt>
      <trkpt lat="43.24967" lon="5.65922">
        <ele>416</ele>
        <time>2013-11-20T10:22:27Z</time>
      </trkpt>
      <trkpt lat="43.24965" lon="5.65928">
        <ele>415.7</ele>
        <time>2013-11-20T10:22:33Z</time>
      </trkpt>
      <trkpt lat="43.24965" lon="5.65929">
        <ele>415.7</ele>
        <time>2013-11-20T10:22:34Z</time>
      </trkpt>
      <trkpt lat="43.24963" lon="5.65939">
        <ele>414.8</ele>
        <time>2013-11-20T10:22:43Z</time>
      </trkpt>
      <trkpt lat="43.24962" lon="5.65945">
        <ele>414.2</ele>
        <time>2013-11-20T10:22:48Z</time>
      </trkpt>
      <trkpt lat="43.24961" lon="5.6595">
        <ele>413.3</ele>
        <time>2013-11-20T10:22:53Z</time>
      </trkpt>
      <trkpt lat="43.2496" lon="5.65955">
        <ele>412.7</ele>
        <time>2013-11-20T10:22:58Z</time>
      </trkpt>
      <trkpt lat="43.24959" lon="5.6596">
        <ele>412.2</ele>
        <time>2013-11-20T10:23:03Z</time>
      </trkpt>
      <trkpt lat="43.24958" lon="5.65966">
        <ele>411.2</ele>
        <time>2013-11-20T10:23:08Z</time>
      </trkpt>
      <trkpt lat="43.24957" lon="5.65971">
        <ele>410.5</ele>
        <time>2013-11-20T10:23:13Z</time>
      </trkpt>
      <trkpt lat="43.24956" lon="5.65977">
        <ele>410</ele>
        <time>2013-11-20T10:23:18Z</time>
      </trkpt>
      <trkpt lat="43.24955" lon="5.65982">
        <ele>410</ele>
        <time>2013-11-20T10:23:21Z</time>
      </trkpt>
      <trkpt lat="43.24954" lon="5.65988">
        <ele>408.8</ele>
        <time>2013-11-20T10:23:26Z</time>
      </trkpt>
      <trkpt lat="43.24954" lon="5.65993">
        <ele>408.2</ele>
        <time>2013-11-20T10:23:30Z</time>
      </trkpt>
      <trkpt lat="43.24953" lon="5.65998">
        <ele>407.6</ele>
        <time>2013-11-20T10:23:34Z</time>
      </trkpt>
      <trkpt lat="43.24953" lon="5.65999">
        <ele>407.3</ele>
        <time>2013-11-20T10:23:35Z</time>
      </trkpt>
      <trkpt lat="43.24952" lon="5.66009">
        <ele>406.2</ele>
        <time>2013-11-20T10:23:42Z</time>
      </trkpt>
      <trkpt lat="43.24951" lon="5.66014">
        <ele>405.6</ele>
        <time>2013-11-20T10:23:46Z</time>
      </trkpt>
      <trkpt lat="43.2495" lon="5.6602">
        <ele>405.3</ele>
        <time>2013-11-20T10:23:52Z</time>
      </trkpt>
      <trkpt lat="43.24949" lon="5.66025">
        <ele>408.7</ele>
        <time>2013-11-20T10:24:10Z</time>
      </trkpt>
      <trkpt lat="43.24948" lon="5.66031">
        <ele>409.2</ele>
        <time>2013-11-20T10:24:16Z</time>
      </trkpt>
      <trkpt lat="43.24946" lon="5.66036">
        <ele>408.3</ele>
        <time>2013-11-20T10:24:22Z</time>
      </trkpt>
      <trkpt lat="43.24944" lon="5.66041">
        <ele>407.2</ele>
        <time>2013-11-20T10:24:28Z</time>
      </trkpt>
      <trkpt lat="43.24941" lon="5.66046">
        <ele>406.2</ele>
        <time>2013-11-20T10:24:35Z</time>
      </trkpt>
      <trkpt lat="43.24941" lon="5.66047">
        <ele>406.1</ele>
        <time>2013-11-20T10:24:36Z</time>
      </trkpt>
      <trkpt lat="43.24937" lon="5.66056">
        <ele>404.2</ele>
        <time>2013-11-20T10:24:45Z</time>
      </trkpt>
      <trkpt lat="43.24934" lon="5.6606">
        <ele>403.2</ele>
        <time>2013-11-20T10:24:50Z</time>
      </trkpt>
      <trkpt lat="43.24931" lon="5.66064">
        <ele>402.6</ele>
        <time>2013-11-20T10:24:55Z</time>
      </trkpt>
      <trkpt lat="43.24927" lon="5.66068">
        <ele>401.7</ele>
        <time>2013-11-20T10:25:00Z</time>
      </trkpt>
      <trkpt lat="43.24924" lon="5.66072">
        <ele>401.2</ele>
        <time>2013-11-20T10:25:05Z</time>
      </trkpt>
      <trkpt lat="43.24921" lon="5.66075">
        <ele>400.7</ele>
        <time>2013-11-20T10:25:10Z</time>
      </trkpt>
      <trkpt lat="43.24918" lon="5.66079">
        <ele>400.5</ele>
        <time>2013-11-20T10:25:15Z</time>
      </trkpt>
      <trkpt lat="43.24915" lon="5.66083">
        <ele>399.7</ele>
        <time>2013-11-20T10:25:20Z</time>
      </trkpt>
      <trkpt lat="43.24912" lon="5.66086">
        <ele>399.2</ele>
        <time>2013-11-20T10:25:25Z</time>
      </trkpt>
      <trkpt lat="43.24909" lon="5.66089">
        <ele>399.1</ele>
        <time>2013-11-20T10:25:29Z</time>
      </trkpt>
      <trkpt lat="43.24906" lon="5.66093">
        <ele>398.6</ele>
        <time>2013-11-20T10:25:34Z</time>
      </trkpt>
      <trkpt lat="43.24903" lon="5.66096">
        <ele>398.2</ele>
        <time>2013-11-20T10:25:39Z</time>
      </trkpt>
      <trkpt lat="43.24902" lon="5.66097">
        <ele>398.5</ele>
        <time>2013-11-20T10:25:40Z</time>
      </trkpt>
      <trkpt lat="43.24897" lon="5.66102">
        <ele>398.5</ele>
        <time>2013-11-20T10:25:45Z</time>
      </trkpt>
      <trkpt lat="43.24894" lon="5.66105">
        <ele>397.7</ele>
        <time>2013-11-20T10:25:49Z</time>
      </trkpt>
      <trkpt lat="43.2489" lon="5.66108">
        <ele>397.3</ele>
        <time>2013-11-20T10:25:53Z</time>
      </trkpt>
      <trkpt lat="43.24886" lon="5.66111">
        <ele>397</ele>
        <time>2013-11-20T10:25:57Z</time>
      </trkpt>
      <trkpt lat="43.24884" lon="5.66114">
        <ele>396.7</ele>
        <time>2013-11-20T10:26:00Z</time>
      </trkpt>
      <trkpt lat="43.24881" lon="5.66117">
        <ele>396.3</ele>
        <time>2013-11-20T10:26:03Z</time>
      </trkpt>
      <trkpt lat="43.24878" lon="5.6612">
        <ele>396</ele>
        <time>2013-11-20T10:26:06Z</time>
      </trkpt>
      <trkpt lat="43.24875" lon="5.66124">
        <ele>395.2</ele>
        <time>2013-11-20T10:26:10Z</time>
      </trkpt>
      <trkpt lat="43.24872" lon="5.66127">
        <ele>394.3</ele>
        <time>2013-11-20T10:26:14Z</time>
      </trkpt>
      <trkpt lat="43.2487" lon="5.66131">
        <ele>393.2</ele>
        <time>2013-11-20T10:26:19Z</time>
      </trkpt>
      <trkpt lat="43.24867" lon="5.66136">
        <ele>392.2</ele>
        <time>2013-11-20T10:26:24Z</time>
      </trkpt>
      <trkpt lat="43.24865" lon="5.6614">
        <ele>391.7</ele>
        <time>2013-11-20T10:26:28Z</time>
      </trkpt>
      <trkpt lat="43.24863" lon="5.66145">
        <ele>391.2</ele>
        <time>2013-11-20T10:26:33Z</time>
      </trkpt>
      <trkpt lat="43.24861" lon="5.66149">
        <ele>390.5</ele>
        <time>2013-11-20T10:26:37Z</time>
      </trkpt>
      <trkpt lat="43.24859" lon="5.66154">
        <ele>389.7</ele>
        <time>2013-11-20T10:26:41Z</time>
      </trkpt>
      <trkpt lat="43.24858" lon="5.66155">
        <ele>389.3</ele>
        <time>2013-11-20T10:26:42Z</time>
      </trkpt>
      <trkpt lat="43.24853" lon="5.66163">
        <ele>388.7</ele>
        <time>2013-11-20T10:26:49Z</time>
      </trkpt>
      <trkpt lat="43.2485" lon="5.66167">
        <ele>388.2</ele>
        <time>2013-11-20T10:26:53Z</time>
      </trkpt>
      <trkpt lat="43.24847" lon="5.66172">
        <ele>387.7</ele>
        <time>2013-11-20T10:26:57Z</time>
      </trkpt>
      <trkpt lat="43.24844" lon="5.66176">
        <ele>387.5</ele>
        <time>2013-11-20T10:27:02Z</time>
      </trkpt>
      <trkpt lat="43.24841" lon="5.66179">
        <ele>387.2</ele>
        <time>2013-11-20T10:27:06Z</time>
      </trkpt>
      <trkpt lat="43.24837" lon="5.66182">
        <ele>386.2</ele>
        <time>2013-11-20T10:27:11Z</time>
      </trkpt>
      <trkpt lat="43.24834" lon="5.66186">
        <ele>385</ele>
        <time>2013-11-20T10:27:16Z</time>
      </trkpt>
      <trkpt lat="43.24831" lon="5.66188">
        <ele>384.2</ele>
        <time>2013-11-20T10:27:20Z</time>
      </trkpt>
      <trkpt lat="43.24827" lon="5.66191">
        <ele>383.7</ele>
        <time>2013-11-20T10:27:24Z</time>
      </trkpt>
      <trkpt lat="43.24824" lon="5.66193">
        <ele>383.2</ele>
        <time>2013-11-20T10:27:28Z</time>
      </trkpt>
      <trkpt lat="43.24821" lon="5.66196">
        <ele>382.5</ele>
        <time>2013-11-20T10:27:32Z</time>
      </trkpt>
      <trkpt lat="43.24818" lon="5.66198">
        <ele>382.2</ele>
        <time>2013-11-20T10:27:35Z</time>
      </trkpt>
      <trkpt lat="43.24814" lon="5.66199">
        <ele>382.1</ele>
        <time>2013-11-20T10:27:39Z</time>
      </trkpt>
      <trkpt lat="43.2481" lon="5.66201">
        <ele>381.7</ele>
        <time>2013-11-20T10:27:43Z</time>
      </trkpt>
      <trkpt lat="43.24809" lon="5.66201">
        <ele>381.5</ele>
        <time>2013-11-20T10:27:44Z</time>
      </trkpt>
      <trkpt lat="43.24801" lon="5.66201">
        <ele>380</ele>
        <time>2013-11-20T10:27:56Z</time>
      </trkpt>
      <trkpt lat="43.24798" lon="5.66202">
        <ele>379.2</ele>
        <time>2013-11-20T10:28:00Z</time>
      </trkpt>
      <trkpt lat="43.24794" lon="5.66203">
        <ele>378.8</ele>
        <time>2013-11-20T10:28:04Z</time>
      </trkpt>
      <trkpt lat="43.2479" lon="5.66204">
        <ele>378.1</ele>
        <time>2013-11-20T10:28:08Z</time>
      </trkpt>
      <trkpt lat="43.24786" lon="5.66205">
        <ele>377.6</ele>
        <time>2013-11-20T10:28:12Z</time>
      </trkpt>
      <trkpt lat="43.24783" lon="5.66206">
        <ele>376.7</ele>
        <time>2013-11-20T10:28:16Z</time>
      </trkpt>
      <trkpt lat="43.24778" lon="5.66206">
        <ele>375.5</ele>
        <time>2013-11-20T10:28:21Z</time>
      </trkpt>
      <trkpt lat="43.24775" lon="5.66207">
        <ele>374.6</ele>
        <time>2013-11-20T10:28:25Z</time>
      </trkpt>
      <trkpt lat="43.24771" lon="5.66208">
        <ele>373.8</ele>
        <time>2013-11-20T10:28:29Z</time>
      </trkpt>
      <trkpt lat="43.24767" lon="5.66208">
        <ele>373.2</ele>
        <time>2013-11-20T10:28:33Z</time>
      </trkpt>
      <trkpt lat="43.24763" lon="5.66209">
        <ele>372.3</ele>
        <time>2013-11-20T10:28:37Z</time>
      </trkpt>
      <trkpt lat="43.2476" lon="5.66208">
        <ele>371.7</ele>
        <time>2013-11-20T10:28:41Z</time>
      </trkpt>
      <trkpt lat="43.24755" lon="5.66207">
        <ele>370.6</ele>
        <time>2013-11-20T10:28:46Z</time>
      </trkpt>
      <trkpt lat="43.24754" lon="5.66207">
        <ele>370.2</ele>
        <time>2013-11-20T10:28:47Z</time>
      </trkpt>
      <trkpt lat="43.24748" lon="5.66204">
        <ele>368.6</ele>
        <time>2013-11-20T10:28:55Z</time>
      </trkpt>
      <trkpt lat="43.24744" lon="5.66202">
        <ele>367.3</ele>
        <time>2013-11-20T10:29:00Z</time>
      </trkpt>
      <trkpt lat="43.2474" lon="5.662">
        <ele>366.2</ele>
        <time>2013-11-20T10:29:05Z</time>
      </trkpt>
      <trkpt lat="43.24736" lon="5.66196">
        <ele>365.8</ele>
        <time>2013-11-20T10:29:10Z</time>
      </trkpt>
      <trkpt lat="43.24733" lon="5.66195">
        <ele>364.3</ele>
        <time>2013-11-20T10:29:15Z</time>
      </trkpt>
      <trkpt lat="43.24729" lon="5.66193">
        <ele>363.2</ele>
        <time>2013-11-20T10:29:19Z</time>
      </trkpt>
      <trkpt lat="43.24726" lon="5.66191">
        <ele>361.7</ele>
        <time>2013-11-20T10:29:26Z</time>
      </trkpt>
      <trkpt lat="43.24722" lon="5.66191">
        <ele>360.5</ele>
        <time>2013-11-20T10:29:31Z</time>
      </trkpt>
      <trkpt lat="43.24717" lon="5.6619">
        <ele>359.2</ele>
        <time>2013-11-20T10:29:36Z</time>
      </trkpt>
      <trkpt lat="43.24713" lon="5.66191">
        <ele>359.2</ele>
        <time>2013-11-20T10:29:41Z</time>
      </trkpt>
      <trkpt lat="43.24712" lon="5.66196">
        <ele>356.7</ele>
        <time>2013-11-20T10:29:57Z</time>
      </trkpt>
      <trkpt lat="43.24712" lon="5.66197">
        <ele>356.7</ele>
        <time>2013-11-20T10:29:58Z</time>
      </trkpt>
      <trkpt lat="43.24705" lon="5.66202">
        <ele>355.7</ele>
        <time>2013-11-20T10:30:10Z</time>
      </trkpt>
      <trkpt lat="43.24701" lon="5.66205">
        <ele>354.7</ele>
        <time>2013-11-20T10:30:16Z</time>
      </trkpt>
      <trkpt lat="43.24698" lon="5.66208">
        <ele>353.2</ele>
        <time>2013-11-20T10:30:22Z</time>
      </trkpt>
      <trkpt lat="43.24695" lon="5.66212">
        <ele>351.8</ele>
        <time>2013-11-20T10:30:27Z</time>
      </trkpt>
      <trkpt lat="43.24692" lon="5.66216">
        <ele>350.7</ele>
        <time>2013-11-20T10:30:33Z</time>
      </trkpt>
      <trkpt lat="43.2469" lon="5.66219">
        <ele>350.5</ele>
        <time>2013-11-20T10:30:38Z</time>
      </trkpt>
      <trkpt lat="43.24687" lon="5.66222">
        <ele>349.6</ele>
        <time>2013-11-20T10:30:44Z</time>
      </trkpt>
      <trkpt lat="43.24683" lon="5.66225">
        <ele>348.8</ele>
        <time>2013-11-20T10:30:53Z</time>
      </trkpt>
      <trkpt lat="43.2468" lon="5.66229">
        <ele>348</ele>
        <time>2013-11-20T10:30:59Z</time>
      </trkpt>
      <trkpt lat="43.24679" lon="5.66229">
        <ele>347.7</ele>
        <time>2013-11-20T10:31:00Z</time>
      </trkpt>
      <trkpt lat="43.24673" lon="5.66237">
        <ele>346.2</ele>
        <time>2013-11-20T10:31:09Z</time>
      </trkpt>
      <trkpt lat="43.2467" lon="5.6624">
        <ele>345.5</ele>
        <time>2013-11-20T10:31:14Z</time>
      </trkpt>
      <trkpt lat="43.24666" lon="5.66242">
        <ele>345</ele>
        <time>2013-11-20T10:31:18Z</time>
      </trkpt>
      <trkpt lat="43.24663" lon="5.66244">
        <ele>344.8</ele>
        <time>2013-11-20T10:31:22Z</time>
      </trkpt>
      <trkpt lat="43.24658" lon="5.66244">
        <ele>344.2</ele>
        <time>2013-11-20T10:31:26Z</time>
      </trkpt>
      <trkpt lat="43.24654" lon="5.66244">
        <ele>344.5</ele>
        <time>2013-11-20T10:31:37Z</time>
      </trkpt>
      <trkpt lat="43.24651" lon="5.66247">
        <ele>343.1</ele>
        <time>2013-11-20T10:31:41Z</time>
      </trkpt>
      <trkpt lat="43.24651" lon="5.66252">
        <ele>342.5</ele>
        <time>2013-11-20T10:31:45Z</time>
      </trkpt>
      <trkpt lat="43.24653" lon="5.66257">
        <ele>342.2</ele>
        <time>2013-11-20T10:31:50Z</time>
      </trkpt>
      <trkpt lat="43.24656" lon="5.66259">
        <ele>341.8</ele>
        <time>2013-11-20T10:31:54Z</time>
      </trkpt>
      <trkpt lat="43.24659" lon="5.66262">
        <ele>341.7</ele>
        <time>2013-11-20T10:31:58Z</time>
      </trkpt>
      <trkpt lat="43.24662" lon="5.66265">
        <ele>341.3</ele>
        <time>2013-11-20T10:32:02Z</time>
      </trkpt>
      <trkpt lat="43.24662" lon="5.66266">
        <ele>341.2</ele>
        <time>2013-11-20T10:32:03Z</time>
      </trkpt>
      <trkpt lat="43.24657" lon="5.66266">
        <ele>347.2</ele>
        <time>2013-11-20T10:33:48Z</time>
      </trkpt>
      <trkpt lat="43.2465" lon="5.66265">
        <ele>345.1</ele>
        <time>2013-11-20T10:34:04Z</time>
      </trkpt>
      <trkpt lat="43.24646" lon="5.66265">
        <ele>342.3</ele>
        <time>2013-11-20T10:34:11Z</time>
      </trkpt>
      <trkpt lat="43.24642" lon="5.66265">
        <ele>340.6</ele>
        <time>2013-11-20T10:34:17Z</time>
      </trkpt>
      <trkpt lat="43.24638" lon="5.66265">
        <ele>338.7</ele>
        <time>2013-11-20T10:34:23Z</time>
      </trkpt>
      <trkpt lat="43.24634" lon="5.66267">
        <ele>337.8</ele>
        <time>2013-11-20T10:34:27Z</time>
      </trkpt>
      <trkpt lat="43.2463" lon="5.66267">
        <ele>336.5</ele>
        <time>2013-11-20T10:34:32Z</time>
      </trkpt>
      <trkpt lat="43.24626" lon="5.66267">
        <ele>335.1</ele>
        <time>2013-11-20T10:34:37Z</time>
      </trkpt>
      <trkpt lat="43.24623" lon="5.66267">
        <ele>334.2</ele>
        <time>2013-11-20T10:34:41Z</time>
      </trkpt>
      <trkpt lat="43.24619" lon="5.66268">
        <ele>333.7</ele>
        <time>2013-11-20T10:34:45Z</time>
      </trkpt>
      <trkpt lat="43.24615" lon="5.66268">
        <ele>333</ele>
        <time>2013-11-20T10:34:50Z</time>
      </trkpt>
      <trkpt lat="43.24614" lon="5.66268">
        <ele>332.7</ele>
        <time>2013-11-20T10:34:51Z</time>
      </trkpt>
      <trkpt lat="43.24607" lon="5.66269">
        <ele>331.2</ele>
        <time>2013-11-20T10:34:58Z</time>
      </trkpt>
      <trkpt lat="43.24603" lon="5.66269">
        <ele>330.1</ele>
        <time>2013-11-20T10:35:01Z</time>
      </trkpt>
      <trkpt lat="43.24599" lon="5.6627">
        <ele>327.7</ele>
        <time>2013-11-20T10:35:05Z</time>
      </trkpt>
      <trkpt lat="43.24596" lon="5.66272">
        <ele>325.7</ele>
        <time>2013-11-20T10:35:09Z</time>
      </trkpt>
      <trkpt lat="43.24593" lon="5.66273">
        <ele>328.2</ele>
        <time>2013-11-20T10:35:12Z</time>
      </trkpt>
      <trkpt lat="43.24591" lon="5.66278">
        <ele>330.2</ele>
        <time>2013-11-20T10:35:17Z</time>
      </trkpt>
      <trkpt lat="43.24592" lon="5.66282">
        <ele>330.5</ele>
        <time>2013-11-20T10:35:20Z</time>
      </trkpt>
      <trkpt lat="43.24595" lon="5.66286">
        <ele>331.3</ele>
        <time>2013-11-20T10:35:23Z</time>
      </trkpt>
      <trkpt lat="43.24598" lon="5.66289">
        <ele>331.8</ele>
        <time>2013-11-20T10:35:27Z</time>
      </trkpt>
      <trkpt lat="43.24602" lon="5.66291">
        <ele>330.6</ele>
        <time>2013-11-20T10:35:32Z</time>
      </trkpt>
      <trkpt lat="43.24604" lon="5.66296">
        <ele>329.2</ele>
        <time>2013-11-20T10:35:36Z</time>
      </trkpt>
      <trkpt lat="43.24606" lon="5.66301">
        <ele>329.6</ele>
        <time>2013-11-20T10:35:40Z</time>
      </trkpt>
      <trkpt lat="43.24607" lon="5.66307">
        <ele>329.7</ele>
        <time>2013-11-20T10:35:44Z</time>
      </trkpt>
      <trkpt lat="43.24609" lon="5.66311">
        <ele>329.3</ele>
        <time>2013-11-20T10:35:48Z</time>
      </trkpt>
      <trkpt lat="43.24611" lon="5.66315">
        <ele>329.7</ele>
        <time>2013-11-20T10:35:52Z</time>
      </trkpt>
      <trkpt lat="43.24611" lon="5.66317">
        <ele>330</ele>
        <time>2013-11-20T10:35:53Z</time>
      </trkpt>
      <trkpt lat="43.24614" lon="5.66326">
        <ele>331.2</ele>
        <time>2013-11-20T10:36:01Z</time>
      </trkpt>
      <trkpt lat="43.24616" lon="5.66331">
        <ele>331.3</ele>
        <time>2013-11-20T10:36:06Z</time>
      </trkpt>
      <trkpt lat="43.24617" lon="5.66336">
        <ele>331.8</ele>
        <time>2013-11-20T10:36:11Z</time>
      </trkpt>
      <trkpt lat="43.24618" lon="5.66341">
        <ele>332.2</ele>
        <time>2013-11-20T10:36:16Z</time>
      </trkpt>
      <trkpt lat="43.2462" lon="5.66346">
        <ele>333</ele>
        <time>2013-11-20T10:36:21Z</time>
      </trkpt>
      <trkpt lat="43.24622" lon="5.66351">
        <ele>333.3</ele>
        <time>2013-11-20T10:36:26Z</time>
      </trkpt>
      <trkpt lat="43.24623" lon="5.66356">
        <ele>333.7</ele>
        <time>2013-11-20T10:36:31Z</time>
      </trkpt>
      <trkpt lat="43.24625" lon="5.66362">
        <ele>333.8</ele>
        <time>2013-11-20T10:36:36Z</time>
      </trkpt>
      <trkpt lat="43.24626" lon="5.66367">
        <ele>334</ele>
        <time>2013-11-20T10:36:41Z</time>
      </trkpt>
      <trkpt lat="43.24628" lon="5.66372">
        <ele>334.2</ele>
        <time>2013-11-20T10:36:47Z</time>
      </trkpt>
      <trkpt lat="43.24629" lon="5.66378">
        <ele>334.3</ele>
        <time>2013-11-20T10:36:53Z</time>
      </trkpt>
      <trkpt lat="43.24629" lon="5.66379">
        <ele>334.2</ele>
        <time>2013-11-20T10:36:54Z</time>
      </trkpt>
      <trkpt lat="43.24632" lon="5.66387">
        <ele>336</ele>
        <time>2013-11-20T10:37:03Z</time>
      </trkpt>
      <trkpt lat="43.24634" lon="5.66392">
        <ele>336.8</ele>
        <time>2013-11-20T10:37:07Z</time>
      </trkpt>
      <trkpt lat="43.24636" lon="5.66397">
        <ele>338.2</ele>
        <time>2013-11-20T10:37:12Z</time>
      </trkpt>
      <trkpt lat="43.24638" lon="5.66402">
        <ele>338.5</ele>
        <time>2013-11-20T10:37:17Z</time>
      </trkpt>
      <trkpt lat="43.24641" lon="5.66407">
        <ele>339.1</ele>
        <time>2013-11-20T10:37:22Z</time>
      </trkpt>
      <trkpt lat="43.24643" lon="5.66412">
        <ele>339.6</ele>
        <time>2013-11-20T10:37:27Z</time>
      </trkpt>
      <trkpt lat="43.24645" lon="5.66416">
        <ele>340</ele>
        <time>2013-11-20T10:37:31Z</time>
      </trkpt>
      <trkpt lat="43.24647" lon="5.66421">
        <ele>339.6</ele>
        <time>2013-11-20T10:37:36Z</time>
      </trkpt>
      <trkpt lat="43.24649" lon="5.66425">
        <ele>340</ele>
        <time>2013-11-20T10:37:40Z</time>
      </trkpt>
      <trkpt lat="43.24651" lon="5.66429">
        <ele>340.6</ele>
        <time>2013-11-20T10:37:44Z</time>
      </trkpt>
      <trkpt lat="43.24653" lon="5.66434">
        <ele>341.1</ele>
        <time>2013-11-20T10:37:48Z</time>
      </trkpt>
      <trkpt lat="43.24655" lon="5.66439">
        <ele>341.7</ele>
        <time>2013-11-20T10:37:53Z</time>
      </trkpt>
      <trkpt lat="43.24657" lon="5.66443">
        <ele>341.8</ele>
        <time>2013-11-20T10:37:57Z</time>
      </trkpt>
      <trkpt lat="43.24657" lon="5.66446">
        <ele>342.6</ele>
        <time>2013-11-20T10:37:58Z</time>
      </trkpt>
      <trkpt lat="43.24659" lon="5.66454">
        <ele>341.8</ele>
        <time>2013-11-20T10:38:04Z</time>
      </trkpt>
      <trkpt lat="43.24662" lon="5.66459">
        <ele>342</ele>
        <time>2013-11-20T10:38:09Z</time>
      </trkpt>
      <trkpt lat="43.24665" lon="5.66463">
        <ele>342.5</ele>
        <time>2013-11-20T10:38:13Z</time>
      </trkpt>
      <trkpt lat="43.24666" lon="5.66468">
        <ele>342.2</ele>
        <time>2013-11-20T10:38:18Z</time>
      </trkpt>
      <trkpt lat="43.24668" lon="5.66473">
        <ele>343.1</ele>
        <time>2013-11-20T10:38:23Z</time>
      </trkpt>
      <trkpt lat="43.2467" lon="5.66477">
        <ele>344.3</ele>
        <time>2013-11-20T10:38:27Z</time>
      </trkpt>
      <trkpt lat="43.24672" lon="5.66482">
        <ele>345.2</ele>
        <time>2013-11-20T10:38:31Z</time>
      </trkpt>
      <trkpt lat="43.24674" lon="5.66487">
        <ele>345.8</ele>
        <time>2013-11-20T10:38:36Z</time>
      </trkpt>
      <trkpt lat="43.24675" lon="5.66492">
        <ele>346.3</ele>
        <time>2013-11-20T10:38:40Z</time>
      </trkpt>
      <trkpt lat="43.24676" lon="5.66498">
        <ele>346.7</ele>
        <time>2013-11-20T10:38:44Z</time>
      </trkpt>
      <trkpt lat="43.24677" lon="5.66503">
        <ele>346.8</ele>
        <time>2013-11-20T10:38:48Z</time>
      </trkpt>
      <trkpt lat="43.24678" lon="5.66508">
        <ele>347</ele>
        <time>2013-11-20T10:38:52Z</time>
      </trkpt>
      <trkpt lat="43.24679" lon="5.66514">
        <ele>347.1</ele>
        <time>2013-11-20T10:38:56Z</time>
      </trkpt>
      <trkpt lat="43.2468" lon="5.66519">
        <ele>346.8</ele>
        <time>2013-11-20T10:39:00Z</time>
      </trkpt>
      <trkpt lat="43.2468" lon="5.6652">
        <ele>346.7</ele>
        <time>2013-11-20T10:39:01Z</time>
      </trkpt>
      <trkpt lat="43.24681" lon="5.66529">
        <ele>346.3</ele>
        <time>2013-11-20T10:39:08Z</time>
      </trkpt>
      <trkpt lat="43.24681" lon="5.66535">
        <ele>346.5</ele>
        <time>2013-11-20T10:39:12Z</time>
      </trkpt>
      <trkpt lat="43.24681" lon="5.66541">
        <ele>346.2</ele>
        <time>2013-11-20T10:39:16Z</time>
      </trkpt>
      <trkpt lat="43.24681" lon="5.66546">
        <ele>346.2</ele>
        <time>2013-11-20T10:39:19Z</time>
      </trkpt>
      <trkpt lat="43.24682" lon="5.66551">
        <ele>346.1</ele>
        <time>2013-11-20T10:39:22Z</time>
      </trkpt>
      <trkpt lat="43.24681" lon="5.66557">
        <ele>345.8</ele>
        <time>2013-11-20T10:39:26Z</time>
      </trkpt>
      <trkpt lat="43.24681" lon="5.66562">
        <ele>345.6</ele>
        <time>2013-11-20T10:39:30Z</time>
      </trkpt>
      <trkpt lat="43.24681" lon="5.66568">
        <ele>345.2</ele>
        <time>2013-11-20T10:39:33Z</time>
      </trkpt>
      <trkpt lat="43.2468" lon="5.66573">
        <ele>344.7</ele>
        <time>2013-11-20T10:39:36Z</time>
      </trkpt>
      <trkpt lat="43.2468" lon="5.66578">
        <ele>344.5</ele>
        <time>2013-11-20T10:39:39Z</time>
      </trkpt>
      <trkpt lat="43.2468" lon="5.66584">
        <ele>344.1</ele>
        <time>2013-11-20T10:39:42Z</time>
      </trkpt>
      <trkpt lat="43.2468" lon="5.66589">
        <ele>344.1</ele>
        <time>2013-11-20T10:39:45Z</time>
      </trkpt>
      <trkpt lat="43.2468" lon="5.66594">
        <ele>344.1</ele>
        <time>2013-11-20T10:39:48Z</time>
      </trkpt>
      <trkpt lat="43.2468" lon="5.666">
        <ele>343.7</ele>
        <time>2013-11-20T10:39:51Z</time>
      </trkpt>
      <trkpt lat="43.24679" lon="5.66605">
        <ele>343.6</ele>
        <time>2013-11-20T10:39:54Z</time>
      </trkpt>
      <trkpt lat="43.2468" lon="5.66611">
        <ele>343.7</ele>
        <time>2013-11-20T10:39:58Z</time>
      </trkpt>
      <trkpt lat="43.2468" lon="5.66616">
        <ele>343.6</ele>
        <time>2013-11-20T10:40:01Z</time>
      </trkpt>
      <trkpt lat="43.24679" lon="5.66618">
        <ele>343.5</ele>
        <time>2013-11-20T10:40:02Z</time>
      </trkpt>
      <trkpt lat="43.24679" lon="5.66626">
        <ele>342.5</ele>
        <time>2013-11-20T10:40:07Z</time>
      </trkpt>
      <trkpt lat="43.24679" lon="5.66631">
        <ele>341.5</ele>
        <time>2013-11-20T10:40:10Z</time>
      </trkpt>
      <trkpt lat="43.24678" lon="5.66637">
        <ele>341.1</ele>
        <time>2013-11-20T10:40:14Z</time>
      </trkpt>
      <trkpt lat="43.24677" lon="5.66642">
        <ele>341.2</ele>
        <time>2013-11-20T10:40:18Z</time>
      </trkpt>
      <trkpt lat="43.24676" lon="5.66647">
        <ele>341</ele>
        <time>2013-11-20T10:40:22Z</time>
      </trkpt>
      <trkpt lat="43.24676" lon="5.66652">
        <ele>340.2</ele>
        <time>2013-11-20T10:40:27Z</time>
      </trkpt>
      <trkpt lat="43.24677" lon="5.66657">
        <ele>339.6</ele>
        <time>2013-11-20T10:40:33Z</time>
      </trkpt>
      <trkpt lat="43.24675" lon="5.66663">
        <ele>340.6</ele>
        <time>2013-11-20T10:40:37Z</time>
      </trkpt>
      <trkpt lat="43.24673" lon="5.66668">
        <ele>340.7</ele>
        <time>2013-11-20T10:40:41Z</time>
      </trkpt>
      <trkpt lat="43.24672" lon="5.66673">
        <ele>341.1</ele>
        <time>2013-11-20T10:40:45Z</time>
      </trkpt>
      <trkpt lat="43.24671" lon="5.66679">
        <ele>340.5</ele>
        <time>2013-11-20T10:40:50Z</time>
      </trkpt>
      <trkpt lat="43.2467" lon="5.66684">
        <ele>340.2</ele>
        <time>2013-11-20T10:40:54Z</time>
      </trkpt>
      <trkpt lat="43.2467" lon="5.66689">
        <ele>339.7</ele>
        <time>2013-11-20T10:40:59Z</time>
      </trkpt>
      <trkpt lat="43.24667" lon="5.66694">
        <ele>340</ele>
        <time>2013-11-20T10:41:02Z</time>
      </trkpt>
      <trkpt lat="43.24667" lon="5.66695">
        <ele>339.8</ele>
        <time>2013-11-20T10:41:03Z</time>
      </trkpt>
      <trkpt lat="43.24664" lon="5.66705">
        <ele>337.5</ele>
        <time>2013-11-20T10:41:12Z</time>
      </trkpt>
      <trkpt lat="43.24663" lon="5.6671">
        <ele>335.7</ele>
        <time>2013-11-20T10:41:17Z</time>
      </trkpt>
      <trkpt lat="43.24662" lon="5.66715">
        <ele>334.7</ele>
        <time>2013-11-20T10:41:22Z</time>
      </trkpt>
      <trkpt lat="43.2466" lon="5.6672">
        <ele>333.8</ele>
        <time>2013-11-20T10:41:28Z</time>
      </trkpt>
      <trkpt lat="43.24659" lon="5.66725">
        <ele>332.3</ele>
        <time>2013-11-20T10:41:33Z</time>
      </trkpt>
      <trkpt lat="43.24657" lon="5.66731">
        <ele>331.2</ele>
        <time>2013-11-20T10:41:38Z</time>
      </trkpt>
      <trkpt lat="43.24655" lon="5.66736">
        <ele>331.1</ele>
        <time>2013-11-20T10:41:42Z</time>
      </trkpt>
      <trkpt lat="43.24654" lon="5.66741">
        <ele>330.5</ele>
        <time>2013-11-20T10:41:47Z</time>
      </trkpt>
      <trkpt lat="43.24652" lon="5.66747">
        <ele>329.7</ele>
        <time>2013-11-20T10:41:52Z</time>
      </trkpt>
      <trkpt lat="43.24651" lon="5.66752">
        <ele>329.5</ele>
        <time>2013-11-20T10:41:56Z</time>
      </trkpt>
      <trkpt lat="43.24649" lon="5.66757">
        <ele>328.7</ele>
        <time>2013-11-20T10:42:01Z</time>
      </trkpt>
      <trkpt lat="43.24647" lon="5.66762">
        <ele>328.2</ele>
        <time>2013-11-20T10:42:06Z</time>
      </trkpt>
      <trkpt lat="43.24646" lon="5.66763">
        <ele>328.2</ele>
        <time>2013-11-20T10:42:07Z</time>
      </trkpt>
      <trkpt lat="43.24643" lon="5.6677">
        <ele>328.2</ele>
        <time>2013-11-20T10:42:14Z</time>
      </trkpt>
      <trkpt lat="43.2464" lon="5.66775">
        <ele>328.5</ele>
        <time>2013-11-20T10:42:18Z</time>
      </trkpt>
      <trkpt lat="43.24638" lon="5.66779">
        <ele>329.2</ele>
        <time>2013-11-20T10:42:22Z</time>
      </trkpt>
      <trkpt lat="43.24638" lon="5.66784">
        <ele>329</ele>
        <time>2013-11-20T10:42:26Z</time>
      </trkpt>
      <trkpt lat="43.24638" lon="5.66788">
        <ele>328.7</ele>
        <time>2013-11-20T10:42:28Z</time>
      </trkpt>
      <trkpt lat="43.24637" lon="5.66794">
        <ele>328.2</ele>
        <time>2013-11-20T10:42:31Z</time>
      </trkpt>
      <trkpt lat="43.24639" lon="5.66799">
        <ele>327.6</ele>
        <time>2013-11-20T10:42:36Z</time>
      </trkpt>
      <trkpt lat="43.24641" lon="5.66804">
        <ele>328.2</ele>
        <time>2013-11-20T10:42:40Z</time>
      </trkpt>
      <trkpt lat="43.24642" lon="5.66809">
        <ele>329</ele>
        <time>2013-11-20T10:42:45Z</time>
      </trkpt>
      <trkpt lat="43.24643" lon="5.66814">
        <ele>330.3</ele>
        <time>2013-11-20T10:42:50Z</time>
      </trkpt>
      <trkpt lat="43.24644" lon="5.6682">
        <ele>331.7</ele>
        <time>2013-11-20T10:42:56Z</time>
      </trkpt>
      <trkpt lat="43.24647" lon="5.66823">
        <ele>332.7</ele>
        <time>2013-11-20T10:43:04Z</time>
      </trkpt>
      <trkpt lat="43.24651" lon="5.66824">
        <ele>334.6</ele>
        <time>2013-11-20T10:43:11Z</time>
      </trkpt>
      <trkpt lat="43.24652" lon="5.66824">
        <ele>334.5</ele>
        <time>2013-11-20T10:43:12Z</time>
      </trkpt>
      <trkpt lat="43.24659" lon="5.66823">
        <ele>335.8</ele>
        <time>2013-11-20T10:43:25Z</time>
      </trkpt>
      <trkpt lat="43.24664" lon="5.66822">
        <ele>337</ele>
        <time>2013-11-20T10:43:32Z</time>
      </trkpt>
      <trkpt lat="43.24668" lon="5.66822">
        <ele>338.5</ele>
        <time>2013-11-20T10:43:40Z</time>
      </trkpt>
      <trkpt lat="43.24672" lon="5.66822">
        <ele>339.3</ele>
        <time>2013-11-20T10:43:46Z</time>
      </trkpt>
      <trkpt lat="43.24676" lon="5.66824">
        <ele>340.5</ele>
        <time>2013-11-20T10:43:52Z</time>
      </trkpt>
      <trkpt lat="43.2468" lon="5.66823">
        <ele>342.2</ele>
        <time>2013-11-20T10:43:57Z</time>
      </trkpt>
      <trkpt lat="43.24684" lon="5.66825">
        <ele>342.6</ele>
        <time>2013-11-20T10:44:03Z</time>
      </trkpt>
      <trkpt lat="43.24688" lon="5.66826">
        <ele>344</ele>
        <time>2013-11-20T10:44:11Z</time>
      </trkpt>
      <trkpt lat="43.24692" lon="5.66828">
        <ele>342.8</ele>
        <time>2013-11-20T10:44:20Z</time>
      </trkpt>
      <trkpt lat="43.24693" lon="5.66828">
        <ele>343.7</ele>
        <time>2013-11-20T10:44:21Z</time>
      </trkpt>
      <trkpt lat="43.24699" lon="5.66834">
        <ele>342.5</ele>
        <time>2013-11-20T10:44:34Z</time>
      </trkpt>
      <trkpt lat="43.24703" lon="5.66835">
        <ele>345.1</ele>
        <time>2013-11-20T10:44:39Z</time>
      </trkpt>
      <trkpt lat="43.24707" lon="5.66837">
        <ele>347.2</ele>
        <time>2013-11-20T10:44:47Z</time>
      </trkpt>
      <trkpt lat="43.2471" lon="5.66837">
        <ele>347.8</ele>
        <time>2013-11-20T10:44:51Z</time>
      </trkpt>
      <trkpt lat="43.24714" lon="5.66839">
        <ele>347.7</ele>
        <time>2013-11-20T10:44:57Z</time>
      </trkpt>
      <trkpt lat="43.24718" lon="5.66839">
        <ele>347.7</ele>
        <time>2013-11-20T10:45:03Z</time>
      </trkpt>
      <trkpt lat="43.24722" lon="5.66839">
        <ele>347.7</ele>
        <time>2013-11-20T10:45:07Z</time>
      </trkpt>
      <trkpt lat="43.24726" lon="5.66839">
        <ele>347</ele>
        <time>2013-11-20T10:45:13Z</time>
      </trkpt>
      <trkpt lat="43.2473" lon="5.6684">
        <ele>347.2</ele>
        <time>2013-11-20T10:45:20Z</time>
      </trkpt>
      <trkpt lat="43.24735" lon="5.66841">
        <ele>349.7</ele>
        <time>2013-11-20T10:45:30Z</time>
      </trkpt>
      <trkpt lat="43.24735" lon="5.66841">
        <ele>349.7</ele>
        <time>2013-11-20T10:45:31Z</time>
      </trkpt>
      <trkpt lat="43.24742" lon="5.66841">
        <ele>350.1</ele>
        <time>2013-11-20T10:45:40Z</time>
      </trkpt>
      <trkpt lat="43.24746" lon="5.66842">
        <ele>349.7</ele>
        <time>2013-11-20T10:45:45Z</time>
      </trkpt>
      <trkpt lat="43.2475" lon="5.66842">
        <ele>348.1</ele>
        <time>2013-11-20T10:45:48Z</time>
      </trkpt>
      <trkpt lat="43.24754" lon="5.66842">
        <ele>348.5</ele>
        <time>2013-11-20T10:45:52Z</time>
      </trkpt>
      <trkpt lat="43.24758" lon="5.66843">
        <ele>348.7</ele>
        <time>2013-11-20T10:45:57Z</time>
      </trkpt>
      <trkpt lat="43.24761" lon="5.66845">
        <ele>349.3</ele>
        <time>2013-11-20T10:46:02Z</time>
      </trkpt>
      <trkpt lat="43.24765" lon="5.66846">
        <ele>348.7</ele>
        <time>2013-11-20T10:46:07Z</time>
      </trkpt>
      <trkpt lat="43.24769" lon="5.66849">
        <ele>350.3</ele>
        <time>2013-11-20T10:46:12Z</time>
      </trkpt>
      <trkpt lat="43.24774" lon="5.66851">
        <ele>351.5</ele>
        <time>2013-11-20T10:46:17Z</time>
      </trkpt>
      <trkpt lat="43.24777" lon="5.66854">
        <ele>352.3</ele>
        <time>2013-11-20T10:46:22Z</time>
      </trkpt>
      <trkpt lat="43.24781" lon="5.66855">
        <ele>354.5</ele>
        <time>2013-11-20T10:46:26Z</time>
      </trkpt>
      <trkpt lat="43.24784" lon="5.66858">
        <ele>352.8</ele>
        <time>2013-11-20T10:46:30Z</time>
      </trkpt>
      <trkpt lat="43.24788" lon="5.66861">
        <ele>351.5</ele>
        <time>2013-11-20T10:46:34Z</time>
      </trkpt>
      <trkpt lat="43.24789" lon="5.66863">
        <ele>350.6</ele>
        <time>2013-11-20T10:46:35Z</time>
      </trkpt>
      <trkpt lat="43.24794" lon="5.66866">
        <ele>350.7</ele>
        <time>2013-11-20T10:46:41Z</time>
      </trkpt>
      <trkpt lat="43.24797" lon="5.66868">
        <ele>349.6</ele>
        <time>2013-11-20T10:46:43Z</time>
      </trkpt>
      <trkpt lat="43.24801" lon="5.66869">
        <ele>348.2</ele>
        <time>2013-11-20T10:46:46Z</time>
      </trkpt>
      <trkpt lat="43.24805" lon="5.6687">
        <ele>349.6</ele>
        <time>2013-11-20T10:46:50Z</time>
      </trkpt>
      <trkpt lat="43.24808" lon="5.66872">
        <ele>351</ele>
        <time>2013-11-20T10:46:53Z</time>
      </trkpt>
      <trkpt lat="43.24812" lon="5.66874">
        <ele>351</ele>
        <time>2013-11-20T10:46:57Z</time>
      </trkpt>
      <trkpt lat="43.24815" lon="5.66877">
        <ele>350.7</ele>
        <time>2013-11-20T10:47:01Z</time>
      </trkpt>
      <trkpt lat="43.24818" lon="5.6688">
        <ele>350.3</ele>
        <time>2013-11-20T10:47:05Z</time>
      </trkpt>
      <trkpt lat="43.24821" lon="5.66882">
        <ele>351.7</ele>
        <time>2013-11-20T10:47:08Z</time>
      </trkpt>
      <trkpt lat="43.24825" lon="5.66885">
        <ele>353</ele>
        <time>2013-11-20T10:47:13Z</time>
      </trkpt>
      <trkpt lat="43.24828" lon="5.66888">
        <ele>354.2</ele>
        <time>2013-11-20T10:47:17Z</time>
      </trkpt>
      <trkpt lat="43.24832" lon="5.6689">
        <ele>356.6</ele>
        <time>2013-11-20T10:47:22Z</time>
      </trkpt>
      <trkpt lat="43.24836" lon="5.66892">
        <ele>358.6</ele>
        <time>2013-11-20T10:47:25Z</time>
      </trkpt>
      <trkpt lat="43.2484" lon="5.66893">
        <ele>360</ele>
        <time>2013-11-20T10:47:29Z</time>
      </trkpt>
      <trkpt lat="43.24843" lon="5.66896">
        <ele>358.7</ele>
        <time>2013-11-20T10:47:34Z</time>
      </trkpt>
      <trkpt lat="43.24846" lon="5.669">
        <ele>357.6</ele>
        <time>2013-11-20T10:47:39Z</time>
      </trkpt>
      <trkpt lat="43.24847" lon="5.669">
        <ele>357.7</ele>
        <time>2013-11-20T10:47:40Z</time>
      </trkpt>
      <trkpt lat="43.24853" lon="5.66906">
        <ele>354.8</ele>
        <time>2013-11-20T10:47:49Z</time>
      </trkpt>
      <trkpt lat="43.24856" lon="5.66909">
        <ele>353.8</ele>
        <time>2013-11-20T10:47:54Z</time>
      </trkpt>
      <trkpt lat="43.2486" lon="5.66911">
        <ele>354.7</ele>
        <time>2013-11-20T10:47:59Z</time>
      </trkpt>
      <trkpt lat="43.24864" lon="5.66914">
        <ele>354.6</ele>
        <time>2013-11-20T10:48:04Z</time>
      </trkpt>
      <trkpt lat="43.24867" lon="5.66916">
        <ele>355.7</ele>
        <time>2013-11-20T10:48:09Z</time>
      </trkpt>
      <trkpt lat="43.24871" lon="5.66919">
        <ele>351.7</ele>
        <time>2013-11-20T10:48:13Z</time>
      </trkpt>
      <trkpt lat="43.24874" lon="5.66921">
        <ele>351.5</ele>
        <time>2013-11-20T10:48:17Z</time>
      </trkpt>
      <trkpt lat="43.24878" lon="5.66924">
        <ele>350.1</ele>
        <time>2013-11-20T10:48:21Z</time>
      </trkpt>
      <trkpt lat="43.24881" lon="5.66927">
        <ele>349.5</ele>
        <time>2013-11-20T10:48:25Z</time>
      </trkpt>
      <trkpt lat="43.24885" lon="5.6693">
        <ele>349.7</ele>
        <time>2013-11-20T10:48:29Z</time>
      </trkpt>
      <trkpt lat="43.24889" lon="5.66932">
        <ele>348.7</ele>
        <time>2013-11-20T10:48:34Z</time>
      </trkpt>
      <trkpt lat="43.24892" lon="5.66936">
        <ele>347.6</ele>
        <time>2013-11-20T10:48:39Z</time>
      </trkpt>
      <trkpt lat="43.24894" lon="5.6694">
        <ele>347.2</ele>
        <time>2013-11-20T10:48:43Z</time>
      </trkpt>
      <trkpt lat="43.24894" lon="5.66942">
        <ele>347.3</ele>
        <time>2013-11-20T10:48:44Z</time>
      </trkpt>
      <trkpt lat="43.24898" lon="5.6695">
        <ele>342.8</ele>
        <time>2013-11-20T10:48:54Z</time>
      </trkpt>
      <trkpt lat="43.24899" lon="5.66955">
        <ele>337.7</ele>
        <time>2013-11-20T10:49:00Z</time>
      </trkpt>
      <trkpt lat="43.249" lon="5.6696">
        <ele>335.7</ele>
        <time>2013-11-20T10:49:05Z</time>
      </trkpt>
      <trkpt lat="43.24901" lon="5.66966">
        <ele>330.3</ele>
        <time>2013-11-20T10:49:12Z</time>
      </trkpt>
      <trkpt lat="43.24903" lon="5.66971">
        <ele>327.3</ele>
        <time>2013-11-20T10:49:17Z</time>
      </trkpt>
      <trkpt lat="43.24905" lon="5.66976">
        <ele>324.7</ele>
        <time>2013-11-20T10:49:22Z</time>
      </trkpt>
      <trkpt lat="43.24907" lon="5.6698">
        <ele>321.7</ele>
        <time>2013-11-20T10:49:27Z</time>
      </trkpt>
      <trkpt lat="43.24908" lon="5.66986">
        <ele>319.1</ele>
        <time>2013-11-20T10:49:32Z</time>
      </trkpt>
      <trkpt lat="43.2491" lon="5.66992">
        <ele>315.3</ele>
        <time>2013-11-20T10:49:37Z</time>
      </trkpt>
      <trkpt lat="43.2491" lon="5.66998">
        <ele>313.3</ele>
        <time>2013-11-20T10:49:41Z</time>
      </trkpt>
      <trkpt lat="43.2491" lon="5.67003">
        <ele>311.2</ele>
        <time>2013-11-20T10:49:45Z</time>
      </trkpt>
      <trkpt lat="43.24911" lon="5.67005">
        <ele>311.2</ele>
        <time>2013-11-20T10:49:46Z</time>
      </trkpt>
      <trkpt lat="43.24912" lon="5.67014">
        <ele>308.2</ele>
        <time>2013-11-20T10:49:52Z</time>
      </trkpt>
      <trkpt lat="43.24914" lon="5.67019">
        <ele>307.6</ele>
        <time>2013-11-20T10:49:55Z</time>
      </trkpt>
      <trkpt lat="43.24916" lon="5.67023">
        <ele>308.2</ele>
        <time>2013-11-20T10:49:58Z</time>
      </trkpt>
      <trkpt lat="43.24918" lon="5.67028">
        <ele>309</ele>
        <time>2013-11-20T10:50:01Z</time>
      </trkpt>
      <trkpt lat="43.2492" lon="5.67032">
        <ele>309.6</ele>
        <time>2013-11-20T10:50:04Z</time>
      </trkpt>
      <trkpt lat="43.24922" lon="5.67036">
        <ele>309</ele>
        <time>2013-11-20T10:50:08Z</time>
      </trkpt>
      <trkpt lat="43.24923" lon="5.67041">
        <ele>309.6</ele>
        <time>2013-11-20T10:50:11Z</time>
      </trkpt>
      <trkpt lat="43.24925" lon="5.67046">
        <ele>308.2</ele>
        <time>2013-11-20T10:50:17Z</time>
      </trkpt>
      <trkpt lat="43.24927" lon="5.67051">
        <ele>307.2</ele>
        <time>2013-11-20T10:50:22Z</time>
      </trkpt>
      <trkpt lat="43.24927" lon="5.67057">
        <ele>305.7</ele>
        <time>2013-11-20T10:50:26Z</time>
      </trkpt>
      <trkpt lat="43.24928" lon="5.67062">
        <ele>304.3</ele>
        <time>2013-11-20T10:50:30Z</time>
      </trkpt>
      <trkpt lat="43.2493" lon="5.67066">
        <ele>302.7</ele>
        <time>2013-11-20T10:50:33Z</time>
      </trkpt>
      <trkpt lat="43.24932" lon="5.67071">
        <ele>301.2</ele>
        <time>2013-11-20T10:50:37Z</time>
      </trkpt>
      <trkpt lat="43.24933" lon="5.67077">
        <ele>299.6</ele>
        <time>2013-11-20T10:50:41Z</time>
      </trkpt>
      <trkpt lat="43.24934" lon="5.67082">
        <ele>297.6</ele>
        <time>2013-11-20T10:50:45Z</time>
      </trkpt>
      <trkpt lat="43.24935" lon="5.67088">
        <ele>298.1</ele>
        <time>2013-11-20T10:50:50Z</time>
      </trkpt>
      <trkpt lat="43.24935" lon="5.67089">
        <ele>298.2</ele>
        <time>2013-11-20T10:50:51Z</time>
      </trkpt>
      <trkpt lat="43.24937" lon="5.67097">
        <ele>297.1</ele>
        <time>2013-11-20T10:50:57Z</time>
      </trkpt>
      <trkpt lat="43.24938" lon="5.67102">
        <ele>297.7</ele>
        <time>2013-11-20T10:51:00Z</time>
      </trkpt>
      <trkpt lat="43.24938" lon="5.67108">
        <ele>298.3</ele>
        <time>2013-11-20T10:51:03Z</time>
      </trkpt>
      <trkpt lat="43.24938" lon="5.67113">
        <ele>297.7</ele>
        <time>2013-11-20T10:51:06Z</time>
      </trkpt>
      <trkpt lat="43.24937" lon="5.67118">
        <ele>297.2</ele>
        <time>2013-11-20T10:51:09Z</time>
      </trkpt>
      <trkpt lat="43.24937" lon="5.67123">
        <ele>296.7</ele>
        <time>2013-11-20T10:51:13Z</time>
      </trkpt>
      <trkpt lat="43.24936" lon="5.67128">
        <ele>297.7</ele>
        <time>2013-11-20T10:51:16Z</time>
      </trkpt>
      <trkpt lat="43.24936" lon="5.67133">
        <ele>298.2</ele>
        <time>2013-11-20T10:51:20Z</time>
      </trkpt>
      <trkpt lat="43.24938" lon="5.67139">
        <ele>301.8</ele>
        <time>2013-11-20T10:51:24Z</time>
      </trkpt>
      <trkpt lat="43.2494" lon="5.67143">
        <ele>306.2</ele>
        <time>2013-11-20T10:51:28Z</time>
      </trkpt>
      <trkpt lat="43.24939" lon="5.67149">
        <ele>307.1</ele>
        <time>2013-11-20T10:51:31Z</time>
      </trkpt>
      <trkpt lat="43.24939" lon="5.67155">
        <ele>306.8</ele>
        <time>2013-11-20T10:51:35Z</time>
      </trkpt>
      <trkpt lat="43.24939" lon="5.67159">
        <ele>307.2</ele>
        <time>2013-11-20T10:51:38Z</time>
      </trkpt>
      <trkpt lat="43.24939" lon="5.67164">
        <ele>307</ele>
        <time>2013-11-20T10:51:40Z</time>
      </trkpt>
      <trkpt lat="43.24938" lon="5.6717">
        <ele>306.7</ele>
        <time>2013-11-20T10:51:44Z</time>
      </trkpt>
      <trkpt lat="43.24939" lon="5.67175">
        <ele>306.5</ele>
        <time>2013-11-20T10:51:48Z</time>
      </trkpt>
      <trkpt lat="43.24936" lon="5.6718">
        <ele>307.3</ele>
        <time>2013-11-20T10:51:51Z</time>
      </trkpt>
      <trkpt lat="43.24936" lon="5.67181">
        <ele>307.3</ele>
        <time>2013-11-20T10:51:52Z</time>
      </trkpt>
      <trkpt lat="43.24932" lon="5.67189">
        <ele>309.7</ele>
        <time>2013-11-20T10:51:59Z</time>
      </trkpt>
      <trkpt lat="43.2493" lon="5.67194">
        <ele>310.3</ele>
        <time>2013-11-20T10:52:03Z</time>
      </trkpt>
      <trkpt lat="43.24928" lon="5.67199">
        <ele>314.1</ele>
        <time>2013-11-20T10:52:09Z</time>
      </trkpt>
      <trkpt lat="43.24927" lon="5.67205">
        <ele>318.2</ele>
        <time>2013-11-20T10:52:19Z</time>
      </trkpt>
      <trkpt lat="43.24925" lon="5.67208">
        <ele>320.1</ele>
        <time>2013-11-20T10:52:23Z</time>
      </trkpt>
      <trkpt lat="43.24923" lon="5.67212">
        <ele>321.5</ele>
        <time>2013-11-20T10:52:25Z</time>
      </trkpt>
      <trkpt lat="43.24921" lon="5.67215">
        <ele>323.3</ele>
        <time>2013-11-20T10:52:28Z</time>
      </trkpt>
      <trkpt lat="43.24918" lon="5.6722">
        <ele>324</ele>
        <time>2013-11-20T10:52:31Z</time>
      </trkpt>
      <trkpt lat="43.24916" lon="5.67224">
        <ele>325.2</ele>
        <time>2013-11-20T10:52:34Z</time>
      </trkpt>
      <trkpt lat="43.24913" lon="5.67227">
        <ele>325.3</ele>
        <time>2013-11-20T10:52:37Z</time>
      </trkpt>
      <trkpt lat="43.24911" lon="5.67232">
        <ele>325.1</ele>
        <time>2013-11-20T10:52:42Z</time>
      </trkpt>
      <trkpt lat="43.24908" lon="5.67235">
        <ele>325.2</ele>
        <time>2013-11-20T10:52:45Z</time>
      </trkpt>
      <trkpt lat="43.24905" lon="5.67238">
        <ele>326.2</ele>
        <time>2013-11-20T10:52:48Z</time>
      </trkpt>
      <trkpt lat="43.24902" lon="5.67243">
        <ele>327.2</ele>
        <time>2013-11-20T10:52:52Z</time>
      </trkpt>
      <trkpt lat="43.24901" lon="5.67245">
        <ele>328.3</ele>
        <time>2013-11-20T10:52:53Z</time>
      </trkpt>
      <trkpt lat="43.24897" lon="5.67252">
        <ele>328.8</ele>
        <time>2013-11-20T10:52:59Z</time>
      </trkpt>
      <trkpt lat="43.24894" lon="5.67256">
        <ele>330.2</ele>
        <time>2013-11-20T10:53:04Z</time>
      </trkpt>
      <trkpt lat="43.24891" lon="5.6726">
        <ele>329.6</ele>
        <time>2013-11-20T10:53:10Z</time>
      </trkpt>
      <trkpt lat="43.24887" lon="5.67263">
        <ele>327.1</ele>
        <time>2013-11-20T10:53:22Z</time>
      </trkpt>
      <trkpt lat="43.24885" lon="5.67267">
        <ele>325.7</ele>
        <time>2013-11-20T10:53:29Z</time>
      </trkpt>
      <trkpt lat="43.24881" lon="5.67271">
        <ele>324.2</ele>
        <time>2013-11-20T10:53:34Z</time>
      </trkpt>
      <trkpt lat="43.24879" lon="5.67275">
        <ele>322.1</ele>
        <time>2013-11-20T10:53:43Z</time>
      </trkpt>
      <trkpt lat="43.24876" lon="5.67279">
        <ele>321.3</ele>
        <time>2013-11-20T10:53:52Z</time>
      </trkpt>
      <trkpt lat="43.24874" lon="5.67282">
        <ele>321.6</ele>
        <time>2013-11-20T10:53:55Z</time>
      </trkpt>
      <trkpt lat="43.24873" lon="5.67285">
        <ele>322.2</ele>
        <time>2013-11-20T10:53:56Z</time>
      </trkpt>
      <trkpt lat="43.24871" lon="5.67291">
        <ele>322.5</ele>
        <time>2013-11-20T10:54:00Z</time>
      </trkpt>
      <trkpt lat="43.24868" lon="5.67296">
        <ele>321.1</ele>
        <time>2013-11-20T10:54:05Z</time>
      </trkpt>
      <trkpt lat="43.24866" lon="5.67301">
        <ele>318.2</ele>
        <time>2013-11-20T10:54:12Z</time>
      </trkpt>
      <trkpt lat="43.24864" lon="5.67305">
        <ele>317.2</ele>
        <time>2013-11-20T10:54:17Z</time>
      </trkpt>
      <trkpt lat="43.24861" lon="5.67309">
        <ele>315.7</ele>
        <time>2013-11-20T10:54:22Z</time>
      </trkpt>
      <trkpt lat="43.2486" lon="5.67315">
        <ele>316.1</ele>
        <time>2013-11-20T10:54:27Z</time>
      </trkpt>
      <trkpt lat="43.24859" lon="5.6732">
        <ele>317.3</ele>
        <time>2013-11-20T10:54:29Z</time>
      </trkpt>
      <trkpt lat="43.24858" lon="5.67326">
        <ele>317.8</ele>
        <time>2013-11-20T10:54:32Z</time>
      </trkpt>
      <trkpt lat="43.24859" lon="5.67331">
        <ele>316.1</ele>
        <time>2013-11-20T10:54:37Z</time>
      </trkpt>
      <trkpt lat="43.2486" lon="5.67336">
        <ele>315.6</ele>
        <time>2013-11-20T10:54:42Z</time>
      </trkpt>
      <trkpt lat="43.24861" lon="5.67342">
        <ele>313.8</ele>
        <time>2013-11-20T10:54:48Z</time>
      </trkpt>
      <trkpt lat="43.24862" lon="5.67347">
        <ele>313.5</ele>
        <time>2013-11-20T10:54:54Z</time>
      </trkpt>
      <trkpt lat="43.24863" lon="5.67353">
        <ele>311.5</ele>
        <time>2013-11-20T10:55:01Z</time>
      </trkpt>
      <trkpt lat="43.24863" lon="5.67354">
        <ele>311.2</ele>
        <time>2013-11-20T10:55:02Z</time>
      </trkpt>
      <trkpt lat="43.24863" lon="5.67364">
        <ele>309</ele>
        <time>2013-11-20T10:55:13Z</time>
      </trkpt>
      <trkpt lat="43.24863" lon="5.67367">
        <ele>309</ele>
        <time>2013-11-20T10:55:15Z</time>
      </trkpt>
      <trkpt lat="43.24863" lon="5.67371">
        <ele>311.3</ele>
        <time>2013-11-20T10:55:16Z</time>
      </trkpt>
      <trkpt lat="43.24863" lon="5.67376">
        <ele>314.1</ele>
        <time>2013-11-20T10:55:18Z</time>
      </trkpt>
      <trkpt lat="43.24863" lon="5.67381">
        <ele>316.2</ele>
        <time>2013-11-20T10:55:21Z</time>
      </trkpt>
      <trkpt lat="43.24863" lon="5.67386">
        <ele>317.3</ele>
        <time>2013-11-20T10:55:25Z</time>
      </trkpt>
      <trkpt lat="43.24864" lon="5.67392">
        <ele>317.1</ele>
        <time>2013-11-20T10:55:31Z</time>
      </trkpt>
      <trkpt lat="43.24864" lon="5.67398">
        <ele>312.7</ele>
        <time>2013-11-20T10:55:39Z</time>
      </trkpt>
      <trkpt lat="43.24864" lon="5.67404">
        <ele>306.2</ele>
        <time>2013-11-20T10:55:48Z</time>
      </trkpt>
      <trkpt lat="43.24865" lon="5.6741">
        <ele>302.8</ele>
        <time>2013-11-20T10:55:53Z</time>
      </trkpt>
      <trkpt lat="43.24869" lon="5.67411">
        <ele>304.7</ele>
        <time>2013-11-20T10:56:01Z</time>
      </trkpt>
      <trkpt lat="43.24872" lon="5.67407">
        <ele>306.6</ele>
        <time>2013-11-20T10:56:15Z</time>
      </trkpt>
      <trkpt lat="43.24873" lon="5.67405">
        <ele>306.6</ele>
        <time>2013-11-20T10:56:16Z</time>
      </trkpt>
      <trkpt lat="43.24878" lon="5.67398">
        <ele>305</ele>
        <time>2013-11-20T10:56:24Z</time>
      </trkpt>
      <trkpt lat="43.2488" lon="5.67395">
        <ele>303.5</ele>
        <time>2013-11-20T10:56:28Z</time>
      </trkpt>
      <trkpt lat="43.24884" lon="5.67392">
        <ele>303</ele>
        <time>2013-11-20T10:56:32Z</time>
      </trkpt>
      <trkpt lat="43.24887" lon="5.6739">
        <ele>302.6</ele>
        <time>2013-11-20T10:56:35Z</time>
      </trkpt>
      <trkpt lat="43.24891" lon="5.67387">
        <ele>302.5</ele>
        <time>2013-11-20T10:56:39Z</time>
      </trkpt>
      <trkpt lat="43.24894" lon="5.67385">
        <ele>302.1</ele>
        <time>2013-11-20T10:56:42Z</time>
      </trkpt>
      <trkpt lat="43.24897" lon="5.67383">
        <ele>301.7</ele>
        <time>2013-11-20T10:56:45Z</time>
      </trkpt>
      <trkpt lat="43.24901" lon="5.67381">
        <ele>301.7</ele>
        <time>2013-11-20T10:56:49Z</time>
      </trkpt>
      <trkpt lat="43.24905" lon="5.67378">
        <ele>301.2</ele>
        <time>2013-11-20T10:56:54Z</time>
      </trkpt>
      <trkpt lat="43.24908" lon="5.67374">
        <ele>309.6</ele>
        <time>2013-11-20T10:57:09Z</time>
      </trkpt>
      <trkpt lat="43.24912" lon="5.67371">
        <ele>308.5</ele>
        <time>2013-11-20T10:57:14Z</time>
      </trkpt>
      <trkpt lat="43.24915" lon="5.67374">
        <ele>320.5</ele>
        <time>2013-11-20T10:57:40Z</time>
      </trkpt>
      <trkpt lat="43.24916" lon="5.67375">
        <ele>321.1</ele>
        <time>2013-11-20T10:57:41Z</time>
      </trkpt>
      <trkpt lat="43.24922" lon="5.67369">
        <ele>320.3</ele>
        <time>2013-11-20T10:58:16Z</time>
      </trkpt>
      <trkpt lat="43.24924" lon="5.67365">
        <ele>318.3</ele>
        <time>2013-11-20T10:58:27Z</time>
      </trkpt>
      <trkpt lat="43.24928" lon="5.67362">
        <ele>315.7</ele>
        <time>2013-11-20T10:58:39Z</time>
      </trkpt>
      <trkpt lat="43.24931" lon="5.67359">
        <ele>313</ele>
        <time>2013-11-20T10:58:46Z</time>
      </trkpt>
      <trkpt lat="43.24932" lon="5.67358">
        <ele>312.6</ele>
        <time>2013-11-20T10:58:47Z</time>
      </trkpt>
      <trkpt lat="43.24938" lon="5.67352">
        <ele>306.8</ele>
        <time>2013-11-20T10:58:58Z</time>
      </trkpt>
      <trkpt lat="43.24942" lon="5.67348">
        <ele>304.2</ele>
        <time>2013-11-20T10:59:03Z</time>
      </trkpt>
      <trkpt lat="43.24945" lon="5.67344">
        <ele>301.8</ele>
        <time>2013-11-20T10:59:09Z</time>
      </trkpt>
      <trkpt lat="43.24948" lon="5.6734">
        <ele>299.2</ele>
        <time>2013-11-20T10:59:16Z</time>
      </trkpt>
      <trkpt lat="43.24952" lon="5.67336">
        <ele>297.7</ele>
        <time>2013-11-20T10:59:22Z</time>
      </trkpt>
      <trkpt lat="43.24955" lon="5.67333">
        <ele>296.7</ele>
        <time>2013-11-20T10:59:27Z</time>
      </trkpt>
      <trkpt lat="43.24959" lon="5.67331">
        <ele>296.7</ele>
        <time>2013-11-20T10:59:33Z</time>
      </trkpt>
      <trkpt lat="43.24963" lon="5.67328">
        <ele>296</ele>
        <time>2013-11-20T10:59:38Z</time>
      </trkpt>
      <trkpt lat="43.24966" lon="5.67326">
        <ele>295.5</ele>
        <time>2013-11-20T10:59:42Z</time>
      </trkpt>
      <trkpt lat="43.2497" lon="5.67325">
        <ele>296.1</ele>
        <time>2013-11-20T10:59:46Z</time>
      </trkpt>
      <trkpt lat="43.24973" lon="5.67324">
        <ele>296.7</ele>
        <time>2013-11-20T10:59:49Z</time>
      </trkpt>
      <trkpt lat="43.24974" lon="5.67324">
        <ele>296.7</ele>
        <time>2013-11-20T10:59:50Z</time>
      </trkpt>
      <trkpt lat="43.24981" lon="5.67318">
        <ele>298.2</ele>
        <time>2013-11-20T10:59:57Z</time>
      </trkpt>
      <trkpt lat="43.24984" lon="5.67314">
        <ele>297.2</ele>
        <time>2013-11-20T11:00:01Z</time>
      </trkpt>
      <trkpt lat="43.24986" lon="5.6731">
        <ele>296.7</ele>
        <time>2013-11-20T11:00:04Z</time>
      </trkpt>
      <trkpt lat="43.24989" lon="5.67306">
        <ele>296.7</ele>
        <time>2013-11-20T11:00:08Z</time>
      </trkpt>
      <trkpt lat="43.24992" lon="5.67301">
        <ele>296.1</ele>
        <time>2013-11-20T11:00:13Z</time>
      </trkpt>
      <trkpt lat="43.24995" lon="5.67297">
        <ele>295.6</ele>
        <time>2013-11-20T11:00:17Z</time>
      </trkpt>
      <trkpt lat="43.24997" lon="5.67294">
        <ele>295</ele>
        <time>2013-11-20T11:00:20Z</time>
      </trkpt>
      <trkpt lat="43.25" lon="5.67289">
        <ele>294.3</ele>
        <time>2013-11-20T11:00:24Z</time>
      </trkpt>
      <trkpt lat="43.25002" lon="5.67286">
        <ele>294.6</ele>
        <time>2013-11-20T11:00:26Z</time>
      </trkpt>
      <trkpt lat="43.25005" lon="5.67283">
        <ele>293.5</ele>
        <time>2013-11-20T11:00:29Z</time>
      </trkpt>
      <trkpt lat="43.25008" lon="5.67278">
        <ele>292.2</ele>
        <time>2013-11-20T11:00:33Z</time>
      </trkpt>
      <trkpt lat="43.2501" lon="5.67273">
        <ele>292</ele>
        <time>2013-11-20T11:00:37Z</time>
      </trkpt>
      <trkpt lat="43.25012" lon="5.6727">
        <ele>292.8</ele>
        <time>2013-11-20T11:00:40Z</time>
      </trkpt>
      <trkpt lat="43.25015" lon="5.67266">
        <ele>293.3</ele>
        <time>2013-11-20T11:00:43Z</time>
      </trkpt>
      <trkpt lat="43.25018" lon="5.67264">
        <ele>292.2</ele>
        <time>2013-11-20T11:00:47Z</time>
      </trkpt>
      <trkpt lat="43.25022" lon="5.67262">
        <ele>292.1</ele>
        <time>2013-11-20T11:00:50Z</time>
      </trkpt>
      <trkpt lat="43.25023" lon="5.67262">
        <ele>292</ele>
        <time>2013-11-20T11:00:51Z</time>
      </trkpt>
      <trkpt lat="43.25029" lon="5.6726">
        <ele>292</ele>
        <time>2013-11-20T11:00:58Z</time>
      </trkpt>
      <trkpt lat="43.25034" lon="5.67259">
        <ele>291.7</ele>
        <time>2013-11-20T11:01:02Z</time>
      </trkpt>
      <trkpt lat="43.25037" lon="5.67257">
        <ele>291.2</ele>
        <time>2013-11-20T11:01:06Z</time>
      </trkpt>
      <trkpt lat="43.25042" lon="5.67256">
        <ele>291</ele>
        <time>2013-11-20T11:01:10Z</time>
      </trkpt>
      <trkpt lat="43.25045" lon="5.67254">
        <ele>290.2</ele>
        <time>2013-11-20T11:01:13Z</time>
      </trkpt>
      <trkpt lat="43.25049" lon="5.67252">
        <ele>289.2</ele>
        <time>2013-11-20T11:01:16Z</time>
      </trkpt>
      <trkpt lat="43.25052" lon="5.67252">
        <ele>288.6</ele>
        <time>2013-11-20T11:01:19Z</time>
      </trkpt>
      <trkpt lat="43.25055" lon="5.67251">
        <ele>288.7</ele>
        <time>2013-11-20T11:01:21Z</time>
      </trkpt>
      <trkpt lat="43.25059" lon="5.6725">
        <ele>288</ele>
        <time>2013-11-20T11:01:25Z</time>
      </trkpt>
      <trkpt lat="43.25063" lon="5.67248">
        <ele>289.7</ele>
        <time>2013-11-20T11:01:28Z</time>
      </trkpt>
      <trkpt lat="43.25067" lon="5.67247">
        <ele>288.8</ele>
        <time>2013-11-20T11:01:32Z</time>
      </trkpt>
      <trkpt lat="43.25071" lon="5.67246">
        <ele>289.2</ele>
        <time>2013-11-20T11:01:35Z</time>
      </trkpt>
      <trkpt lat="43.25075" lon="5.67245">
        <ele>289.6</ele>
        <time>2013-11-20T11:01:38Z</time>
      </trkpt>
      <trkpt lat="43.25079" lon="5.67245">
        <ele>290</ele>
        <time>2013-11-20T11:01:41Z</time>
      </trkpt>
      <trkpt lat="43.25083" lon="5.67244">
        <ele>290.2</ele>
        <time>2013-11-20T11:01:44Z</time>
      </trkpt>
      <trkpt lat="43.25086" lon="5.67245">
        <ele>290.2</ele>
        <time>2013-11-20T11:01:46Z</time>
      </trkpt>
      <trkpt lat="43.25089" lon="5.67245">
        <ele>289.7</ele>
        <time>2013-11-20T11:01:48Z</time>
      </trkpt>
      <trkpt lat="43.25093" lon="5.67245">
        <ele>289.2</ele>
        <time>2013-11-20T11:01:51Z</time>
      </trkpt>
      <trkpt lat="43.25094" lon="5.67245">
        <ele>288.6</ele>
        <time>2013-11-20T11:01:52Z</time>
      </trkpt>
      <trkpt lat="43.251" lon="5.67247">
        <ele>285.7</ele>
        <time>2013-11-20T11:02:01Z</time>
      </trkpt>
      <trkpt lat="43.25103" lon="5.67248">
        <ele>285.8</ele>
        <time>2013-11-20T11:02:04Z</time>
      </trkpt>
      <trkpt lat="43.25106" lon="5.6725">
        <ele>285.2</ele>
        <time>2013-11-20T11:02:07Z</time>
      </trkpt>
      <trkpt lat="43.2511" lon="5.67251">
        <ele>285.2</ele>
        <time>2013-11-20T11:02:10Z</time>
      </trkpt>
      <trkpt lat="43.25114" lon="5.67254">
        <ele>284.7</ele>
        <time>2013-11-20T11:02:14Z</time>
      </trkpt>
      <trkpt lat="43.25118" lon="5.67255">
        <ele>283.7</ele>
        <time>2013-11-20T11:02:18Z</time>
      </trkpt>
      <trkpt lat="43.25121" lon="5.67259">
        <ele>281.7</ele>
        <time>2013-11-20T11:02:22Z</time>
      </trkpt>
      <trkpt lat="43.25125" lon="5.67262">
        <ele>276.5</ele>
        <time>2013-11-20T11:02:27Z</time>
      </trkpt>
      <trkpt lat="43.25129" lon="5.67263">
        <ele>273</ele>
        <time>2013-11-20T11:02:33Z</time>
      </trkpt>
      <trkpt lat="43.25133" lon="5.67264">
        <ele>272.2</ele>
        <time>2013-11-20T11:02:38Z</time>
      </trkpt>
      <trkpt lat="43.25137" lon="5.67264">
        <ele>273.7</ele>
        <time>2013-11-20T11:02:42Z</time>
      </trkpt>
      <trkpt lat="43.25141" lon="5.67264">
        <ele>275.7</ele>
        <time>2013-11-20T11:02:48Z</time>
      </trkpt>
      <trkpt lat="43.25144" lon="5.67264">
        <ele>277.1</ele>
        <time>2013-11-20T11:02:56Z</time>
      </trkpt>
      <trkpt lat="43.25145" lon="5.67263">
        <ele>278.2</ele>
        <time>2013-11-20T11:02:57Z</time>
      </trkpt>
      <trkpt lat="43.25152" lon="5.67261">
        <ele>280.7</ele>
        <time>2013-11-20T11:03:04Z</time>
      </trkpt>
      <trkpt lat="43.25156" lon="5.6726">
        <ele>282.1</ele>
        <time>2013-11-20T11:03:08Z</time>
      </trkpt>
      <trkpt lat="43.2516" lon="5.6726">
        <ele>280.6</ele>
        <time>2013-11-20T11:03:13Z</time>
      </trkpt>
      <trkpt lat="43.25164" lon="5.67258">
        <ele>279.3</ele>
        <time>2013-11-20T11:03:17Z</time>
      </trkpt>
      <trkpt lat="43.25167" lon="5.67256">
        <ele>279.6</ele>
        <time>2013-11-20T11:03:21Z</time>
      </trkpt>
      <trkpt lat="43.25171" lon="5.67254">
        <ele>279.3</ele>
        <time>2013-11-20T11:03:25Z</time>
      </trkpt>
      <trkpt lat="43.25175" lon="5.67253">
        <ele>279.1</ele>
        <time>2013-11-20T11:03:29Z</time>
      </trkpt>
      <trkpt lat="43.25178" lon="5.67252">
        <ele>277.7</ele>
        <time>2013-11-20T11:03:33Z</time>
      </trkpt>
      <trkpt lat="43.25182" lon="5.67251">
        <ele>277.1</ele>
        <time>2013-11-20T11:03:37Z</time>
      </trkpt>
      <trkpt lat="43.25186" lon="5.67251">
        <ele>278.1</ele>
        <time>2013-11-20T11:03:40Z</time>
      </trkpt>
      <trkpt lat="43.2519" lon="5.67251">
        <ele>278.2</ele>
        <time>2013-11-20T11:03:45Z</time>
      </trkpt>
      <trkpt lat="43.25193" lon="5.6725">
        <ele>278.7</ele>
        <time>2013-11-20T11:03:48Z</time>
      </trkpt>
      <trkpt lat="43.25198" lon="5.67249">
        <ele>276.7</ele>
        <time>2013-11-20T11:03:53Z</time>
      </trkpt>
      <trkpt lat="43.25202" lon="5.67248">
        <ele>276.3</ele>
        <time>2013-11-20T11:03:57Z</time>
      </trkpt>
      <trkpt lat="43.25203" lon="5.67248">
        <ele>276.6</ele>
        <time>2013-11-20T11:03:58Z</time>
      </trkpt>
      <trkpt lat="43.2521" lon="5.67247">
        <ele>277.5</ele>
        <time>2013-11-20T11:04:06Z</time>
      </trkpt>
      <trkpt lat="43.25214" lon="5.67247">
        <ele>275.7</ele>
        <time>2013-11-20T11:04:11Z</time>
      </trkpt>
      <trkpt lat="43.25217" lon="5.67244">
        <ele>275</ele>
        <time>2013-11-20T11:04:15Z</time>
      </trkpt>
      <trkpt lat="43.25221" lon="5.67242">
        <ele>275.5</ele>
        <time>2013-11-20T11:04:18Z</time>
      </trkpt>
      <trkpt lat="43.25224" lon="5.6724">
        <ele>275.2</ele>
        <time>2013-11-20T11:04:23Z</time>
      </trkpt>
      <trkpt lat="43.25227" lon="5.67238">
        <ele>275.3</ele>
        <time>2013-11-20T11:04:26Z</time>
      </trkpt>
      <trkpt lat="43.25231" lon="5.67236">
        <ele>276.7</ele>
        <time>2013-11-20T11:04:31Z</time>
      </trkpt>
      <trkpt lat="43.25236" lon="5.67236">
        <ele>279.6</ele>
        <time>2013-11-20T11:04:36Z</time>
      </trkpt>
      <trkpt lat="43.2524" lon="5.67236">
        <ele>280.3</ele>
        <time>2013-11-20T11:04:43Z</time>
      </trkpt>
      <trkpt lat="43.25243" lon="5.67237">
        <ele>279.8</ele>
        <time>2013-11-20T11:04:47Z</time>
      </trkpt>
      <trkpt lat="43.25247" lon="5.6724">
        <ele>279.3</ele>
        <time>2013-11-20T11:04:51Z</time>
      </trkpt>
      <trkpt lat="43.2525" lon="5.67242">
        <ele>279.7</ele>
        <time>2013-11-20T11:04:55Z</time>
      </trkpt>
      <trkpt lat="43.25254" lon="5.67244">
        <ele>279.8</ele>
        <time>2013-11-20T11:04:58Z</time>
      </trkpt>
      <trkpt lat="43.25255" lon="5.67245">
        <ele>279.7</ele>
        <time>2013-11-20T11:04:59Z</time>
      </trkpt>
      <trkpt lat="43.25261" lon="5.67247">
        <ele>279.6</ele>
        <time>2013-11-20T11:05:06Z</time>
      </trkpt>
      <trkpt lat="43.25265" lon="5.6725">
        <ele>281</ele>
        <time>2013-11-20T11:05:12Z</time>
      </trkpt>
      <trkpt lat="43.25269" lon="5.67251">
        <ele>280.3</ele>
        <time>2013-11-20T11:05:18Z</time>
      </trkpt>
      <trkpt lat="43.25273" lon="5.6725">
        <ele>280.8</ele>
        <time>2013-11-20T11:05:22Z</time>
      </trkpt>
      <trkpt lat="43.25277" lon="5.67249">
        <ele>281.6</ele>
        <time>2013-11-20T11:05:25Z</time>
      </trkpt>
      <trkpt lat="43.2528" lon="5.6725">
        <ele>282</ele>
        <time>2013-11-20T11:05:28Z</time>
      </trkpt>
      <trkpt lat="43.25284" lon="5.6725">
        <ele>282.7</ele>
        <time>2013-11-20T11:05:31Z</time>
      </trkpt>
      <trkpt lat="43.25288" lon="5.67253">
        <ele>282.7</ele>
        <time>2013-11-20T11:05:34Z</time>
      </trkpt>
      <trkpt lat="43.25291" lon="5.67256">
        <ele>283.2</ele>
        <time>2013-11-20T11:05:37Z</time>
      </trkpt>
      <trkpt lat="43.25294" lon="5.67259">
        <ele>284</ele>
        <time>2013-11-20T11:05:41Z</time>
      </trkpt>
      <trkpt lat="43.25297" lon="5.67264">
        <ele>284.3</ele>
        <time>2013-11-20T11:05:45Z</time>
      </trkpt>
      <trkpt lat="43.25298" lon="5.67269">
        <ele>283.6</ele>
        <time>2013-11-20T11:05:51Z</time>
      </trkpt>
      <trkpt lat="43.25298" lon="5.67275">
        <ele>280</ele>
        <time>2013-11-20T11:05:58Z</time>
      </trkpt>
      <trkpt lat="43.25298" lon="5.6728">
        <ele>279.2</ele>
        <time>2013-11-20T11:06:02Z</time>
      </trkpt>
      <trkpt lat="43.25299" lon="5.67281">
        <ele>279.7</ele>
        <time>2013-11-20T11:06:03Z</time>
      </trkpt>
      <trkpt lat="43.25299" lon="5.6729">
        <ele>281.7</ele>
        <time>2013-11-20T11:06:08Z</time>
      </trkpt>
      <trkpt lat="43.25299" lon="5.67296">
        <ele>286.3</ele>
        <time>2013-11-20T11:06:19Z</time>
      </trkpt>
      <trkpt lat="43.25301" lon="5.67301">
        <ele>286.6</ele>
        <time>2013-11-20T11:06:25Z</time>
      </trkpt>
      <trkpt lat="43.25302" lon="5.67306">
        <ele>287.2</ele>
        <time>2013-11-20T11:06:30Z</time>
      </trkpt>
      <trkpt lat="43.25303" lon="5.67311">
        <ele>286.7</ele>
        <time>2013-11-20T11:06:35Z</time>
      </trkpt>
      <trkpt lat="43.25303" lon="5.67316">
        <ele>287.2</ele>
        <time>2013-11-20T11:06:38Z</time>
      </trkpt>
      <trkpt lat="43.25304" lon="5.67322">
        <ele>287.7</ele>
        <time>2013-11-20T11:06:42Z</time>
      </trkpt>
      <trkpt lat="43.25306" lon="5.67327">
        <ele>286.5</ele>
        <time>2013-11-20T11:06:47Z</time>
      </trkpt>
      <trkpt lat="43.25307" lon="5.67333">
        <ele>284.6</ele>
        <time>2013-11-20T11:06:53Z</time>
      </trkpt>
      <trkpt lat="43.25308" lon="5.67339">
        <ele>283.7</ele>
        <time>2013-11-20T11:06:58Z</time>
      </trkpt>
      <trkpt lat="43.25309" lon="5.67345">
        <ele>285.2</ele>
        <time>2013-11-20T11:07:01Z</time>
      </trkpt>
      <trkpt lat="43.2531" lon="5.67351">
        <ele>286.7</ele>
        <time>2013-11-20T11:07:04Z</time>
      </trkpt>
      <trkpt lat="43.2531" lon="5.67353">
        <ele>287.2</ele>
        <time>2013-11-20T11:07:05Z</time>
      </trkpt>
      <trkpt lat="43.25311" lon="5.67361">
        <ele>286.1</ele>
        <time>2013-11-20T11:07:12Z</time>
      </trkpt>
      <trkpt lat="43.25311" lon="5.67367">
        <ele>286.6</ele>
        <time>2013-11-20T11:07:15Z</time>
      </trkpt>
      <trkpt lat="43.25312" lon="5.67372">
        <ele>287.7</ele>
        <time>2013-11-20T11:07:18Z</time>
      </trkpt>
      <trkpt lat="43.25312" lon="5.67377">
        <ele>287.7</ele>
        <time>2013-11-20T11:07:22Z</time>
      </trkpt>
      <trkpt lat="43.25313" lon="5.67383">
        <ele>286.8</ele>
        <time>2013-11-20T11:07:27Z</time>
      </trkpt>
      <trkpt lat="43.25313" lon="5.67388">
        <ele>285.3</ele>
        <time>2013-11-20T11:07:32Z</time>
      </trkpt>
      <trkpt lat="43.25312" lon="5.67394">
        <ele>283.1</ele>
        <time>2013-11-20T11:07:38Z</time>
      </trkpt>
      <trkpt lat="43.25313" lon="5.67399">
        <ele>281.3</ele>
        <time>2013-11-20T11:07:43Z</time>
      </trkpt>
      <trkpt lat="43.25313" lon="5.67404">
        <ele>282.2</ele>
        <time>2013-11-20T11:07:46Z</time>
      </trkpt>
      <trkpt lat="43.25312" lon="5.6741">
        <ele>282.2</ele>
        <time>2013-11-20T11:07:50Z</time>
      </trkpt>
      <trkpt lat="43.25312" lon="5.67416">
        <ele>281</ele>
        <time>2013-11-20T11:07:55Z</time>
      </trkpt>
      <trkpt lat="43.25313" lon="5.67421">
        <ele>281.2</ele>
        <time>2013-11-20T11:07:59Z</time>
      </trkpt>
      <trkpt lat="43.25313" lon="5.67427">
        <ele>281.5</ele>
        <time>2013-11-20T11:08:03Z</time>
      </trkpt>
      <trkpt lat="43.25313" lon="5.67431">
        <ele>281.3</ele>
        <time>2013-11-20T11:08:06Z</time>
      </trkpt>
      <trkpt lat="43.25313" lon="5.67433">
        <ele>281.7</ele>
        <time>2013-11-20T11:08:07Z</time>
      </trkpt>
      <trkpt lat="43.25316" lon="5.67441">
        <ele>282.7</ele>
        <time>2013-11-20T11:08:14Z</time>
      </trkpt>
      <trkpt lat="43.25317" lon="5.67446">
        <ele>284.2</ele>
        <time>2013-11-20T11:08:18Z</time>
      </trkpt>
      <trkpt lat="43.25318" lon="5.67452">
        <ele>283.7</ele>
        <time>2013-11-20T11:08:23Z</time>
      </trkpt>
      <trkpt lat="43.25319" lon="5.67457">
        <ele>283.1</ele>
        <time>2013-11-20T11:08:28Z</time>
      </trkpt>
      <trkpt lat="43.2532" lon="5.67462">
        <ele>282.1</ele>
        <time>2013-11-20T11:08:33Z</time>
      </trkpt>
      <trkpt lat="43.25321" lon="5.67467">
        <ele>281.5</ele>
        <time>2013-11-20T11:08:37Z</time>
      </trkpt>
      <trkpt lat="43.25322" lon="5.67473">
        <ele>282.8</ele>
        <time>2013-11-20T11:08:41Z</time>
      </trkpt>
      <trkpt lat="43.25323" lon="5.67479">
        <ele>283.7</ele>
        <time>2013-11-20T11:08:46Z</time>
      </trkpt>
      <trkpt lat="43.25325" lon="5.67484">
        <ele>283.3</ele>
        <time>2013-11-20T11:08:54Z</time>
      </trkpt>
      <trkpt lat="43.25325" lon="5.6749">
        <ele>285.2</ele>
        <time>2013-11-20T11:09:00Z</time>
      </trkpt>
      <trkpt lat="43.25325" lon="5.67494">
        <ele>288.2</ele>
        <time>2013-11-20T11:09:02Z</time>
      </trkpt>
      <trkpt lat="43.25324" lon="5.67499">
        <ele>291.3</ele>
        <time>2013-11-20T11:09:04Z</time>
      </trkpt>
      <trkpt lat="43.25322" lon="5.67504">
        <ele>294.7</ele>
        <time>2013-11-20T11:09:08Z</time>
      </trkpt>
      <trkpt lat="43.25321" lon="5.67505">
        <ele>295.1</ele>
        <time>2013-11-20T11:09:09Z</time>
      </trkpt>
      <trkpt lat="43.25315" lon="5.67511">
        <ele>296.2</ele>
        <time>2013-11-20T11:09:22Z</time>
      </trkpt>
      <trkpt lat="43.25311" lon="5.67514">
        <ele>298.2</ele>
        <time>2013-11-20T11:09:37Z</time>
      </trkpt>
      <trkpt lat="43.25307" lon="5.67513">
        <ele>300.7</ele>
        <time>2013-11-20T11:10:07Z</time>
      </trkpt>
      <trkpt lat="43.25303" lon="5.67514">
        <ele>300.1</ele>
        <time>2013-11-20T11:10:15Z</time>
      </trkpt>
      <trkpt lat="43.25302" lon="5.67515">
        <ele>300</ele>
        <time>2013-11-20T11:10:16Z</time>
      </trkpt>
      <trkpt lat="43.25298" lon="5.67524">
        <ele>303.8</ele>
        <time>2013-11-20T11:10:29Z</time>
      </trkpt>
      <trkpt lat="43.25294" lon="5.67522">
        <ele>311.1</ele>
        <time>2013-11-20T11:10:58Z</time>
      </trkpt>
      <trkpt lat="43.2529" lon="5.67521">
        <ele>306.5</ele>
        <time>2013-11-20T11:11:36Z</time>
      </trkpt>
      <trkpt lat="43.2529" lon="5.67521">
        <ele>306.3</ele>
        <time>2013-11-20T11:11:37Z</time>
      </trkpt>
      <trkpt lat="43.25286" lon="5.67519">
        <ele>304.5</ele>
        <time>2013-11-20T11:14:43Z</time>
      </trkpt>
      <trkpt lat="43.2529" lon="5.6752">
        <ele>312.7</ele>
        <time>2013-11-20T11:15:47Z</time>
      </trkpt>
      <trkpt lat="43.25286" lon="5.67519">
        <ele>306.2</ele>
        <time>2013-11-20T11:20:39Z</time>
      </trkpt>
      <trkpt lat="43.2529" lon="5.6752">
        <ele>309.1</ele>
        <time>2013-11-20T11:32:59Z</time>
      </trkpt>
      <trkpt lat="43.25286" lon="5.67517">
        <ele>303.7</ele>
        <time>2013-11-20T11:35:18Z</time>
      </trkpt>
      <trkpt lat="43.25286" lon="5.67518">
        <ele>306.3</ele>
        <time>2013-11-20T11:37:17Z</time>
      </trkpt>
      <trkpt lat="43.25287" lon="5.67519">
        <ele>306.7</ele>
        <time>2013-11-20T11:37:18Z</time>
      </trkpt>
      <trkpt lat="43.25286" lon="5.67518">
        <ele>302.6</ele>
        <time>2013-11-20T11:38:09Z</time>
      </trkpt>
      <trkpt lat="43.2529" lon="5.67521">
        <ele>306.1</ele>
        <time>2013-11-20T11:42:33Z</time>
      </trkpt>
      <trkpt lat="43.2529" lon="5.67521">
        <ele>306.2</ele>
        <time>2013-11-20T11:42:34Z</time>
      </trkpt>
      <trkpt lat="43.25286" lon="5.67518">
        <ele>301.2</ele>
        <time>2013-11-20T11:44:38Z</time>
      </trkpt>
      <trkpt lat="43.2529" lon="5.67522">
        <ele>305.1</ele>
        <time>2013-11-20T11:48:19Z</time>
      </trkpt>
    </trkseg>
  </trk>
</gpx>